<?xml version="1.0" encoding="UTF-8" standalone="no" ?>
<gpx xmlns="http://www.topografix.com/GPX/1/1" xmlns:xsi="http://www.w3.org/2001/XMLSchema-instance" xsi:schemaLocation="http://www.topografix.com/GPX/1/1 http://www.topografix.com/GPX/1/1/gpx.xsd" version="1.1" creator="VisuGPX - https://www.visugpx.com">
  <metadata>
    <name>Col W de Balafrasse (versant W)</name>
  </metadata>
  <trk>
    <name><![CDATA[20190430195400-xVtMe]]></name>
    <trkseg>
      <trkpt lat="46.02366" lon="6.47814">
        <ele>1258.98</ele>
        <time>2019-04-08T07:35:40Z</time>
      </trkpt>
      <trkpt lat="46.02366" lon="6.47814">
        <ele>1186.4</ele>
        <time>2019-04-08T07:35:41Z</time>
      </trkpt>
      <trkpt lat="46.02366" lon="6.47814">
        <ele>1186.4</ele>
        <time>2019-04-08T07:35:42Z</time>
      </trkpt>
      <trkpt lat="46.02365" lon="6.47813">
        <ele>1259.46</ele>
        <time>2019-04-08T07:35:45Z</time>
      </trkpt>
      <trkpt lat="46.02365" lon="6.47813">
        <ele>1258.98</ele>
        <time>2019-04-08T07:35:46Z</time>
      </trkpt>
      <trkpt lat="46.0236" lon="6.47811">
        <ele>1258.98</ele>
        <time>2019-04-08T07:35:51Z</time>
      </trkpt>
      <trkpt lat="46.02337" lon="6.47791">
        <ele>1257.54</ele>
        <time>2019-04-08T07:36:09Z</time>
      </trkpt>
      <trkpt lat="46.02336" lon="6.47791">
        <ele>1257.54</ele>
        <time>2019-04-08T07:36:10Z</time>
      </trkpt>
      <trkpt lat="46.02335" lon="6.47791">
        <ele>1257.54</ele>
        <time>2019-04-08T07:36:11Z</time>
      </trkpt>
      <trkpt lat="46.02324" lon="6.47786">
        <ele>1257.54</ele>
        <time>2019-04-08T07:36:19Z</time>
      </trkpt>
      <trkpt lat="46.02322" lon="6.47785">
        <ele>1257.54</ele>
        <time>2019-04-08T07:36:20Z</time>
      </trkpt>
      <trkpt lat="46.02303" lon="6.47777">
        <ele>1258.02</ele>
        <time>2019-04-08T07:36:36Z</time>
      </trkpt>
      <trkpt lat="46.02301" lon="6.47776">
        <ele>1258.02</ele>
        <time>2019-04-08T07:36:38Z</time>
      </trkpt>
      <trkpt lat="46.023" lon="6.47775">
        <ele>1258.02</ele>
        <time>2019-04-08T07:36:39Z</time>
      </trkpt>
      <trkpt lat="46.02299" lon="6.47775">
        <ele>1258.02</ele>
        <time>2019-04-08T07:36:40Z</time>
      </trkpt>
      <trkpt lat="46.02298" lon="6.47774">
        <ele>1258.02</ele>
        <time>2019-04-08T07:36:41Z</time>
      </trkpt>
      <trkpt lat="46.02297" lon="6.47773">
        <ele>1258.02</ele>
        <time>2019-04-08T07:36:42Z</time>
      </trkpt>
      <trkpt lat="46.02296" lon="6.47773">
        <ele>1258.02</ele>
        <time>2019-04-08T07:36:43Z</time>
      </trkpt>
      <trkpt lat="46.02283" lon="6.47767">
        <ele>1258.5</ele>
        <time>2019-04-08T07:36:54Z</time>
      </trkpt>
      <trkpt lat="46.02281" lon="6.47767">
        <ele>1258.5</ele>
        <time>2019-04-08T07:36:55Z</time>
      </trkpt>
      <trkpt lat="46.02271" lon="6.47764">
        <ele>1258.98</ele>
        <time>2019-04-08T07:37:04Z</time>
      </trkpt>
      <trkpt lat="46.0227" lon="6.47763">
        <ele>1258.98</ele>
        <time>2019-04-08T07:37:05Z</time>
      </trkpt>
      <trkpt lat="46.02269" lon="6.47763">
        <ele>1258.98</ele>
        <time>2019-04-08T07:37:06Z</time>
      </trkpt>
      <trkpt lat="46.02268" lon="6.47763">
        <ele>1259.46</ele>
        <time>2019-04-08T07:37:07Z</time>
      </trkpt>
      <trkpt lat="46.02266" lon="6.47762">
        <ele>1259.46</ele>
        <time>2019-04-08T07:37:08Z</time>
      </trkpt>
      <trkpt lat="46.02265" lon="6.47761">
        <ele>1259.46</ele>
        <time>2019-04-08T07:37:09Z</time>
      </trkpt>
      <trkpt lat="46.02264" lon="6.4776">
        <ele>1258.98</ele>
        <time>2019-04-08T07:37:10Z</time>
      </trkpt>
      <trkpt lat="46.02263" lon="6.4776">
        <ele>1258.98</ele>
        <time>2019-04-08T07:37:11Z</time>
      </trkpt>
      <trkpt lat="46.02261" lon="6.47759">
        <ele>1258.98</ele>
        <time>2019-04-08T07:37:12Z</time>
      </trkpt>
      <trkpt lat="46.02258" lon="6.47757">
        <ele>1259.46</ele>
        <time>2019-04-08T07:37:15Z</time>
      </trkpt>
      <trkpt lat="46.02257" lon="6.47756">
        <ele>1259.46</ele>
        <time>2019-04-08T07:37:16Z</time>
      </trkpt>
      <trkpt lat="46.02256" lon="6.47756">
        <ele>1258.98</ele>
        <time>2019-04-08T07:37:17Z</time>
      </trkpt>
      <trkpt lat="46.02244" lon="6.47754">
        <ele>1259.46</ele>
        <time>2019-04-08T07:37:26Z</time>
      </trkpt>
      <trkpt lat="46.02243" lon="6.47753">
        <ele>1259.46</ele>
        <time>2019-04-08T07:37:27Z</time>
      </trkpt>
      <trkpt lat="46.02241" lon="6.47752">
        <ele>1259.46</ele>
        <time>2019-04-08T07:37:28Z</time>
      </trkpt>
      <trkpt lat="46.02227" lon="6.47744">
        <ele>1260.43</ele>
        <time>2019-04-08T07:37:40Z</time>
      </trkpt>
      <trkpt lat="46.02225" lon="6.47744">
        <ele>1260.43</ele>
        <time>2019-04-08T07:37:41Z</time>
      </trkpt>
      <trkpt lat="46.022" lon="6.4773">
        <ele>1261.87</ele>
        <time>2019-04-08T07:38:04Z</time>
      </trkpt>
      <trkpt lat="46.02173" lon="6.47716">
        <ele>1263.79</ele>
        <time>2019-04-08T07:38:27Z</time>
      </trkpt>
      <trkpt lat="46.0216" lon="6.47701">
        <ele>1264.75</ele>
        <time>2019-04-08T07:38:40Z</time>
      </trkpt>
      <trkpt lat="46.02159" lon="6.477">
        <ele>1264.75</ele>
        <time>2019-04-08T07:38:41Z</time>
      </trkpt>
      <trkpt lat="46.02157" lon="6.477">
        <ele>1265.23</ele>
        <time>2019-04-08T07:38:42Z</time>
      </trkpt>
      <trkpt lat="46.02156" lon="6.477">
        <ele>1265.23</ele>
        <time>2019-04-08T07:38:43Z</time>
      </trkpt>
      <trkpt lat="46.02155" lon="6.47699">
        <ele>1265.23</ele>
        <time>2019-04-08T07:38:44Z</time>
      </trkpt>
      <trkpt lat="46.02136" lon="6.47694">
        <ele>1265.23</ele>
        <time>2019-04-08T07:39:15Z</time>
      </trkpt>
      <trkpt lat="46.02122" lon="6.47685">
        <ele>1265.23</ele>
        <time>2019-04-08T07:39:42Z</time>
      </trkpt>
      <trkpt lat="46.02122" lon="6.47684">
        <ele>1265.23</ele>
        <time>2019-04-08T07:39:43Z</time>
      </trkpt>
      <trkpt lat="46.02121" lon="6.47684">
        <ele>1265.23</ele>
        <time>2019-04-08T07:39:44Z</time>
      </trkpt>
      <trkpt lat="46.02109" lon="6.47688">
        <ele>1263.79</ele>
        <time>2019-04-08T07:40:03Z</time>
      </trkpt>
      <trkpt lat="46.02109" lon="6.47689">
        <ele>1263.79</ele>
        <time>2019-04-08T07:40:04Z</time>
      </trkpt>
      <trkpt lat="46.02108" lon="6.4769">
        <ele>1263.79</ele>
        <time>2019-04-08T07:40:05Z</time>
      </trkpt>
      <trkpt lat="46.02107" lon="6.47691">
        <ele>1263.79</ele>
        <time>2019-04-08T07:40:06Z</time>
      </trkpt>
      <trkpt lat="46.02105" lon="6.47692">
        <ele>1263.79</ele>
        <time>2019-04-08T07:40:08Z</time>
      </trkpt>
      <trkpt lat="46.02104" lon="6.47692">
        <ele>1263.79</ele>
        <time>2019-04-08T07:40:09Z</time>
      </trkpt>
      <trkpt lat="46.0209" lon="6.47698">
        <ele>1262.83</ele>
        <time>2019-04-08T07:40:28Z</time>
      </trkpt>
      <trkpt lat="46.02081" lon="6.47698">
        <ele>1263.79</ele>
        <time>2019-04-08T07:40:57Z</time>
      </trkpt>
      <trkpt lat="46.02041" lon="6.47675">
        <ele>1266.67</ele>
        <time>2019-04-08T07:41:33Z</time>
      </trkpt>
      <trkpt lat="46.02027" lon="6.47672">
        <ele>1268.12</ele>
        <time>2019-04-08T07:41:45Z</time>
      </trkpt>
      <trkpt lat="46.02025" lon="6.47672">
        <ele>1268.12</ele>
        <time>2019-04-08T07:41:46Z</time>
      </trkpt>
      <trkpt lat="46.02024" lon="6.47672">
        <ele>1268.12</ele>
        <time>2019-04-08T07:41:47Z</time>
      </trkpt>
      <trkpt lat="46.02023" lon="6.47672">
        <ele>1268.6</ele>
        <time>2019-04-08T07:41:48Z</time>
      </trkpt>
      <trkpt lat="46.02021" lon="6.47672">
        <ele>1268.6</ele>
        <time>2019-04-08T07:41:49Z</time>
      </trkpt>
      <trkpt lat="46.0202" lon="6.47671">
        <ele>1268.12</ele>
        <time>2019-04-08T07:41:50Z</time>
      </trkpt>
      <trkpt lat="46.02015" lon="6.4767">
        <ele>1268.12</ele>
        <time>2019-04-08T07:41:54Z</time>
      </trkpt>
      <trkpt lat="46.02014" lon="6.47671">
        <ele>1268.12</ele>
        <time>2019-04-08T07:41:55Z</time>
      </trkpt>
      <trkpt lat="46.02012" lon="6.47671">
        <ele>1268.12</ele>
        <time>2019-04-08T07:41:57Z</time>
      </trkpt>
      <trkpt lat="46.01981" lon="6.4765">
        <ele>1268.12</ele>
        <time>2019-04-08T07:42:24Z</time>
      </trkpt>
      <trkpt lat="46.0198" lon="6.47649">
        <ele>1268.6</ele>
        <time>2019-04-08T07:42:25Z</time>
      </trkpt>
      <trkpt lat="46.01979" lon="6.47648">
        <ele>1269.08</ele>
        <time>2019-04-08T07:42:27Z</time>
      </trkpt>
      <trkpt lat="46.01978" lon="6.47648">
        <ele>1269.08</ele>
        <time>2019-04-08T07:42:28Z</time>
      </trkpt>
      <trkpt lat="46.01972" lon="6.4765">
        <ele>1270.52</ele>
        <time>2019-04-08T07:42:35Z</time>
      </trkpt>
      <trkpt lat="46.01952" lon="6.4766">
        <ele>1270.52</ele>
        <time>2019-04-08T07:42:52Z</time>
      </trkpt>
      <trkpt lat="46.0195" lon="6.4766">
        <ele>1270.52</ele>
        <time>2019-04-08T07:42:53Z</time>
      </trkpt>
      <trkpt lat="46.01949" lon="6.4766">
        <ele>1270.04</ele>
        <time>2019-04-08T07:42:54Z</time>
      </trkpt>
      <trkpt lat="46.01948" lon="6.47661">
        <ele>1270.04</ele>
        <time>2019-04-08T07:42:55Z</time>
      </trkpt>
      <trkpt lat="46.01947" lon="6.47662">
        <ele>1270.52</ele>
        <time>2019-04-08T07:42:56Z</time>
      </trkpt>
      <trkpt lat="46.01946" lon="6.47662">
        <ele>1270.52</ele>
        <time>2019-04-08T07:42:57Z</time>
      </trkpt>
      <trkpt lat="46.01945" lon="6.47663">
        <ele>1270.52</ele>
        <time>2019-04-08T07:42:58Z</time>
      </trkpt>
      <trkpt lat="46.01944" lon="6.47663">
        <ele>1270.52</ele>
        <time>2019-04-08T07:42:59Z</time>
      </trkpt>
      <trkpt lat="46.01942" lon="6.47664">
        <ele>1270.52</ele>
        <time>2019-04-08T07:43:00Z</time>
      </trkpt>
      <trkpt lat="46.01941" lon="6.47664">
        <ele>1271</ele>
        <time>2019-04-08T07:43:01Z</time>
      </trkpt>
      <trkpt lat="46.01915" lon="6.47662">
        <ele>1271.96</ele>
        <time>2019-04-08T07:43:24Z</time>
      </trkpt>
      <trkpt lat="46.01913" lon="6.47662">
        <ele>1271.96</ele>
        <time>2019-04-08T07:43:25Z</time>
      </trkpt>
      <trkpt lat="46.01912" lon="6.47662">
        <ele>1272.44</ele>
        <time>2019-04-08T07:43:26Z</time>
      </trkpt>
      <trkpt lat="46.01881" lon="6.47644">
        <ele>1273.4</ele>
        <time>2019-04-08T07:43:52Z</time>
      </trkpt>
      <trkpt lat="46.01866" lon="6.47635">
        <ele>1274.36</ele>
        <time>2019-04-08T07:44:04Z</time>
      </trkpt>
      <trkpt lat="46.01865" lon="6.47634">
        <ele>1274.36</ele>
        <time>2019-04-08T07:44:05Z</time>
      </trkpt>
      <trkpt lat="46.01864" lon="6.47633">
        <ele>1274.36</ele>
        <time>2019-04-08T07:44:06Z</time>
      </trkpt>
      <trkpt lat="46.01863" lon="6.47632">
        <ele>1274.36</ele>
        <time>2019-04-08T07:44:07Z</time>
      </trkpt>
      <trkpt lat="46.01861" lon="6.47631">
        <ele>1274.36</ele>
        <time>2019-04-08T07:44:08Z</time>
      </trkpt>
      <trkpt lat="46.01855" lon="6.47625">
        <ele>1275.33</ele>
        <time>2019-04-08T07:44:14Z</time>
      </trkpt>
      <trkpt lat="46.01853" lon="6.47623">
        <ele>1275.33</ele>
        <time>2019-04-08T07:44:15Z</time>
      </trkpt>
      <trkpt lat="46.01852" lon="6.47623">
        <ele>1275.33</ele>
        <time>2019-04-08T07:44:16Z</time>
      </trkpt>
      <trkpt lat="46.01818" lon="6.47581">
        <ele>1278.21</ele>
        <time>2019-04-08T07:44:52Z</time>
      </trkpt>
      <trkpt lat="46.01809" lon="6.4757">
        <ele>1279.17</ele>
        <time>2019-04-08T07:45:02Z</time>
      </trkpt>
      <trkpt lat="46.01808" lon="6.47568">
        <ele>1279.17</ele>
        <time>2019-04-08T07:45:03Z</time>
      </trkpt>
      <trkpt lat="46.01807" lon="6.47567">
        <ele>1279.17</ele>
        <time>2019-04-08T07:45:04Z</time>
      </trkpt>
      <trkpt lat="46.01806" lon="6.47565">
        <ele>1279.17</ele>
        <time>2019-04-08T07:45:05Z</time>
      </trkpt>
      <trkpt lat="46.01806" lon="6.47564">
        <ele>1279.17</ele>
        <time>2019-04-08T07:45:06Z</time>
      </trkpt>
      <trkpt lat="46.01805" lon="6.47563">
        <ele>1279.17</ele>
        <time>2019-04-08T07:45:07Z</time>
      </trkpt>
      <trkpt lat="46.01804" lon="6.47561">
        <ele>1279.17</ele>
        <time>2019-04-08T07:45:08Z</time>
      </trkpt>
      <trkpt lat="46.01803" lon="6.4756">
        <ele>1279.65</ele>
        <time>2019-04-08T07:45:09Z</time>
      </trkpt>
      <trkpt lat="46.01802" lon="6.47559">
        <ele>1279.65</ele>
        <time>2019-04-08T07:45:10Z</time>
      </trkpt>
      <trkpt lat="46.01801" lon="6.47558">
        <ele>1279.65</ele>
        <time>2019-04-08T07:45:11Z</time>
      </trkpt>
      <trkpt lat="46.018" lon="6.47557">
        <ele>1280.13</ele>
        <time>2019-04-08T07:45:12Z</time>
      </trkpt>
      <trkpt lat="46.01774" lon="6.47523">
        <ele>1281.57</ele>
        <time>2019-04-08T07:45:42Z</time>
      </trkpt>
      <trkpt lat="46.01773" lon="6.47523">
        <ele>1282.06</ele>
        <time>2019-04-08T07:45:43Z</time>
      </trkpt>
      <trkpt lat="46.01772" lon="6.47521">
        <ele>1282.06</ele>
        <time>2019-04-08T07:45:44Z</time>
      </trkpt>
      <trkpt lat="46.0177" lon="6.47517">
        <ele>1282.54</ele>
        <time>2019-04-08T07:45:47Z</time>
      </trkpt>
      <trkpt lat="46.01769" lon="6.47517">
        <ele>1282.54</ele>
        <time>2019-04-08T07:45:48Z</time>
      </trkpt>
      <trkpt lat="46.01768" lon="6.47516">
        <ele>1282.54</ele>
        <time>2019-04-08T07:45:49Z</time>
      </trkpt>
      <trkpt lat="46.01767" lon="6.47514">
        <ele>1283.02</ele>
        <time>2019-04-08T07:45:50Z</time>
      </trkpt>
      <trkpt lat="46.01767" lon="6.47513">
        <ele>1283.02</ele>
        <time>2019-04-08T07:45:51Z</time>
      </trkpt>
      <trkpt lat="46.01766" lon="6.47512">
        <ele>1283.02</ele>
        <time>2019-04-08T07:45:52Z</time>
      </trkpt>
      <trkpt lat="46.01765" lon="6.4751">
        <ele>1283.02</ele>
        <time>2019-04-08T07:45:53Z</time>
      </trkpt>
      <trkpt lat="46.01755" lon="6.47493">
        <ele>1284.46</ele>
        <time>2019-04-08T07:46:06Z</time>
      </trkpt>
      <trkpt lat="46.01754" lon="6.47492">
        <ele>1284.46</ele>
        <time>2019-04-08T07:46:07Z</time>
      </trkpt>
      <trkpt lat="46.01754" lon="6.4749">
        <ele>1284.46</ele>
        <time>2019-04-08T07:46:08Z</time>
      </trkpt>
      <trkpt lat="46.01748" lon="6.47469">
        <ele>1285.42</ele>
        <time>2019-04-08T07:46:21Z</time>
      </trkpt>
      <trkpt lat="46.01747" lon="6.47468">
        <ele>1285.42</ele>
        <time>2019-04-08T07:46:22Z</time>
      </trkpt>
      <trkpt lat="46.01747" lon="6.47467">
        <ele>1285.9</ele>
        <time>2019-04-08T07:46:23Z</time>
      </trkpt>
      <trkpt lat="46.01746" lon="6.47466">
        <ele>1285.9</ele>
        <time>2019-04-08T07:46:24Z</time>
      </trkpt>
      <trkpt lat="46.01745" lon="6.47464">
        <ele>1285.9</ele>
        <time>2019-04-08T07:46:25Z</time>
      </trkpt>
      <trkpt lat="46.01743" lon="6.47459">
        <ele>1286.38</ele>
        <time>2019-04-08T07:46:29Z</time>
      </trkpt>
      <trkpt lat="46.01742" lon="6.47457">
        <ele>1286.38</ele>
        <time>2019-04-08T07:46:30Z</time>
      </trkpt>
      <trkpt lat="46.01742" lon="6.47456">
        <ele>1286.38</ele>
        <time>2019-04-08T07:46:31Z</time>
      </trkpt>
      <trkpt lat="46.01741" lon="6.47455">
        <ele>1286.38</ele>
        <time>2019-04-08T07:46:32Z</time>
      </trkpt>
      <trkpt lat="46.01741" lon="6.47453">
        <ele>1286.86</ele>
        <time>2019-04-08T07:46:33Z</time>
      </trkpt>
      <trkpt lat="46.0174" lon="6.47452">
        <ele>1286.86</ele>
        <time>2019-04-08T07:46:34Z</time>
      </trkpt>
      <trkpt lat="46.01739" lon="6.47451">
        <ele>1286.86</ele>
        <time>2019-04-08T07:46:35Z</time>
      </trkpt>
      <trkpt lat="46.01739" lon="6.47449">
        <ele>1286.86</ele>
        <time>2019-04-08T07:46:36Z</time>
      </trkpt>
      <trkpt lat="46.01738" lon="6.47448">
        <ele>1286.86</ele>
        <time>2019-04-08T07:46:37Z</time>
      </trkpt>
      <trkpt lat="46.01734" lon="6.47436">
        <ele>1287.82</ele>
        <time>2019-04-08T07:46:45Z</time>
      </trkpt>
      <trkpt lat="46.01718" lon="6.47386">
        <ele>1291.19</ele>
        <time>2019-04-08T07:47:18Z</time>
      </trkpt>
      <trkpt lat="46.01716" lon="6.47383">
        <ele>1291.19</ele>
        <time>2019-04-08T07:47:21Z</time>
      </trkpt>
      <trkpt lat="46.01715" lon="6.47382">
        <ele>1291.67</ele>
        <time>2019-04-08T07:47:22Z</time>
      </trkpt>
      <trkpt lat="46.01715" lon="6.47381">
        <ele>1291.67</ele>
        <time>2019-04-08T07:47:23Z</time>
      </trkpt>
      <trkpt lat="46.01703" lon="6.47365">
        <ele>1295.03</ele>
        <time>2019-04-08T07:47:40Z</time>
      </trkpt>
      <trkpt lat="46.01701" lon="6.47362">
        <ele>1295.03</ele>
        <time>2019-04-08T07:47:43Z</time>
      </trkpt>
      <trkpt lat="46.017" lon="6.47361">
        <ele>1295.03</ele>
        <time>2019-04-08T07:47:44Z</time>
      </trkpt>
      <trkpt lat="46.017" lon="6.47359">
        <ele>1295.51</ele>
        <time>2019-04-08T07:47:45Z</time>
      </trkpt>
      <trkpt lat="46.01699" lon="6.47358">
        <ele>1295.51</ele>
        <time>2019-04-08T07:47:46Z</time>
      </trkpt>
      <trkpt lat="46.01698" lon="6.47357">
        <ele>1295.99</ele>
        <time>2019-04-08T07:47:47Z</time>
      </trkpt>
      <trkpt lat="46.01697" lon="6.47356">
        <ele>1295.99</ele>
        <time>2019-04-08T07:47:48Z</time>
      </trkpt>
      <trkpt lat="46.01696" lon="6.47355">
        <ele>1295.99</ele>
        <time>2019-04-08T07:47:49Z</time>
      </trkpt>
      <trkpt lat="46.01695" lon="6.47354">
        <ele>1295.99</ele>
        <time>2019-04-08T07:47:50Z</time>
      </trkpt>
      <trkpt lat="46.01694" lon="6.47351">
        <ele>1296.48</ele>
        <time>2019-04-08T07:47:52Z</time>
      </trkpt>
      <trkpt lat="46.01693" lon="6.4735">
        <ele>1296.48</ele>
        <time>2019-04-08T07:47:53Z</time>
      </trkpt>
      <trkpt lat="46.01693" lon="6.47349">
        <ele>1296.96</ele>
        <time>2019-04-08T07:47:54Z</time>
      </trkpt>
      <trkpt lat="46.01692" lon="6.47347">
        <ele>1296.96</ele>
        <time>2019-04-08T07:47:55Z</time>
      </trkpt>
      <trkpt lat="46.01692" lon="6.47346">
        <ele>1296.96</ele>
        <time>2019-04-08T07:47:56Z</time>
      </trkpt>
      <trkpt lat="46.01691" lon="6.47345">
        <ele>1296.96</ele>
        <time>2019-04-08T07:47:57Z</time>
      </trkpt>
      <trkpt lat="46.01691" lon="6.47344">
        <ele>1297.44</ele>
        <time>2019-04-08T07:47:58Z</time>
      </trkpt>
      <trkpt lat="46.01689" lon="6.47341">
        <ele>1297.44</ele>
        <time>2019-04-08T07:48:00Z</time>
      </trkpt>
      <trkpt lat="46.01689" lon="6.4734">
        <ele>1297.92</ele>
        <time>2019-04-08T07:48:01Z</time>
      </trkpt>
      <trkpt lat="46.01688" lon="6.47338">
        <ele>1298.4</ele>
        <time>2019-04-08T07:48:03Z</time>
      </trkpt>
      <trkpt lat="46.01688" lon="6.47337">
        <ele>1298.4</ele>
        <time>2019-04-08T07:48:04Z</time>
      </trkpt>
      <trkpt lat="46.0168" lon="6.47323">
        <ele>1301.76</ele>
        <time>2019-04-08T07:48:20Z</time>
      </trkpt>
      <trkpt lat="46.01678" lon="6.4732">
        <ele>1302.72</ele>
        <time>2019-04-08T07:48:24Z</time>
      </trkpt>
      <trkpt lat="46.01677" lon="6.47317">
        <ele>1303.69</ele>
        <time>2019-04-08T07:48:27Z</time>
      </trkpt>
      <trkpt lat="46.01669" lon="6.47297">
        <ele>1306.57</ele>
        <time>2019-04-08T07:48:43Z</time>
      </trkpt>
      <trkpt lat="46.01667" lon="6.47293">
        <ele>1307.05</ele>
        <time>2019-04-08T07:48:47Z</time>
      </trkpt>
      <trkpt lat="46.01666" lon="6.47292">
        <ele>1307.53</ele>
        <time>2019-04-08T07:48:48Z</time>
      </trkpt>
      <trkpt lat="46.01664" lon="6.4729">
        <ele>1308.01</ele>
        <time>2019-04-08T07:48:51Z</time>
      </trkpt>
      <trkpt lat="46.01664" lon="6.47289">
        <ele>1308.49</ele>
        <time>2019-04-08T07:48:52Z</time>
      </trkpt>
      <trkpt lat="46.01663" lon="6.47289">
        <ele>1308.49</ele>
        <time>2019-04-08T07:48:53Z</time>
      </trkpt>
      <trkpt lat="46.01662" lon="6.47287">
        <ele>1308.97</ele>
        <time>2019-04-08T07:48:55Z</time>
      </trkpt>
      <trkpt lat="46.01651" lon="6.47274">
        <ele>1311.86</ele>
        <time>2019-04-08T07:49:11Z</time>
      </trkpt>
      <trkpt lat="46.0165" lon="6.47272">
        <ele>1312.34</ele>
        <time>2019-04-08T07:49:13Z</time>
      </trkpt>
      <trkpt lat="46.01649" lon="6.4727">
        <ele>1312.34</ele>
        <time>2019-04-08T07:49:14Z</time>
      </trkpt>
      <trkpt lat="46.01648" lon="6.47269">
        <ele>1312.34</ele>
        <time>2019-04-08T07:49:15Z</time>
      </trkpt>
      <trkpt lat="46.01647" lon="6.47268">
        <ele>1312.34</ele>
        <time>2019-04-08T07:49:16Z</time>
      </trkpt>
      <trkpt lat="46.01647" lon="6.47267">
        <ele>1312.82</ele>
        <time>2019-04-08T07:49:17Z</time>
      </trkpt>
      <trkpt lat="46.01646" lon="6.47266">
        <ele>1312.82</ele>
        <time>2019-04-08T07:49:18Z</time>
      </trkpt>
      <trkpt lat="46.01645" lon="6.47264">
        <ele>1313.3</ele>
        <time>2019-04-08T07:49:20Z</time>
      </trkpt>
      <trkpt lat="46.01644" lon="6.47262">
        <ele>1313.78</ele>
        <time>2019-04-08T07:49:22Z</time>
      </trkpt>
      <trkpt lat="46.01642" lon="6.47259">
        <ele>1313.78</ele>
        <time>2019-04-08T07:49:24Z</time>
      </trkpt>
      <trkpt lat="46.01641" lon="6.47258">
        <ele>1314.26</ele>
        <time>2019-04-08T07:49:25Z</time>
      </trkpt>
      <trkpt lat="46.01639" lon="6.47257">
        <ele>1314.26</ele>
        <time>2019-04-08T07:49:26Z</time>
      </trkpt>
      <trkpt lat="46.01639" lon="6.47256">
        <ele>1314.74</ele>
        <time>2019-04-08T07:49:27Z</time>
      </trkpt>
      <trkpt lat="46.01638" lon="6.47254">
        <ele>1314.74</ele>
        <time>2019-04-08T07:49:28Z</time>
      </trkpt>
      <trkpt lat="46.01637" lon="6.47252">
        <ele>1314.74</ele>
        <time>2019-04-08T07:49:29Z</time>
      </trkpt>
      <trkpt lat="46.01632" lon="6.47246">
        <ele>1316.18</ele>
        <time>2019-04-08T07:49:36Z</time>
      </trkpt>
      <trkpt lat="46.01632" lon="6.47245">
        <ele>1317.14</ele>
        <time>2019-04-08T07:49:38Z</time>
      </trkpt>
      <trkpt lat="46.01631" lon="6.47244">
        <ele>1317.14</ele>
        <time>2019-04-08T07:49:39Z</time>
      </trkpt>
      <trkpt lat="46.01628" lon="6.47243">
        <ele>1318.1</ele>
        <time>2019-04-08T07:49:42Z</time>
      </trkpt>
      <trkpt lat="46.01628" lon="6.47242">
        <ele>1318.1</ele>
        <time>2019-04-08T07:49:43Z</time>
      </trkpt>
      <trkpt lat="46.01625" lon="6.4724">
        <ele>1319.07</ele>
        <time>2019-04-08T07:49:47Z</time>
      </trkpt>
      <trkpt lat="46.01624" lon="6.47239">
        <ele>1319.07</ele>
        <time>2019-04-08T07:49:48Z</time>
      </trkpt>
      <trkpt lat="46.01623" lon="6.47239">
        <ele>1319.07</ele>
        <time>2019-04-08T07:49:49Z</time>
      </trkpt>
      <trkpt lat="46.01622" lon="6.47238">
        <ele>1319.55</ele>
        <time>2019-04-08T07:49:50Z</time>
      </trkpt>
      <trkpt lat="46.01621" lon="6.47237">
        <ele>1320.03</ele>
        <time>2019-04-08T07:49:51Z</time>
      </trkpt>
      <trkpt lat="46.01621" lon="6.47237">
        <ele>1320.03</ele>
        <time>2019-04-08T07:49:52Z</time>
      </trkpt>
      <trkpt lat="46.01621" lon="6.47236">
        <ele>1320.03</ele>
        <time>2019-04-08T07:49:53Z</time>
      </trkpt>
      <trkpt lat="46.0162" lon="6.47235">
        <ele>1320.03</ele>
        <time>2019-04-08T07:49:54Z</time>
      </trkpt>
      <trkpt lat="46.0162" lon="6.47234">
        <ele>1320.51</ele>
        <time>2019-04-08T07:49:55Z</time>
      </trkpt>
      <trkpt lat="46.0162" lon="6.47233">
        <ele>1320.99</ele>
        <time>2019-04-08T07:49:56Z</time>
      </trkpt>
      <trkpt lat="46.01619" lon="6.47232">
        <ele>1320.99</ele>
        <time>2019-04-08T07:49:57Z</time>
      </trkpt>
      <trkpt lat="46.01619" lon="6.47231">
        <ele>1321.47</ele>
        <time>2019-04-08T07:49:58Z</time>
      </trkpt>
      <trkpt lat="46.01618" lon="6.47231">
        <ele>1321.47</ele>
        <time>2019-04-08T07:49:59Z</time>
      </trkpt>
      <trkpt lat="46.01617" lon="6.47229">
        <ele>1321.95</ele>
        <time>2019-04-08T07:50:00Z</time>
      </trkpt>
      <trkpt lat="46.01616" lon="6.47227">
        <ele>1321.95</ele>
        <time>2019-04-08T07:50:02Z</time>
      </trkpt>
      <trkpt lat="46.01615" lon="6.47225">
        <ele>1322.43</ele>
        <time>2019-04-08T07:50:04Z</time>
      </trkpt>
      <trkpt lat="46.01615" lon="6.47224">
        <ele>1322.43</ele>
        <time>2019-04-08T07:50:05Z</time>
      </trkpt>
      <trkpt lat="46.01614" lon="6.47222">
        <ele>1322.43</ele>
        <time>2019-04-08T07:50:07Z</time>
      </trkpt>
      <trkpt lat="46.01613" lon="6.47217">
        <ele>1322.91</ele>
        <time>2019-04-08T07:50:11Z</time>
      </trkpt>
      <trkpt lat="46.01613" lon="6.47216">
        <ele>1322.91</ele>
        <time>2019-04-08T07:50:12Z</time>
      </trkpt>
      <trkpt lat="46.01613" lon="6.47215">
        <ele>1323.39</ele>
        <time>2019-04-08T07:50:13Z</time>
      </trkpt>
      <trkpt lat="46.01612" lon="6.47214">
        <ele>1323.39</ele>
        <time>2019-04-08T07:50:14Z</time>
      </trkpt>
      <trkpt lat="46.01612" lon="6.47212">
        <ele>1323.87</ele>
        <time>2019-04-08T07:50:16Z</time>
      </trkpt>
      <trkpt lat="46.01612" lon="6.47211">
        <ele>1323.87</ele>
        <time>2019-04-08T07:50:18Z</time>
      </trkpt>
      <trkpt lat="46.01611" lon="6.47205">
        <ele>1325.31</ele>
        <time>2019-04-08T07:50:23Z</time>
      </trkpt>
      <trkpt lat="46.01609" lon="6.47201">
        <ele>1325.8</ele>
        <time>2019-04-08T07:50:27Z</time>
      </trkpt>
      <trkpt lat="46.01608" lon="6.472">
        <ele>1325.8</ele>
        <time>2019-04-08T07:50:28Z</time>
      </trkpt>
      <trkpt lat="46.01609" lon="6.47199">
        <ele>1325.8</ele>
        <time>2019-04-08T07:50:29Z</time>
      </trkpt>
      <trkpt lat="46.01606" lon="6.47196">
        <ele>1327.24</ele>
        <time>2019-04-08T07:50:33Z</time>
      </trkpt>
      <trkpt lat="46.01605" lon="6.47195">
        <ele>1327.24</ele>
        <time>2019-04-08T07:50:34Z</time>
      </trkpt>
      <trkpt lat="46.01604" lon="6.47193">
        <ele>1327.72</ele>
        <time>2019-04-08T07:50:36Z</time>
      </trkpt>
      <trkpt lat="46.01603" lon="6.47189">
        <ele>1328.2</ele>
        <time>2019-04-08T07:50:39Z</time>
      </trkpt>
      <trkpt lat="46.016" lon="6.47177">
        <ele>1328.68</ele>
        <time>2019-04-08T07:50:48Z</time>
      </trkpt>
      <trkpt lat="46.016" lon="6.47175">
        <ele>1328.68</ele>
        <time>2019-04-08T07:50:49Z</time>
      </trkpt>
      <trkpt lat="46.01599" lon="6.47174">
        <ele>1328.68</ele>
        <time>2019-04-08T07:50:50Z</time>
      </trkpt>
      <trkpt lat="46.01598" lon="6.47172">
        <ele>1329.16</ele>
        <time>2019-04-08T07:50:52Z</time>
      </trkpt>
      <trkpt lat="46.01597" lon="6.4717">
        <ele>1329.16</ele>
        <time>2019-04-08T07:50:53Z</time>
      </trkpt>
      <trkpt lat="46.01589" lon="6.47156">
        <ele>1331.56</ele>
        <time>2019-04-08T07:51:04Z</time>
      </trkpt>
      <trkpt lat="46.01589" lon="6.47154">
        <ele>1331.56</ele>
        <time>2019-04-08T07:51:05Z</time>
      </trkpt>
      <trkpt lat="46.01587" lon="6.47153">
        <ele>1331.56</ele>
        <time>2019-04-08T07:51:06Z</time>
      </trkpt>
      <trkpt lat="46.01587" lon="6.47151">
        <ele>1331.56</ele>
        <time>2019-04-08T07:51:08Z</time>
      </trkpt>
      <trkpt lat="46.01586" lon="6.47149">
        <ele>1332.04</ele>
        <time>2019-04-08T07:51:10Z</time>
      </trkpt>
      <trkpt lat="46.01586" lon="6.47148">
        <ele>1332.04</ele>
        <time>2019-04-08T07:51:11Z</time>
      </trkpt>
      <trkpt lat="46.01585" lon="6.47146">
        <ele>1332.52</ele>
        <time>2019-04-08T07:51:12Z</time>
      </trkpt>
      <trkpt lat="46.01583" lon="6.47145">
        <ele>1332.52</ele>
        <time>2019-04-08T07:51:13Z</time>
      </trkpt>
      <trkpt lat="46.01583" lon="6.47143">
        <ele>1332.52</ele>
        <time>2019-04-08T07:51:14Z</time>
      </trkpt>
      <trkpt lat="46.01583" lon="6.47142">
        <ele>1333.01</ele>
        <time>2019-04-08T07:51:15Z</time>
      </trkpt>
      <trkpt lat="46.01574" lon="6.47118">
        <ele>1335.41</ele>
        <time>2019-04-08T07:51:34Z</time>
      </trkpt>
      <trkpt lat="46.01573" lon="6.47116">
        <ele>1335.89</ele>
        <time>2019-04-08T07:51:36Z</time>
      </trkpt>
      <trkpt lat="46.01573" lon="6.47114">
        <ele>1336.37</ele>
        <time>2019-04-08T07:51:38Z</time>
      </trkpt>
      <trkpt lat="46.01568" lon="6.47105">
        <ele>1337.81</ele>
        <time>2019-04-08T07:51:47Z</time>
      </trkpt>
      <trkpt lat="46.01568" lon="6.47104">
        <ele>1337.81</ele>
        <time>2019-04-08T07:51:48Z</time>
      </trkpt>
      <trkpt lat="46.01567" lon="6.47102">
        <ele>1337.81</ele>
        <time>2019-04-08T07:51:49Z</time>
      </trkpt>
      <trkpt lat="46.01566" lon="6.47101">
        <ele>1337.81</ele>
        <time>2019-04-08T07:51:50Z</time>
      </trkpt>
      <trkpt lat="46.01564" lon="6.47099">
        <ele>1338.77</ele>
        <time>2019-04-08T07:51:53Z</time>
      </trkpt>
      <trkpt lat="46.01564" lon="6.47097">
        <ele>1338.77</ele>
        <time>2019-04-08T07:51:54Z</time>
      </trkpt>
      <trkpt lat="46.01564" lon="6.47096">
        <ele>1338.77</ele>
        <time>2019-04-08T07:51:55Z</time>
      </trkpt>
      <trkpt lat="46.01564" lon="6.47095">
        <ele>1338.77</ele>
        <time>2019-04-08T07:51:56Z</time>
      </trkpt>
      <trkpt lat="46.01564" lon="6.47093">
        <ele>1339.73</ele>
        <time>2019-04-08T07:51:58Z</time>
      </trkpt>
      <trkpt lat="46.01564" lon="6.47092">
        <ele>1339.73</ele>
        <time>2019-04-08T07:51:59Z</time>
      </trkpt>
      <trkpt lat="46.01564" lon="6.47091">
        <ele>1339.73</ele>
        <time>2019-04-08T07:52:00Z</time>
      </trkpt>
      <trkpt lat="46.01564" lon="6.47086">
        <ele>1340.22</ele>
        <time>2019-04-08T07:52:04Z</time>
      </trkpt>
      <trkpt lat="46.01566" lon="6.4708">
        <ele>1341.18</ele>
        <time>2019-04-08T07:52:10Z</time>
      </trkpt>
      <trkpt lat="46.01566" lon="6.47069">
        <ele>1342.62</ele>
        <time>2019-04-08T07:52:20Z</time>
      </trkpt>
      <trkpt lat="46.01565" lon="6.47066">
        <ele>1343.1</ele>
        <time>2019-04-08T07:52:23Z</time>
      </trkpt>
      <trkpt lat="46.01565" lon="6.47065">
        <ele>1343.1</ele>
        <time>2019-04-08T07:52:24Z</time>
      </trkpt>
      <trkpt lat="46.01565" lon="6.47063">
        <ele>1343.1</ele>
        <time>2019-04-08T07:52:25Z</time>
      </trkpt>
      <trkpt lat="46.01565" lon="6.47062">
        <ele>1343.1</ele>
        <time>2019-04-08T07:52:26Z</time>
      </trkpt>
      <trkpt lat="46.01564" lon="6.47055">
        <ele>1343.1</ele>
        <time>2019-04-08T07:52:32Z</time>
      </trkpt>
      <trkpt lat="46.01563" lon="6.47054">
        <ele>1343.58</ele>
        <time>2019-04-08T07:52:33Z</time>
      </trkpt>
      <trkpt lat="46.01563" lon="6.47052">
        <ele>1343.1</ele>
        <time>2019-04-08T07:52:34Z</time>
      </trkpt>
      <trkpt lat="46.01563" lon="6.47051">
        <ele>1343.1</ele>
        <time>2019-04-08T07:52:35Z</time>
      </trkpt>
      <trkpt lat="46.0156" lon="6.47047">
        <ele>1343.1</ele>
        <time>2019-04-08T07:52:38Z</time>
      </trkpt>
      <trkpt lat="46.01559" lon="6.47046">
        <ele>1343.1</ele>
        <time>2019-04-08T07:52:39Z</time>
      </trkpt>
      <trkpt lat="46.01559" lon="6.47045">
        <ele>1343.1</ele>
        <time>2019-04-08T07:52:40Z</time>
      </trkpt>
      <trkpt lat="46.01558" lon="6.47043">
        <ele>1343.1</ele>
        <time>2019-04-08T07:52:41Z</time>
      </trkpt>
      <trkpt lat="46.01559" lon="6.47041">
        <ele>1342.62</ele>
        <time>2019-04-08T07:52:42Z</time>
      </trkpt>
      <trkpt lat="46.01558" lon="6.4704">
        <ele>1342.62</ele>
        <time>2019-04-08T07:52:43Z</time>
      </trkpt>
      <trkpt lat="46.01558" lon="6.47039">
        <ele>1342.62</ele>
        <time>2019-04-08T07:52:44Z</time>
      </trkpt>
      <trkpt lat="46.01558" lon="6.47025">
        <ele>1342.62</ele>
        <time>2019-04-08T07:52:54Z</time>
      </trkpt>
      <trkpt lat="46.01562" lon="6.46979">
        <ele>1345.5</ele>
        <time>2019-04-08T07:53:34Z</time>
      </trkpt>
      <trkpt lat="46.01557" lon="6.46948">
        <ele>1348.39</ele>
        <time>2019-04-08T07:53:59Z</time>
      </trkpt>
      <trkpt lat="46.01544" lon="6.46922">
        <ele>1351.75</ele>
        <time>2019-04-08T07:54:20Z</time>
      </trkpt>
      <trkpt lat="46.01537" lon="6.46898">
        <ele>1354.63</ele>
        <time>2019-04-08T07:54:42Z</time>
      </trkpt>
      <trkpt lat="46.01535" lon="6.46897">
        <ele>1354.63</ele>
        <time>2019-04-08T07:54:43Z</time>
      </trkpt>
      <trkpt lat="46.01529" lon="6.4688">
        <ele>1358</ele>
        <time>2019-04-08T07:54:57Z</time>
      </trkpt>
      <trkpt lat="46.01529" lon="6.46879">
        <ele>1358</ele>
        <time>2019-04-08T07:54:58Z</time>
      </trkpt>
      <trkpt lat="46.01528" lon="6.46878">
        <ele>1358</ele>
        <time>2019-04-08T07:54:59Z</time>
      </trkpt>
      <trkpt lat="46.01529" lon="6.46876">
        <ele>1358</ele>
        <time>2019-04-08T07:55:00Z</time>
      </trkpt>
      <trkpt lat="46.01529" lon="6.46875">
        <ele>1358.48</ele>
        <time>2019-04-08T07:55:01Z</time>
      </trkpt>
      <trkpt lat="46.01528" lon="6.46867">
        <ele>1358.96</ele>
        <time>2019-04-08T07:55:09Z</time>
      </trkpt>
      <trkpt lat="46.01528" lon="6.46865">
        <ele>1359.44</ele>
        <time>2019-04-08T07:55:11Z</time>
      </trkpt>
      <trkpt lat="46.01526" lon="6.46863">
        <ele>1359.92</ele>
        <time>2019-04-08T07:55:13Z</time>
      </trkpt>
      <trkpt lat="46.01525" lon="6.46861">
        <ele>1360.4</ele>
        <time>2019-04-08T07:55:15Z</time>
      </trkpt>
      <trkpt lat="46.01525" lon="6.4686">
        <ele>1360.4</ele>
        <time>2019-04-08T07:55:16Z</time>
      </trkpt>
      <trkpt lat="46.0152" lon="6.46855">
        <ele>1361.36</ele>
        <time>2019-04-08T07:55:21Z</time>
      </trkpt>
      <trkpt lat="46.0152" lon="6.46854">
        <ele>1361.36</ele>
        <time>2019-04-08T07:55:22Z</time>
      </trkpt>
      <trkpt lat="46.0152" lon="6.46852">
        <ele>1361.84</ele>
        <time>2019-04-08T07:55:24Z</time>
      </trkpt>
      <trkpt lat="46.01518" lon="6.4685">
        <ele>1362.81</ele>
        <time>2019-04-08T07:55:27Z</time>
      </trkpt>
      <trkpt lat="46.01517" lon="6.46849">
        <ele>1362.81</ele>
        <time>2019-04-08T07:55:28Z</time>
      </trkpt>
      <trkpt lat="46.01517" lon="6.46848">
        <ele>1362.81</ele>
        <time>2019-04-08T07:55:29Z</time>
      </trkpt>
      <trkpt lat="46.01517" lon="6.46847">
        <ele>1362.81</ele>
        <time>2019-04-08T07:55:30Z</time>
      </trkpt>
      <trkpt lat="46.01511" lon="6.46836">
        <ele>1365.69</ele>
        <time>2019-04-08T07:55:46Z</time>
      </trkpt>
      <trkpt lat="46.01511" lon="6.46834">
        <ele>1366.17</ele>
        <time>2019-04-08T07:55:48Z</time>
      </trkpt>
      <trkpt lat="46.0151" lon="6.4683">
        <ele>1367.13</ele>
        <time>2019-04-08T07:55:52Z</time>
      </trkpt>
      <trkpt lat="46.01509" lon="6.4683">
        <ele>1367.61</ele>
        <time>2019-04-08T07:55:53Z</time>
      </trkpt>
      <trkpt lat="46.01508" lon="6.46828">
        <ele>1367.61</ele>
        <time>2019-04-08T07:55:56Z</time>
      </trkpt>
      <trkpt lat="46.01507" lon="6.46827">
        <ele>1367.61</ele>
        <time>2019-04-08T07:55:57Z</time>
      </trkpt>
      <trkpt lat="46.01506" lon="6.46827">
        <ele>1367.61</ele>
        <time>2019-04-08T07:55:58Z</time>
      </trkpt>
      <trkpt lat="46.01506" lon="6.46826">
        <ele>1367.61</ele>
        <time>2019-04-08T07:55:59Z</time>
      </trkpt>
      <trkpt lat="46.01506" lon="6.46825">
        <ele>1367.61</ele>
        <time>2019-04-08T07:56:00Z</time>
      </trkpt>
      <trkpt lat="46.01503" lon="6.46819">
        <ele>1369.05</ele>
        <time>2019-04-08T07:56:06Z</time>
      </trkpt>
      <trkpt lat="46.01503" lon="6.46816">
        <ele>1369.54</ele>
        <time>2019-04-08T07:56:10Z</time>
      </trkpt>
      <trkpt lat="46.01502" lon="6.46811">
        <ele>1370.02</ele>
        <time>2019-04-08T07:56:16Z</time>
      </trkpt>
      <trkpt lat="46.015" lon="6.46807">
        <ele>1370.98</ele>
        <time>2019-04-08T07:56:20Z</time>
      </trkpt>
      <trkpt lat="46.01499" lon="6.46806">
        <ele>1371.46</ele>
        <time>2019-04-08T07:56:21Z</time>
      </trkpt>
      <trkpt lat="46.01498" lon="6.46805">
        <ele>1371.46</ele>
        <time>2019-04-08T07:56:22Z</time>
      </trkpt>
      <trkpt lat="46.01497" lon="6.46804">
        <ele>1371.46</ele>
        <time>2019-04-08T07:56:23Z</time>
      </trkpt>
      <trkpt lat="46.01496" lon="6.46802">
        <ele>1371.94</ele>
        <time>2019-04-08T07:56:24Z</time>
      </trkpt>
      <trkpt lat="46.01495" lon="6.46801">
        <ele>1371.94</ele>
        <time>2019-04-08T07:56:25Z</time>
      </trkpt>
      <trkpt lat="46.01491" lon="6.46795">
        <ele>1372.9</ele>
        <time>2019-04-08T07:56:31Z</time>
      </trkpt>
      <trkpt lat="46.01491" lon="6.46794">
        <ele>1372.9</ele>
        <time>2019-04-08T07:56:32Z</time>
      </trkpt>
      <trkpt lat="46.0149" lon="6.46793">
        <ele>1372.9</ele>
        <time>2019-04-08T07:56:33Z</time>
      </trkpt>
      <trkpt lat="46.01489" lon="6.4679">
        <ele>1373.38</ele>
        <time>2019-04-08T07:56:37Z</time>
      </trkpt>
      <trkpt lat="46.01488" lon="6.46788">
        <ele>1373.86</ele>
        <time>2019-04-08T07:56:39Z</time>
      </trkpt>
      <trkpt lat="46.01488" lon="6.46787">
        <ele>1373.86</ele>
        <time>2019-04-08T07:56:40Z</time>
      </trkpt>
      <trkpt lat="46.01486" lon="6.46782">
        <ele>1374.82</ele>
        <time>2019-04-08T07:56:46Z</time>
      </trkpt>
      <trkpt lat="46.01487" lon="6.4678">
        <ele>1374.82</ele>
        <time>2019-04-08T07:56:48Z</time>
      </trkpt>
      <trkpt lat="46.01487" lon="6.46779">
        <ele>1375.3</ele>
        <time>2019-04-08T07:56:50Z</time>
      </trkpt>
      <trkpt lat="46.01486" lon="6.46778">
        <ele>1375.3</ele>
        <time>2019-04-08T07:56:51Z</time>
      </trkpt>
      <trkpt lat="46.01486" lon="6.46776">
        <ele>1375.78</ele>
        <time>2019-04-08T07:56:52Z</time>
      </trkpt>
      <trkpt lat="46.01486" lon="6.46775">
        <ele>1375.78</ele>
        <time>2019-04-08T07:56:53Z</time>
      </trkpt>
      <trkpt lat="46.01485" lon="6.46774">
        <ele>1375.78</ele>
        <time>2019-04-08T07:56:54Z</time>
      </trkpt>
      <trkpt lat="46.01485" lon="6.46773">
        <ele>1375.78</ele>
        <time>2019-04-08T07:56:55Z</time>
      </trkpt>
      <trkpt lat="46.01485" lon="6.46772">
        <ele>1375.78</ele>
        <time>2019-04-08T07:56:56Z</time>
      </trkpt>
      <trkpt lat="46.01484" lon="6.46771">
        <ele>1375.78</ele>
        <time>2019-04-08T07:56:57Z</time>
      </trkpt>
      <trkpt lat="46.01482" lon="6.46764">
        <ele>1376.26</ele>
        <time>2019-04-08T07:57:04Z</time>
      </trkpt>
      <trkpt lat="46.01482" lon="6.46763">
        <ele>1376.26</ele>
        <time>2019-04-08T07:57:05Z</time>
      </trkpt>
      <trkpt lat="46.0148" lon="6.46761">
        <ele>1376.26</ele>
        <time>2019-04-08T07:57:07Z</time>
      </trkpt>
      <trkpt lat="46.01478" lon="6.46752">
        <ele>1376.75</ele>
        <time>2019-04-08T07:57:15Z</time>
      </trkpt>
      <trkpt lat="46.01478" lon="6.46751">
        <ele>1376.75</ele>
        <time>2019-04-08T07:57:16Z</time>
      </trkpt>
      <trkpt lat="46.01477" lon="6.4675">
        <ele>1376.75</ele>
        <time>2019-04-08T07:57:17Z</time>
      </trkpt>
      <trkpt lat="46.01477" lon="6.46749">
        <ele>1376.75</ele>
        <time>2019-04-08T07:57:18Z</time>
      </trkpt>
      <trkpt lat="46.01476" lon="6.46748">
        <ele>1376.75</ele>
        <time>2019-04-08T07:57:19Z</time>
      </trkpt>
      <trkpt lat="46.01475" lon="6.46739">
        <ele>1377.71</ele>
        <time>2019-04-08T07:57:27Z</time>
      </trkpt>
      <trkpt lat="46.01475" lon="6.46738">
        <ele>1377.71</ele>
        <time>2019-04-08T07:57:28Z</time>
      </trkpt>
      <trkpt lat="46.01475" lon="6.46737">
        <ele>1378.19</ele>
        <time>2019-04-08T07:57:29Z</time>
      </trkpt>
      <trkpt lat="46.01474" lon="6.46736">
        <ele>1378.19</ele>
        <time>2019-04-08T07:57:30Z</time>
      </trkpt>
      <trkpt lat="46.01473" lon="6.46735">
        <ele>1378.19</ele>
        <time>2019-04-08T07:57:31Z</time>
      </trkpt>
      <trkpt lat="46.01473" lon="6.46733">
        <ele>1378.67</ele>
        <time>2019-04-08T07:57:33Z</time>
      </trkpt>
      <trkpt lat="46.01473" lon="6.46732">
        <ele>1379.15</ele>
        <time>2019-04-08T07:57:34Z</time>
      </trkpt>
      <trkpt lat="46.01472" lon="6.46731">
        <ele>1379.15</ele>
        <time>2019-04-08T07:57:35Z</time>
      </trkpt>
      <trkpt lat="46.01466" lon="6.46725">
        <ele>1380.59</ele>
        <time>2019-04-08T07:57:42Z</time>
      </trkpt>
      <trkpt lat="46.01466" lon="6.46724">
        <ele>1381.07</ele>
        <time>2019-04-08T07:57:44Z</time>
      </trkpt>
      <trkpt lat="46.01466" lon="6.46723">
        <ele>1381.07</ele>
        <time>2019-04-08T07:57:45Z</time>
      </trkpt>
      <trkpt lat="46.01464" lon="6.46722">
        <ele>1381.07</ele>
        <time>2019-04-08T07:57:46Z</time>
      </trkpt>
      <trkpt lat="46.01463" lon="6.46722">
        <ele>1381.55</ele>
        <time>2019-04-08T07:57:47Z</time>
      </trkpt>
      <trkpt lat="46.01462" lon="6.46721">
        <ele>1381.55</ele>
        <time>2019-04-08T07:57:48Z</time>
      </trkpt>
      <trkpt lat="46.01461" lon="6.46721">
        <ele>1382.03</ele>
        <time>2019-04-08T07:57:50Z</time>
      </trkpt>
      <trkpt lat="46.0146" lon="6.4672">
        <ele>1382.03</ele>
        <time>2019-04-08T07:57:51Z</time>
      </trkpt>
      <trkpt lat="46.0146" lon="6.4672">
        <ele>1382.03</ele>
        <time>2019-04-08T07:57:52Z</time>
      </trkpt>
      <trkpt lat="46.01454" lon="6.46713">
        <ele>1383.47</ele>
        <time>2019-04-08T07:58:02Z</time>
      </trkpt>
      <trkpt lat="46.01449" lon="6.46707">
        <ele>1384.44</ele>
        <time>2019-04-08T07:58:09Z</time>
      </trkpt>
      <trkpt lat="46.01447" lon="6.46706">
        <ele>1384.44</ele>
        <time>2019-04-08T07:58:10Z</time>
      </trkpt>
      <trkpt lat="46.01447" lon="6.46705">
        <ele>1384.92</ele>
        <time>2019-04-08T07:58:11Z</time>
      </trkpt>
      <trkpt lat="46.01446" lon="6.46705">
        <ele>1384.92</ele>
        <time>2019-04-08T07:58:12Z</time>
      </trkpt>
      <trkpt lat="46.01445" lon="6.46704">
        <ele>1385.4</ele>
        <time>2019-04-08T07:58:13Z</time>
      </trkpt>
      <trkpt lat="46.01445" lon="6.46703">
        <ele>1385.4</ele>
        <time>2019-04-08T07:58:14Z</time>
      </trkpt>
      <trkpt lat="46.01443" lon="6.46702">
        <ele>1385.88</ele>
        <time>2019-04-08T07:58:16Z</time>
      </trkpt>
      <trkpt lat="46.01443" lon="6.46701">
        <ele>1385.88</ele>
        <time>2019-04-08T07:58:17Z</time>
      </trkpt>
      <trkpt lat="46.01443" lon="6.467">
        <ele>1386.36</ele>
        <time>2019-04-08T07:58:18Z</time>
      </trkpt>
      <trkpt lat="46.01443" lon="6.46699">
        <ele>1386.36</ele>
        <time>2019-04-08T07:58:19Z</time>
      </trkpt>
      <trkpt lat="46.01443" lon="6.46698">
        <ele>1386.36</ele>
        <time>2019-04-08T07:58:20Z</time>
      </trkpt>
      <trkpt lat="46.01439" lon="6.46695">
        <ele>1386.84</ele>
        <time>2019-04-08T07:58:24Z</time>
      </trkpt>
      <trkpt lat="46.01438" lon="6.46695">
        <ele>1387.32</ele>
        <time>2019-04-08T07:58:25Z</time>
      </trkpt>
      <trkpt lat="46.01437" lon="6.46687">
        <ele>1388.76</ele>
        <time>2019-04-08T07:58:33Z</time>
      </trkpt>
      <trkpt lat="46.01435" lon="6.46686">
        <ele>1389.24</ele>
        <time>2019-04-08T07:58:35Z</time>
      </trkpt>
      <trkpt lat="46.01433" lon="6.46683">
        <ele>1390.2</ele>
        <time>2019-04-08T07:58:38Z</time>
      </trkpt>
      <trkpt lat="46.01432" lon="6.46682">
        <ele>1390.2</ele>
        <time>2019-04-08T07:58:39Z</time>
      </trkpt>
      <trkpt lat="46.01432" lon="6.4668">
        <ele>1390.2</ele>
        <time>2019-04-08T07:58:41Z</time>
      </trkpt>
      <trkpt lat="46.0143" lon="6.46678">
        <ele>1391.17</ele>
        <time>2019-04-08T07:58:44Z</time>
      </trkpt>
      <trkpt lat="46.01426" lon="6.46676">
        <ele>1392.61</ele>
        <time>2019-04-08T07:58:51Z</time>
      </trkpt>
      <trkpt lat="46.01425" lon="6.46676">
        <ele>1392.61</ele>
        <time>2019-04-08T07:58:52Z</time>
      </trkpt>
      <trkpt lat="46.01423" lon="6.46675">
        <ele>1392.61</ele>
        <time>2019-04-08T07:58:53Z</time>
      </trkpt>
      <trkpt lat="46.01418" lon="6.46668">
        <ele>1394.53</ele>
        <time>2019-04-08T07:59:04Z</time>
      </trkpt>
      <trkpt lat="46.01419" lon="6.46662">
        <ele>1395.49</ele>
        <time>2019-04-08T07:59:11Z</time>
      </trkpt>
      <trkpt lat="46.01418" lon="6.4666">
        <ele>1395.97</ele>
        <time>2019-04-08T07:59:13Z</time>
      </trkpt>
      <trkpt lat="46.01416" lon="6.46655">
        <ele>1396.45</ele>
        <time>2019-04-08T07:59:18Z</time>
      </trkpt>
      <trkpt lat="46.01414" lon="6.46655">
        <ele>1396.93</ele>
        <time>2019-04-08T07:59:20Z</time>
      </trkpt>
      <trkpt lat="46.01415" lon="6.46652">
        <ele>1396.93</ele>
        <time>2019-04-08T07:59:22Z</time>
      </trkpt>
      <trkpt lat="46.01414" lon="6.46649">
        <ele>1397.41</ele>
        <time>2019-04-08T07:59:25Z</time>
      </trkpt>
      <trkpt lat="46.01413" lon="6.46648">
        <ele>1397.41</ele>
        <time>2019-04-08T07:59:26Z</time>
      </trkpt>
      <trkpt lat="46.01411" lon="6.46647">
        <ele>1397.41</ele>
        <time>2019-04-08T07:59:27Z</time>
      </trkpt>
      <trkpt lat="46.01409" lon="6.46644">
        <ele>1398.37</ele>
        <time>2019-04-08T07:59:31Z</time>
      </trkpt>
      <trkpt lat="46.01405" lon="6.4664">
        <ele>1399.34</ele>
        <time>2019-04-08T07:59:36Z</time>
      </trkpt>
      <trkpt lat="46.01402" lon="6.46637">
        <ele>1399.82</ele>
        <time>2019-04-08T07:59:40Z</time>
      </trkpt>
      <trkpt lat="46.01402" lon="6.46636">
        <ele>1400.3</ele>
        <time>2019-04-08T07:59:42Z</time>
      </trkpt>
      <trkpt lat="46.01399" lon="6.46632">
        <ele>1401.26</ele>
        <time>2019-04-08T07:59:48Z</time>
      </trkpt>
      <trkpt lat="46.01397" lon="6.4663">
        <ele>1401.74</ele>
        <time>2019-04-08T07:59:49Z</time>
      </trkpt>
      <trkpt lat="46.01396" lon="6.46629">
        <ele>1401.74</ele>
        <time>2019-04-08T07:59:50Z</time>
      </trkpt>
      <trkpt lat="46.01394" lon="6.46628">
        <ele>1401.74</ele>
        <time>2019-04-08T07:59:51Z</time>
      </trkpt>
      <trkpt lat="46.01394" lon="6.46627">
        <ele>1401.74</ele>
        <time>2019-04-08T07:59:52Z</time>
      </trkpt>
      <trkpt lat="46.01392" lon="6.46627">
        <ele>1402.22</ele>
        <time>2019-04-08T07:59:53Z</time>
      </trkpt>
      <trkpt lat="46.01393" lon="6.46627">
        <ele>1402.22</ele>
        <time>2019-04-08T07:59:54Z</time>
      </trkpt>
      <trkpt lat="46.01393" lon="6.46626">
        <ele>1402.7</ele>
        <time>2019-04-08T07:59:56Z</time>
      </trkpt>
      <trkpt lat="46.01391" lon="6.46624">
        <ele>1403.18</ele>
        <time>2019-04-08T07:59:59Z</time>
      </trkpt>
      <trkpt lat="46.01389" lon="6.46617">
        <ele>1404.62</ele>
        <time>2019-04-08T08:00:08Z</time>
      </trkpt>
      <trkpt lat="46.01386" lon="6.46615">
        <ele>1405.1</ele>
        <time>2019-04-08T08:00:11Z</time>
      </trkpt>
      <trkpt lat="46.01385" lon="6.46614">
        <ele>1405.58</ele>
        <time>2019-04-08T08:00:12Z</time>
      </trkpt>
      <trkpt lat="46.01383" lon="6.4661">
        <ele>1405.58</ele>
        <time>2019-04-08T08:00:16Z</time>
      </trkpt>
      <trkpt lat="46.0138" lon="6.46608">
        <ele>1406.07</ele>
        <time>2019-04-08T08:00:19Z</time>
      </trkpt>
      <trkpt lat="46.01379" lon="6.46607">
        <ele>1406.07</ele>
        <time>2019-04-08T08:00:20Z</time>
      </trkpt>
      <trkpt lat="46.01379" lon="6.46606">
        <ele>1406.55</ele>
        <time>2019-04-08T08:00:21Z</time>
      </trkpt>
      <trkpt lat="46.01378" lon="6.46606">
        <ele>1406.55</ele>
        <time>2019-04-08T08:00:22Z</time>
      </trkpt>
      <trkpt lat="46.01377" lon="6.46605">
        <ele>1407.03</ele>
        <time>2019-04-08T08:00:23Z</time>
      </trkpt>
      <trkpt lat="46.01377" lon="6.46604">
        <ele>1407.03</ele>
        <time>2019-04-08T08:00:24Z</time>
      </trkpt>
      <trkpt lat="46.01376" lon="6.46601">
        <ele>1407.99</ele>
        <time>2019-04-08T08:00:28Z</time>
      </trkpt>
      <trkpt lat="46.01373" lon="6.46598">
        <ele>1408.47</ele>
        <time>2019-04-08T08:00:32Z</time>
      </trkpt>
      <trkpt lat="46.01373" lon="6.46596">
        <ele>1408.95</ele>
        <time>2019-04-08T08:00:34Z</time>
      </trkpt>
      <trkpt lat="46.01371" lon="6.46593">
        <ele>1409.43</ele>
        <time>2019-04-08T08:00:37Z</time>
      </trkpt>
      <trkpt lat="46.01371" lon="6.46592">
        <ele>1409.43</ele>
        <time>2019-04-08T08:00:38Z</time>
      </trkpt>
      <trkpt lat="46.01371" lon="6.46591">
        <ele>1409.91</ele>
        <time>2019-04-08T08:00:40Z</time>
      </trkpt>
      <trkpt lat="46.0137" lon="6.46591">
        <ele>1409.91</ele>
        <time>2019-04-08T08:00:41Z</time>
      </trkpt>
      <trkpt lat="46.01369" lon="6.46589">
        <ele>1409.91</ele>
        <time>2019-04-08T08:00:42Z</time>
      </trkpt>
      <trkpt lat="46.01369" lon="6.46588">
        <ele>1410.39</ele>
        <time>2019-04-08T08:00:44Z</time>
      </trkpt>
      <trkpt lat="46.01371" lon="6.46584">
        <ele>1411.35</ele>
        <time>2019-04-08T08:00:50Z</time>
      </trkpt>
      <trkpt lat="46.0137" lon="6.46583">
        <ele>1411.35</ele>
        <time>2019-04-08T08:00:51Z</time>
      </trkpt>
      <trkpt lat="46.0137" lon="6.46583">
        <ele>1411.83</ele>
        <time>2019-04-08T08:00:52Z</time>
      </trkpt>
      <trkpt lat="46.01369" lon="6.46581">
        <ele>1411.83</ele>
        <time>2019-04-08T08:00:53Z</time>
      </trkpt>
      <trkpt lat="46.01369" lon="6.4658">
        <ele>1411.83</ele>
        <time>2019-04-08T08:00:54Z</time>
      </trkpt>
      <trkpt lat="46.01369" lon="6.46579">
        <ele>1411.83</ele>
        <time>2019-04-08T08:00:55Z</time>
      </trkpt>
      <trkpt lat="46.01367" lon="6.46578">
        <ele>1412.31</ele>
        <time>2019-04-08T08:00:57Z</time>
      </trkpt>
      <trkpt lat="46.01367" lon="6.46577">
        <ele>1412.31</ele>
        <time>2019-04-08T08:00:58Z</time>
      </trkpt>
      <trkpt lat="46.01367" lon="6.46576">
        <ele>1412.79</ele>
        <time>2019-04-08T08:00:59Z</time>
      </trkpt>
      <trkpt lat="46.01363" lon="6.46572">
        <ele>1413.76</ele>
        <time>2019-04-08T08:01:05Z</time>
      </trkpt>
      <trkpt lat="46.01362" lon="6.4657">
        <ele>1414.24</ele>
        <time>2019-04-08T08:01:07Z</time>
      </trkpt>
      <trkpt lat="46.01361" lon="6.46568">
        <ele>1414.24</ele>
        <time>2019-04-08T08:01:09Z</time>
      </trkpt>
      <trkpt lat="46.01359" lon="6.46566">
        <ele>1414.72</ele>
        <time>2019-04-08T08:01:11Z</time>
      </trkpt>
      <trkpt lat="46.01356" lon="6.46564">
        <ele>1415.68</ele>
        <time>2019-04-08T08:01:18Z</time>
      </trkpt>
      <trkpt lat="46.01352" lon="6.46564">
        <ele>1415.2</ele>
        <time>2019-04-08T08:01:26Z</time>
      </trkpt>
      <trkpt lat="46.01349" lon="6.46562">
        <ele>1415.68</ele>
        <time>2019-04-08T08:01:27Z</time>
      </trkpt>
      <trkpt lat="46.01349" lon="6.46562">
        <ele>1415.68</ele>
        <time>2019-04-08T08:01:28Z</time>
      </trkpt>
      <trkpt lat="46.01347" lon="6.46561">
        <ele>1415.68</ele>
        <time>2019-04-08T08:01:30Z</time>
      </trkpt>
      <trkpt lat="46.01347" lon="6.46558">
        <ele>1416.64</ele>
        <time>2019-04-08T08:01:34Z</time>
      </trkpt>
      <trkpt lat="46.01347" lon="6.46556">
        <ele>1417.12</ele>
        <time>2019-04-08T08:01:36Z</time>
      </trkpt>
      <trkpt lat="46.01341" lon="6.46547">
        <ele>1419.52</ele>
        <time>2019-04-08T08:01:47Z</time>
      </trkpt>
      <trkpt lat="46.0134" lon="6.46543">
        <ele>1420</ele>
        <time>2019-04-08T08:01:51Z</time>
      </trkpt>
      <trkpt lat="46.01339" lon="6.4654">
        <ele>1420.49</ele>
        <time>2019-04-08T08:01:54Z</time>
      </trkpt>
      <trkpt lat="46.01341" lon="6.46532">
        <ele>1421.93</ele>
        <time>2019-04-08T08:02:02Z</time>
      </trkpt>
      <trkpt lat="46.01336" lon="6.46521">
        <ele>1422.41</ele>
        <time>2019-04-08T08:02:10Z</time>
      </trkpt>
      <trkpt lat="46.01334" lon="6.46517">
        <ele>1422.41</ele>
        <time>2019-04-08T08:02:13Z</time>
      </trkpt>
      <trkpt lat="46.01332" lon="6.46512">
        <ele>1423.85</ele>
        <time>2019-04-08T08:02:19Z</time>
      </trkpt>
      <trkpt lat="46.01332" lon="6.46509">
        <ele>1424.81</ele>
        <time>2019-04-08T08:02:23Z</time>
      </trkpt>
      <trkpt lat="46.01332" lon="6.46507">
        <ele>1425.29</ele>
        <time>2019-04-08T08:02:25Z</time>
      </trkpt>
      <trkpt lat="46.01331" lon="6.46505">
        <ele>1425.29</ele>
        <time>2019-04-08T08:02:27Z</time>
      </trkpt>
      <trkpt lat="46.01328" lon="6.46503">
        <ele>1425.77</ele>
        <time>2019-04-08T08:02:29Z</time>
      </trkpt>
      <trkpt lat="46.01334" lon="6.46502">
        <ele>1426.25</ele>
        <time>2019-04-08T08:02:31Z</time>
      </trkpt>
      <trkpt lat="46.01335" lon="6.46501">
        <ele>1426.73</ele>
        <time>2019-04-08T08:02:33Z</time>
      </trkpt>
      <trkpt lat="46.01337" lon="6.46499">
        <ele>1426.73</ele>
        <time>2019-04-08T08:02:34Z</time>
      </trkpt>
      <trkpt lat="46.01338" lon="6.46498">
        <ele>1426.73</ele>
        <time>2019-04-08T08:02:35Z</time>
      </trkpt>
      <trkpt lat="46.01339" lon="6.46497">
        <ele>1427.21</ele>
        <time>2019-04-08T08:02:36Z</time>
      </trkpt>
      <trkpt lat="46.01341" lon="6.46495">
        <ele>1427.21</ele>
        <time>2019-04-08T08:02:38Z</time>
      </trkpt>
      <trkpt lat="46.01341" lon="6.4649">
        <ele>1428.18</ele>
        <time>2019-04-08T08:02:44Z</time>
      </trkpt>
      <trkpt lat="46.0134" lon="6.46485">
        <ele>1430.1</ele>
        <time>2019-04-08T08:02:52Z</time>
      </trkpt>
      <trkpt lat="46.01341" lon="6.4648">
        <ele>1432.02</ele>
        <time>2019-04-08T08:03:02Z</time>
      </trkpt>
      <trkpt lat="46.01341" lon="6.46477">
        <ele>1432.98</ele>
        <time>2019-04-08T08:03:08Z</time>
      </trkpt>
      <trkpt lat="46.01341" lon="6.46476">
        <ele>1433.94</ele>
        <time>2019-04-08T08:03:10Z</time>
      </trkpt>
      <trkpt lat="46.0134" lon="6.46476">
        <ele>1433.94</ele>
        <time>2019-04-08T08:03:11Z</time>
      </trkpt>
      <trkpt lat="46.01345" lon="6.46476">
        <ele>1434.42</ele>
        <time>2019-04-08T08:03:12Z</time>
      </trkpt>
      <trkpt lat="46.01347" lon="6.46476">
        <ele>1434.42</ele>
        <time>2019-04-08T08:03:13Z</time>
      </trkpt>
      <trkpt lat="46.01348" lon="6.46475">
        <ele>1434.91</ele>
        <time>2019-04-08T08:03:14Z</time>
      </trkpt>
      <trkpt lat="46.01346" lon="6.46475">
        <ele>1434.91</ele>
        <time>2019-04-08T08:03:15Z</time>
      </trkpt>
      <trkpt lat="46.01347" lon="6.46474">
        <ele>1435.39</ele>
        <time>2019-04-08T08:03:16Z</time>
      </trkpt>
      <trkpt lat="46.01346" lon="6.46473">
        <ele>1435.39</ele>
        <time>2019-04-08T08:03:17Z</time>
      </trkpt>
      <trkpt lat="46.01344" lon="6.46473">
        <ele>1435.39</ele>
        <time>2019-04-08T08:03:18Z</time>
      </trkpt>
      <trkpt lat="46.01355" lon="6.46469">
        <ele>1436.83</ele>
        <time>2019-04-08T08:03:28Z</time>
      </trkpt>
      <trkpt lat="46.01355" lon="6.46467">
        <ele>1437.31</ele>
        <time>2019-04-08T08:03:30Z</time>
      </trkpt>
      <trkpt lat="46.01355" lon="6.46466">
        <ele>1437.31</ele>
        <time>2019-04-08T08:03:31Z</time>
      </trkpt>
      <trkpt lat="46.01355" lon="6.46465">
        <ele>1437.31</ele>
        <time>2019-04-08T08:03:32Z</time>
      </trkpt>
      <trkpt lat="46.01349" lon="6.46456">
        <ele>1440.19</ele>
        <time>2019-04-08T08:03:47Z</time>
      </trkpt>
      <trkpt lat="46.01348" lon="6.46445">
        <ele>1442.6</ele>
        <time>2019-04-08T08:03:59Z</time>
      </trkpt>
      <trkpt lat="46.01349" lon="6.46442">
        <ele>1442.6</ele>
        <time>2019-04-08T08:04:01Z</time>
      </trkpt>
      <trkpt lat="46.01344" lon="6.46438">
        <ele>1443.56</ele>
        <time>2019-04-08T08:04:06Z</time>
      </trkpt>
      <trkpt lat="46.01336" lon="6.46419">
        <ele>1446.92</ele>
        <time>2019-04-08T08:04:26Z</time>
      </trkpt>
      <trkpt lat="46.01334" lon="6.46413">
        <ele>1448.36</ele>
        <time>2019-04-08T08:04:33Z</time>
      </trkpt>
      <trkpt lat="46.01333" lon="6.46408">
        <ele>1449.81</ele>
        <time>2019-04-08T08:04:40Z</time>
      </trkpt>
      <trkpt lat="46.01324" lon="6.46391">
        <ele>1452.69</ele>
        <time>2019-04-08T08:04:58Z</time>
      </trkpt>
      <trkpt lat="46.01323" lon="6.46382">
        <ele>1454.13</ele>
        <time>2019-04-08T08:05:06Z</time>
      </trkpt>
      <trkpt lat="46.01323" lon="6.4638">
        <ele>1454.61</ele>
        <time>2019-04-08T08:05:08Z</time>
      </trkpt>
      <trkpt lat="46.01323" lon="6.46378">
        <ele>1455.09</ele>
        <time>2019-04-08T08:05:10Z</time>
      </trkpt>
      <trkpt lat="46.01322" lon="6.46377">
        <ele>1455.57</ele>
        <time>2019-04-08T08:05:12Z</time>
      </trkpt>
      <trkpt lat="46.01322" lon="6.46376">
        <ele>1455.57</ele>
        <time>2019-04-08T08:05:13Z</time>
      </trkpt>
      <trkpt lat="46.01323" lon="6.46363">
        <ele>1458.46</ele>
        <time>2019-04-08T08:05:27Z</time>
      </trkpt>
      <trkpt lat="46.01324" lon="6.46343">
        <ele>1461.34</ele>
        <time>2019-04-08T08:05:45Z</time>
      </trkpt>
      <trkpt lat="46.01324" lon="6.46341">
        <ele>1461.34</ele>
        <time>2019-04-08T08:05:46Z</time>
      </trkpt>
      <trkpt lat="46.01324" lon="6.4634">
        <ele>1461.34</ele>
        <time>2019-04-08T08:05:47Z</time>
      </trkpt>
      <trkpt lat="46.01325" lon="6.46337">
        <ele>1461.82</ele>
        <time>2019-04-08T08:05:49Z</time>
      </trkpt>
      <trkpt lat="46.01325" lon="6.46333">
        <ele>1462.3</ele>
        <time>2019-04-08T08:05:53Z</time>
      </trkpt>
      <trkpt lat="46.01325" lon="6.46332">
        <ele>1462.78</ele>
        <time>2019-04-08T08:05:54Z</time>
      </trkpt>
      <trkpt lat="46.01326" lon="6.46328">
        <ele>1463.26</ele>
        <time>2019-04-08T08:05:57Z</time>
      </trkpt>
      <trkpt lat="46.01325" lon="6.46327">
        <ele>1463.26</ele>
        <time>2019-04-08T08:05:59Z</time>
      </trkpt>
      <trkpt lat="46.01326" lon="6.46322">
        <ele>1464.23</ele>
        <time>2019-04-08T08:06:03Z</time>
      </trkpt>
      <trkpt lat="46.01325" lon="6.4632">
        <ele>1464.71</ele>
        <time>2019-04-08T08:06:05Z</time>
      </trkpt>
      <trkpt lat="46.01326" lon="6.46319">
        <ele>1464.71</ele>
        <time>2019-04-08T08:06:06Z</time>
      </trkpt>
      <trkpt lat="46.01327" lon="6.46318">
        <ele>1464.71</ele>
        <time>2019-04-08T08:06:07Z</time>
      </trkpt>
      <trkpt lat="46.01327" lon="6.46317">
        <ele>1465.19</ele>
        <time>2019-04-08T08:06:08Z</time>
      </trkpt>
      <trkpt lat="46.01325" lon="6.46289">
        <ele>1468.07</ele>
        <time>2019-04-08T08:06:32Z</time>
      </trkpt>
      <trkpt lat="46.0132" lon="6.46271">
        <ele>1471.44</ele>
        <time>2019-04-08T08:06:50Z</time>
      </trkpt>
      <trkpt lat="46.01315" lon="6.46257">
        <ele>1474.32</ele>
        <time>2019-04-08T08:07:07Z</time>
      </trkpt>
      <trkpt lat="46.01315" lon="6.46255">
        <ele>1474.8</ele>
        <time>2019-04-08T08:07:08Z</time>
      </trkpt>
      <trkpt lat="46.01314" lon="6.46243">
        <ele>1477.68</ele>
        <time>2019-04-08T08:07:24Z</time>
      </trkpt>
      <trkpt lat="46.01313" lon="6.46243">
        <ele>1477.68</ele>
        <time>2019-04-08T08:07:25Z</time>
      </trkpt>
      <trkpt lat="46.01305" lon="6.4623">
        <ele>1480.57</ele>
        <time>2019-04-08T08:07:42Z</time>
      </trkpt>
      <trkpt lat="46.01303" lon="6.46229">
        <ele>1481.53</ele>
        <time>2019-04-08T08:07:45Z</time>
      </trkpt>
      <trkpt lat="46.01304" lon="6.46227">
        <ele>1482.01</ele>
        <time>2019-04-08T08:07:47Z</time>
      </trkpt>
      <trkpt lat="46.01304" lon="6.46221">
        <ele>1483.45</ele>
        <time>2019-04-08T08:07:55Z</time>
      </trkpt>
      <trkpt lat="46.01303" lon="6.46217">
        <ele>1484.41</ele>
        <time>2019-04-08T08:08:00Z</time>
      </trkpt>
      <trkpt lat="46.013" lon="6.46214">
        <ele>1484.89</ele>
        <time>2019-04-08T08:08:04Z</time>
      </trkpt>
      <trkpt lat="46.01298" lon="6.46212">
        <ele>1485.37</ele>
        <time>2019-04-08T08:08:06Z</time>
      </trkpt>
      <trkpt lat="46.01296" lon="6.4621">
        <ele>1485.37</ele>
        <time>2019-04-08T08:08:08Z</time>
      </trkpt>
      <trkpt lat="46.01294" lon="6.46209">
        <ele>1485.85</ele>
        <time>2019-04-08T08:08:10Z</time>
      </trkpt>
      <trkpt lat="46.01293" lon="6.46207">
        <ele>1486.34</ele>
        <time>2019-04-08T08:08:12Z</time>
      </trkpt>
      <trkpt lat="46.01292" lon="6.46204">
        <ele>1486.82</ele>
        <time>2019-04-08T08:08:16Z</time>
      </trkpt>
      <trkpt lat="46.01292" lon="6.46202">
        <ele>1487.78</ele>
        <time>2019-04-08T08:08:18Z</time>
      </trkpt>
      <trkpt lat="46.0129" lon="6.46191">
        <ele>1490.66</ele>
        <time>2019-04-08T08:08:34Z</time>
      </trkpt>
      <trkpt lat="46.0129" lon="6.4619">
        <ele>1491.14</ele>
        <time>2019-04-08T08:08:35Z</time>
      </trkpt>
      <trkpt lat="46.0129" lon="6.46188">
        <ele>1491.62</ele>
        <time>2019-04-08T08:08:37Z</time>
      </trkpt>
      <trkpt lat="46.01289" lon="6.46185">
        <ele>1492.1</ele>
        <time>2019-04-08T08:08:41Z</time>
      </trkpt>
      <trkpt lat="46.01287" lon="6.46182">
        <ele>1493.06</ele>
        <time>2019-04-08T08:08:45Z</time>
      </trkpt>
      <trkpt lat="46.01286" lon="6.4618">
        <ele>1493.55</ele>
        <time>2019-04-08T08:08:47Z</time>
      </trkpt>
      <trkpt lat="46.01285" lon="6.46178">
        <ele>1493.55</ele>
        <time>2019-04-08T08:08:49Z</time>
      </trkpt>
      <trkpt lat="46.01285" lon="6.46172">
        <ele>1494.03</ele>
        <time>2019-04-08T08:08:54Z</time>
      </trkpt>
      <trkpt lat="46.01285" lon="6.4617">
        <ele>1494.51</ele>
        <time>2019-04-08T08:08:57Z</time>
      </trkpt>
      <trkpt lat="46.01282" lon="6.46168">
        <ele>1494.99</ele>
        <time>2019-04-08T08:09:00Z</time>
      </trkpt>
      <trkpt lat="46.01282" lon="6.46167">
        <ele>1494.99</ele>
        <time>2019-04-08T08:09:01Z</time>
      </trkpt>
      <trkpt lat="46.01281" lon="6.46162">
        <ele>1496.91</ele>
        <time>2019-04-08T08:09:08Z</time>
      </trkpt>
      <trkpt lat="46.01281" lon="6.46161">
        <ele>1497.39</ele>
        <time>2019-04-08T08:09:09Z</time>
      </trkpt>
      <trkpt lat="46.01282" lon="6.46159">
        <ele>1497.39</ele>
        <time>2019-04-08T08:09:11Z</time>
      </trkpt>
      <trkpt lat="46.0128" lon="6.46156">
        <ele>1497.87</ele>
        <time>2019-04-08T08:09:15Z</time>
      </trkpt>
      <trkpt lat="46.01279" lon="6.46154">
        <ele>1497.87</ele>
        <time>2019-04-08T08:09:16Z</time>
      </trkpt>
      <trkpt lat="46.01279" lon="6.46152">
        <ele>1497.87</ele>
        <time>2019-04-08T08:09:17Z</time>
      </trkpt>
      <trkpt lat="46.01278" lon="6.46149">
        <ele>1498.35</ele>
        <time>2019-04-08T08:09:20Z</time>
      </trkpt>
      <trkpt lat="46.01274" lon="6.46149">
        <ele>1498.83</ele>
        <time>2019-04-08T08:09:49Z</time>
      </trkpt>
      <trkpt lat="46.01271" lon="6.46148">
        <ele>1498.83</ele>
        <time>2019-04-08T08:10:04Z</time>
      </trkpt>
      <trkpt lat="46.01268" lon="6.46149">
        <ele>1498.83</ele>
        <time>2019-04-08T08:10:07Z</time>
      </trkpt>
      <trkpt lat="46.01269" lon="6.46149">
        <ele>1498.83</ele>
        <time>2019-04-08T08:10:24Z</time>
      </trkpt>
      <trkpt lat="46.01271" lon="6.46149">
        <ele>1498.83</ele>
        <time>2019-04-08T08:10:27Z</time>
      </trkpt>
      <trkpt lat="46.01274" lon="6.46149">
        <ele>1498.83</ele>
        <time>2019-04-08T08:10:29Z</time>
      </trkpt>
      <trkpt lat="46.01275" lon="6.46148">
        <ele>1498.83</ele>
        <time>2019-04-08T08:10:30Z</time>
      </trkpt>
      <trkpt lat="46.01276" lon="6.46141">
        <ele>1499.79</ele>
        <time>2019-04-08T08:10:48Z</time>
      </trkpt>
      <trkpt lat="46.01277" lon="6.46136">
        <ele>1500.76</ele>
        <time>2019-04-08T08:10:53Z</time>
      </trkpt>
      <trkpt lat="46.01277" lon="6.46135">
        <ele>1500.76</ele>
        <time>2019-04-08T08:10:54Z</time>
      </trkpt>
      <trkpt lat="46.01278" lon="6.46133">
        <ele>1501.24</ele>
        <time>2019-04-08T08:10:55Z</time>
      </trkpt>
      <trkpt lat="46.01275" lon="6.46098">
        <ele>1504.12</ele>
        <time>2019-04-08T08:11:23Z</time>
      </trkpt>
      <trkpt lat="46.01271" lon="6.46072">
        <ele>1507</ele>
        <time>2019-04-08T08:11:46Z</time>
      </trkpt>
      <trkpt lat="46.01273" lon="6.46061">
        <ele>1509.89</ele>
        <time>2019-04-08T08:11:57Z</time>
      </trkpt>
      <trkpt lat="46.01273" lon="6.4606">
        <ele>1510.37</ele>
        <time>2019-04-08T08:11:58Z</time>
      </trkpt>
      <trkpt lat="46.01273" lon="6.46059">
        <ele>1510.37</ele>
        <time>2019-04-08T08:11:59Z</time>
      </trkpt>
      <trkpt lat="46.01266" lon="6.46016">
        <ele>1513.25</ele>
        <time>2019-04-08T08:12:35Z</time>
      </trkpt>
      <trkpt lat="46.01262" lon="6.45988">
        <ele>1516.62</ele>
        <time>2019-04-08T08:12:58Z</time>
      </trkpt>
      <trkpt lat="46.01262" lon="6.45986">
        <ele>1516.62</ele>
        <time>2019-04-08T08:13:00Z</time>
      </trkpt>
      <trkpt lat="46.01263" lon="6.45984">
        <ele>1517.58</ele>
        <time>2019-04-08T08:13:03Z</time>
      </trkpt>
      <trkpt lat="46.01263" lon="6.45982">
        <ele>1517.58</ele>
        <time>2019-04-08T08:13:04Z</time>
      </trkpt>
      <trkpt lat="46.01263" lon="6.45978">
        <ele>1518.54</ele>
        <time>2019-04-08T08:13:08Z</time>
      </trkpt>
      <trkpt lat="46.01263" lon="6.45977">
        <ele>1518.54</ele>
        <time>2019-04-08T08:13:09Z</time>
      </trkpt>
      <trkpt lat="46.01262" lon="6.45976">
        <ele>1518.54</ele>
        <time>2019-04-08T08:13:10Z</time>
      </trkpt>
      <trkpt lat="46.0126" lon="6.45968">
        <ele>1519.02</ele>
        <time>2019-04-08T08:13:16Z</time>
      </trkpt>
      <trkpt lat="46.01259" lon="6.45967">
        <ele>1519.02</ele>
        <time>2019-04-08T08:13:17Z</time>
      </trkpt>
      <trkpt lat="46.01257" lon="6.4596">
        <ele>1519.02</ele>
        <time>2019-04-08T08:13:22Z</time>
      </trkpt>
      <trkpt lat="46.01257" lon="6.45959">
        <ele>1519.02</ele>
        <time>2019-04-08T08:13:23Z</time>
      </trkpt>
      <trkpt lat="46.01255" lon="6.45958">
        <ele>1519.02</ele>
        <time>2019-04-08T08:13:24Z</time>
      </trkpt>
      <trkpt lat="46.01253" lon="6.45954">
        <ele>1519.02</ele>
        <time>2019-04-08T08:13:28Z</time>
      </trkpt>
      <trkpt lat="46.01253" lon="6.45951">
        <ele>1519.5</ele>
        <time>2019-04-08T08:13:30Z</time>
      </trkpt>
      <trkpt lat="46.01253" lon="6.45949">
        <ele>1519.5</ele>
        <time>2019-04-08T08:13:32Z</time>
      </trkpt>
      <trkpt lat="46.01251" lon="6.45943">
        <ele>1519.98</ele>
        <time>2019-04-08T08:13:37Z</time>
      </trkpt>
      <trkpt lat="46.0125" lon="6.45941">
        <ele>1520.46</ele>
        <time>2019-04-08T08:13:39Z</time>
      </trkpt>
      <trkpt lat="46.01247" lon="6.45933">
        <ele>1521.42</ele>
        <time>2019-04-08T08:13:47Z</time>
      </trkpt>
      <trkpt lat="46.01246" lon="6.45931">
        <ele>1521.9</ele>
        <time>2019-04-08T08:13:49Z</time>
      </trkpt>
      <trkpt lat="46.01243" lon="6.45924">
        <ele>1523.35</ele>
        <time>2019-04-08T08:13:56Z</time>
      </trkpt>
      <trkpt lat="46.01242" lon="6.4592">
        <ele>1524.31</ele>
        <time>2019-04-08T08:14:00Z</time>
      </trkpt>
      <trkpt lat="46.01241" lon="6.45917">
        <ele>1524.79</ele>
        <time>2019-04-08T08:14:04Z</time>
      </trkpt>
      <trkpt lat="46.01241" lon="6.45915">
        <ele>1525.27</ele>
        <time>2019-04-08T08:14:06Z</time>
      </trkpt>
      <trkpt lat="46.0124" lon="6.45913">
        <ele>1525.75</ele>
        <time>2019-04-08T08:14:08Z</time>
      </trkpt>
      <trkpt lat="46.01239" lon="6.45912">
        <ele>1525.75</ele>
        <time>2019-04-08T08:14:09Z</time>
      </trkpt>
      <trkpt lat="46.01239" lon="6.45911">
        <ele>1526.23</ele>
        <time>2019-04-08T08:14:10Z</time>
      </trkpt>
      <trkpt lat="46.01238" lon="6.45904">
        <ele>1526.71</ele>
        <time>2019-04-08T08:14:17Z</time>
      </trkpt>
      <trkpt lat="46.01238" lon="6.45901">
        <ele>1527.19</ele>
        <time>2019-04-08T08:14:19Z</time>
      </trkpt>
      <trkpt lat="46.01237" lon="6.459">
        <ele>1527.67</ele>
        <time>2019-04-08T08:14:21Z</time>
      </trkpt>
      <trkpt lat="46.01235" lon="6.45892">
        <ele>1529.11</ele>
        <time>2019-04-08T08:14:29Z</time>
      </trkpt>
      <trkpt lat="46.01235" lon="6.45891">
        <ele>1529.59</ele>
        <time>2019-04-08T08:14:30Z</time>
      </trkpt>
      <trkpt lat="46.01231" lon="6.45874">
        <ele>1531.04</ele>
        <time>2019-04-08T08:14:44Z</time>
      </trkpt>
      <trkpt lat="46.01227" lon="6.45857">
        <ele>1532</ele>
        <time>2019-04-08T08:14:58Z</time>
      </trkpt>
      <trkpt lat="46.01226" lon="6.45836">
        <ele>1533.44</ele>
        <time>2019-04-08T08:15:12Z</time>
      </trkpt>
      <trkpt lat="46.01223" lon="6.45821">
        <ele>1534.4</ele>
        <time>2019-04-08T08:15:23Z</time>
      </trkpt>
      <trkpt lat="46.01222" lon="6.4582">
        <ele>1534.4</ele>
        <time>2019-04-08T08:15:24Z</time>
      </trkpt>
      <trkpt lat="46.01222" lon="6.45819">
        <ele>1534.4</ele>
        <time>2019-04-08T08:15:25Z</time>
      </trkpt>
      <trkpt lat="46.01221" lon="6.45816">
        <ele>1534.88</ele>
        <time>2019-04-08T08:15:27Z</time>
      </trkpt>
      <trkpt lat="46.01221" lon="6.45814">
        <ele>1535.36</ele>
        <time>2019-04-08T08:15:29Z</time>
      </trkpt>
      <trkpt lat="46.01218" lon="6.4581">
        <ele>1536.32</ele>
        <time>2019-04-08T08:15:34Z</time>
      </trkpt>
      <trkpt lat="46.01217" lon="6.45809">
        <ele>1536.32</ele>
        <time>2019-04-08T08:15:35Z</time>
      </trkpt>
      <trkpt lat="46.01217" lon="6.45808">
        <ele>1536.32</ele>
        <time>2019-04-08T08:15:36Z</time>
      </trkpt>
      <trkpt lat="46.01217" lon="6.45806">
        <ele>1536.8</ele>
        <time>2019-04-08T08:15:38Z</time>
      </trkpt>
      <trkpt lat="46.01215" lon="6.45804">
        <ele>1536.8</ele>
        <time>2019-04-08T08:15:40Z</time>
      </trkpt>
      <trkpt lat="46.01214" lon="6.45803">
        <ele>1536.8</ele>
        <time>2019-04-08T08:15:41Z</time>
      </trkpt>
      <trkpt lat="46.01213" lon="6.45802">
        <ele>1537.29</ele>
        <time>2019-04-08T08:15:42Z</time>
      </trkpt>
      <trkpt lat="46.01212" lon="6.45801">
        <ele>1537.29</ele>
        <time>2019-04-08T08:15:43Z</time>
      </trkpt>
      <trkpt lat="46.01211" lon="6.458">
        <ele>1537.77</ele>
        <time>2019-04-08T08:15:45Z</time>
      </trkpt>
      <trkpt lat="46.01211" lon="6.45798">
        <ele>1538.25</ele>
        <time>2019-04-08T08:15:47Z</time>
      </trkpt>
      <trkpt lat="46.01209" lon="6.45794">
        <ele>1539.21</ele>
        <time>2019-04-08T08:15:51Z</time>
      </trkpt>
      <trkpt lat="46.01209" lon="6.45792">
        <ele>1539.21</ele>
        <time>2019-04-08T08:15:53Z</time>
      </trkpt>
      <trkpt lat="46.0121" lon="6.45791">
        <ele>1539.69</ele>
        <time>2019-04-08T08:15:54Z</time>
      </trkpt>
      <trkpt lat="46.01209" lon="6.45788">
        <ele>1540.17</ele>
        <time>2019-04-08T08:15:57Z</time>
      </trkpt>
      <trkpt lat="46.01209" lon="6.45786">
        <ele>1540.65</ele>
        <time>2019-04-08T08:15:59Z</time>
      </trkpt>
      <trkpt lat="46.01209" lon="6.45784">
        <ele>1540.65</ele>
        <time>2019-04-08T08:16:00Z</time>
      </trkpt>
      <trkpt lat="46.01208" lon="6.45783">
        <ele>1541.13</ele>
        <time>2019-04-08T08:16:01Z</time>
      </trkpt>
      <trkpt lat="46.01207" lon="6.45782">
        <ele>1541.13</ele>
        <time>2019-04-08T08:16:02Z</time>
      </trkpt>
      <trkpt lat="46.01207" lon="6.45781">
        <ele>1541.61</ele>
        <time>2019-04-08T08:16:03Z</time>
      </trkpt>
      <trkpt lat="46.01206" lon="6.4578">
        <ele>1541.61</ele>
        <time>2019-04-08T08:16:04Z</time>
      </trkpt>
      <trkpt lat="46.01203" lon="6.45778">
        <ele>1542.09</ele>
        <time>2019-04-08T08:16:08Z</time>
      </trkpt>
      <trkpt lat="46.01201" lon="6.45777">
        <ele>1542.57</ele>
        <time>2019-04-08T08:16:10Z</time>
      </trkpt>
      <trkpt lat="46.01201" lon="6.45776">
        <ele>1543.05</ele>
        <time>2019-04-08T08:16:12Z</time>
      </trkpt>
      <trkpt lat="46.012" lon="6.45774">
        <ele>1543.53</ele>
        <time>2019-04-08T08:16:14Z</time>
      </trkpt>
      <trkpt lat="46.012" lon="6.45771">
        <ele>1544.5</ele>
        <time>2019-04-08T08:16:18Z</time>
      </trkpt>
      <trkpt lat="46.01201" lon="6.45769">
        <ele>1544.98</ele>
        <time>2019-04-08T08:16:20Z</time>
      </trkpt>
      <trkpt lat="46.01201" lon="6.45768">
        <ele>1544.98</ele>
        <time>2019-04-08T08:16:22Z</time>
      </trkpt>
      <trkpt lat="46.01201" lon="6.45766">
        <ele>1545.46</ele>
        <time>2019-04-08T08:16:24Z</time>
      </trkpt>
      <trkpt lat="46.012" lon="6.45765">
        <ele>1545.94</ele>
        <time>2019-04-08T08:16:26Z</time>
      </trkpt>
      <trkpt lat="46.012" lon="6.45762">
        <ele>1546.42</ele>
        <time>2019-04-08T08:16:28Z</time>
      </trkpt>
      <trkpt lat="46.01197" lon="6.45759">
        <ele>1546.9</ele>
        <time>2019-04-08T08:16:32Z</time>
      </trkpt>
      <trkpt lat="46.01196" lon="6.45758">
        <ele>1546.9</ele>
        <time>2019-04-08T08:16:33Z</time>
      </trkpt>
      <trkpt lat="46.01196" lon="6.45757">
        <ele>1547.38</ele>
        <time>2019-04-08T08:16:34Z</time>
      </trkpt>
      <trkpt lat="46.01196" lon="6.45755">
        <ele>1547.38</ele>
        <time>2019-04-08T08:16:36Z</time>
      </trkpt>
      <trkpt lat="46.01196" lon="6.45754">
        <ele>1547.86</ele>
        <time>2019-04-08T08:16:37Z</time>
      </trkpt>
      <trkpt lat="46.01195" lon="6.45753">
        <ele>1547.86</ele>
        <time>2019-04-08T08:16:38Z</time>
      </trkpt>
      <trkpt lat="46.01194" lon="6.45751">
        <ele>1547.86</ele>
        <time>2019-04-08T08:16:39Z</time>
      </trkpt>
      <trkpt lat="46.01192" lon="6.4575">
        <ele>1548.34</ele>
        <time>2019-04-08T08:16:40Z</time>
      </trkpt>
      <trkpt lat="46.01192" lon="6.45749">
        <ele>1548.34</ele>
        <time>2019-04-08T08:16:41Z</time>
      </trkpt>
      <trkpt lat="46.01192" lon="6.45747">
        <ele>1548.34</ele>
        <time>2019-04-08T08:16:42Z</time>
      </trkpt>
      <trkpt lat="46.01192" lon="6.45746">
        <ele>1548.34</ele>
        <time>2019-04-08T08:16:43Z</time>
      </trkpt>
      <trkpt lat="46.01191" lon="6.45744">
        <ele>1548.34</ele>
        <time>2019-04-08T08:16:44Z</time>
      </trkpt>
      <trkpt lat="46.0119" lon="6.45743">
        <ele>1548.34</ele>
        <time>2019-04-08T08:16:45Z</time>
      </trkpt>
      <trkpt lat="46.01188" lon="6.4574">
        <ele>1548.82</ele>
        <time>2019-04-08T08:16:48Z</time>
      </trkpt>
      <trkpt lat="46.01187" lon="6.4574">
        <ele>1548.82</ele>
        <time>2019-04-08T08:16:49Z</time>
      </trkpt>
      <trkpt lat="46.01187" lon="6.45737">
        <ele>1549.78</ele>
        <time>2019-04-08T08:16:53Z</time>
      </trkpt>
      <trkpt lat="46.01185" lon="6.45735">
        <ele>1549.78</ele>
        <time>2019-04-08T08:16:54Z</time>
      </trkpt>
      <trkpt lat="46.01185" lon="6.45735">
        <ele>1550.26</ele>
        <time>2019-04-08T08:16:55Z</time>
      </trkpt>
      <trkpt lat="46.01185" lon="6.45733">
        <ele>1550.26</ele>
        <time>2019-04-08T08:16:56Z</time>
      </trkpt>
      <trkpt lat="46.01184" lon="6.45732">
        <ele>1550.74</ele>
        <time>2019-04-08T08:16:58Z</time>
      </trkpt>
      <trkpt lat="46.01183" lon="6.4573">
        <ele>1551.22</ele>
        <time>2019-04-08T08:17:00Z</time>
      </trkpt>
      <trkpt lat="46.01184" lon="6.45727">
        <ele>1551.71</ele>
        <time>2019-04-08T08:17:02Z</time>
      </trkpt>
      <trkpt lat="46.01182" lon="6.45726">
        <ele>1552.19</ele>
        <time>2019-04-08T08:17:04Z</time>
      </trkpt>
      <trkpt lat="46.01178" lon="6.4572">
        <ele>1553.63</ele>
        <time>2019-04-08T08:17:11Z</time>
      </trkpt>
      <trkpt lat="46.01178" lon="6.45717">
        <ele>1554.11</ele>
        <time>2019-04-08T08:17:14Z</time>
      </trkpt>
      <trkpt lat="46.01176" lon="6.45716">
        <ele>1554.59</ele>
        <time>2019-04-08T08:17:16Z</time>
      </trkpt>
      <trkpt lat="46.01176" lon="6.45715">
        <ele>1554.59</ele>
        <time>2019-04-08T08:17:17Z</time>
      </trkpt>
      <trkpt lat="46.01174" lon="6.45702">
        <ele>1556.03</ele>
        <time>2019-04-08T08:17:26Z</time>
      </trkpt>
      <trkpt lat="46.01174" lon="6.45701">
        <ele>1556.03</ele>
        <time>2019-04-08T08:17:27Z</time>
      </trkpt>
      <trkpt lat="46.01175" lon="6.457">
        <ele>1556.03</ele>
        <time>2019-04-08T08:17:28Z</time>
      </trkpt>
      <trkpt lat="46.01176" lon="6.45695">
        <ele>1556.51</ele>
        <time>2019-04-08T08:17:32Z</time>
      </trkpt>
      <trkpt lat="46.01176" lon="6.45693">
        <ele>1556.51</ele>
        <time>2019-04-08T08:17:33Z</time>
      </trkpt>
      <trkpt lat="46.01176" lon="6.45692">
        <ele>1556.51</ele>
        <time>2019-04-08T08:17:34Z</time>
      </trkpt>
      <trkpt lat="46.01175" lon="6.45691">
        <ele>1556.51</ele>
        <time>2019-04-08T08:17:35Z</time>
      </trkpt>
      <trkpt lat="46.01174" lon="6.4569">
        <ele>1556.99</ele>
        <time>2019-04-08T08:17:36Z</time>
      </trkpt>
      <trkpt lat="46.01173" lon="6.45689">
        <ele>1556.99</ele>
        <time>2019-04-08T08:17:37Z</time>
      </trkpt>
      <trkpt lat="46.01173" lon="6.45687">
        <ele>1556.99</ele>
        <time>2019-04-08T08:17:38Z</time>
      </trkpt>
      <trkpt lat="46.01172" lon="6.45686">
        <ele>1556.99</ele>
        <time>2019-04-08T08:17:39Z</time>
      </trkpt>
      <trkpt lat="46.01171" lon="6.45684">
        <ele>1557.47</ele>
        <time>2019-04-08T08:17:41Z</time>
      </trkpt>
      <trkpt lat="46.01171" lon="6.45681">
        <ele>1557.47</ele>
        <time>2019-04-08T08:17:43Z</time>
      </trkpt>
      <trkpt lat="46.01172" lon="6.45679">
        <ele>1557.95</ele>
        <time>2019-04-08T08:17:45Z</time>
      </trkpt>
      <trkpt lat="46.01171" lon="6.45677">
        <ele>1557.95</ele>
        <time>2019-04-08T08:17:47Z</time>
      </trkpt>
      <trkpt lat="46.01172" lon="6.45676">
        <ele>1558.43</ele>
        <time>2019-04-08T08:17:48Z</time>
      </trkpt>
      <trkpt lat="46.01171" lon="6.45672">
        <ele>1558.92</ele>
        <time>2019-04-08T08:17:51Z</time>
      </trkpt>
      <trkpt lat="46.01172" lon="6.45671">
        <ele>1558.92</ele>
        <time>2019-04-08T08:17:52Z</time>
      </trkpt>
      <trkpt lat="46.01171" lon="6.4567">
        <ele>1558.92</ele>
        <time>2019-04-08T08:17:53Z</time>
      </trkpt>
      <trkpt lat="46.0117" lon="6.45664">
        <ele>1559.4</ele>
        <time>2019-04-08T08:17:57Z</time>
      </trkpt>
      <trkpt lat="46.01169" lon="6.45662">
        <ele>1559.88</ele>
        <time>2019-04-08T08:17:59Z</time>
      </trkpt>
      <trkpt lat="46.01169" lon="6.45657">
        <ele>1560.36</ele>
        <time>2019-04-08T08:18:03Z</time>
      </trkpt>
      <trkpt lat="46.01169" lon="6.45656">
        <ele>1560.36</ele>
        <time>2019-04-08T08:18:04Z</time>
      </trkpt>
      <trkpt lat="46.0117" lon="6.45653">
        <ele>1560.84</ele>
        <time>2019-04-08T08:18:06Z</time>
      </trkpt>
      <trkpt lat="46.01171" lon="6.45652">
        <ele>1560.84</ele>
        <time>2019-04-08T08:18:07Z</time>
      </trkpt>
      <trkpt lat="46.01171" lon="6.45651">
        <ele>1560.84</ele>
        <time>2019-04-08T08:18:08Z</time>
      </trkpt>
      <trkpt lat="46.01172" lon="6.4565">
        <ele>1561.32</ele>
        <time>2019-04-08T08:18:09Z</time>
      </trkpt>
      <trkpt lat="46.01172" lon="6.45649">
        <ele>1561.32</ele>
        <time>2019-04-08T08:18:10Z</time>
      </trkpt>
      <trkpt lat="46.01171" lon="6.45648">
        <ele>1561.8</ele>
        <time>2019-04-08T08:18:12Z</time>
      </trkpt>
      <trkpt lat="46.01173" lon="6.45646">
        <ele>1561.8</ele>
        <time>2019-04-08T08:18:13Z</time>
      </trkpt>
      <trkpt lat="46.01172" lon="6.45645">
        <ele>1561.8</ele>
        <time>2019-04-08T08:18:14Z</time>
      </trkpt>
      <trkpt lat="46.01171" lon="6.45644">
        <ele>1561.8</ele>
        <time>2019-04-08T08:18:15Z</time>
      </trkpt>
      <trkpt lat="46.01171" lon="6.45642">
        <ele>1562.28</ele>
        <time>2019-04-08T08:18:17Z</time>
      </trkpt>
      <trkpt lat="46.0117" lon="6.45641">
        <ele>1562.28</ele>
        <time>2019-04-08T08:18:18Z</time>
      </trkpt>
      <trkpt lat="46.01171" lon="6.45637">
        <ele>1562.76</ele>
        <time>2019-04-08T08:18:21Z</time>
      </trkpt>
      <trkpt lat="46.01171" lon="6.45635">
        <ele>1563.24</ele>
        <time>2019-04-08T08:18:23Z</time>
      </trkpt>
      <trkpt lat="46.01173" lon="6.45631">
        <ele>1563.72</ele>
        <time>2019-04-08T08:18:26Z</time>
      </trkpt>
      <trkpt lat="46.01173" lon="6.4563">
        <ele>1563.72</ele>
        <time>2019-04-08T08:18:27Z</time>
      </trkpt>
      <trkpt lat="46.01172" lon="6.45629">
        <ele>1564.2</ele>
        <time>2019-04-08T08:18:28Z</time>
      </trkpt>
      <trkpt lat="46.01171" lon="6.45628">
        <ele>1564.2</ele>
        <time>2019-04-08T08:18:29Z</time>
      </trkpt>
      <trkpt lat="46.0117" lon="6.45627">
        <ele>1564.2</ele>
        <time>2019-04-08T08:18:30Z</time>
      </trkpt>
      <trkpt lat="46.0117" lon="6.45625">
        <ele>1564.2</ele>
        <time>2019-04-08T08:18:31Z</time>
      </trkpt>
      <trkpt lat="46.0117" lon="6.45622">
        <ele>1564.2</ele>
        <time>2019-04-08T08:18:33Z</time>
      </trkpt>
      <trkpt lat="46.0117" lon="6.45621">
        <ele>1564.2</ele>
        <time>2019-04-08T08:18:34Z</time>
      </trkpt>
      <trkpt lat="46.01172" lon="6.45614">
        <ele>1564.2</ele>
        <time>2019-04-08T08:18:39Z</time>
      </trkpt>
      <trkpt lat="46.01172" lon="6.45602">
        <ele>1566.12</ele>
        <time>2019-04-08T08:18:52Z</time>
      </trkpt>
      <trkpt lat="46.01172" lon="6.456">
        <ele>1566.61</ele>
        <time>2019-04-08T08:18:54Z</time>
      </trkpt>
      <trkpt lat="46.01172" lon="6.45597">
        <ele>1566.61</ele>
        <time>2019-04-08T08:18:56Z</time>
      </trkpt>
      <trkpt lat="46.01173" lon="6.45596">
        <ele>1567.09</ele>
        <time>2019-04-08T08:18:57Z</time>
      </trkpt>
      <trkpt lat="46.01172" lon="6.45595">
        <ele>1567.09</ele>
        <time>2019-04-08T08:18:58Z</time>
      </trkpt>
      <trkpt lat="46.01173" lon="6.45585">
        <ele>1567.57</ele>
        <time>2019-04-08T08:19:06Z</time>
      </trkpt>
      <trkpt lat="46.0117" lon="6.45571">
        <ele>1567.57</ele>
        <time>2019-04-08T08:19:15Z</time>
      </trkpt>
      <trkpt lat="46.01169" lon="6.4557">
        <ele>1567.57</ele>
        <time>2019-04-08T08:19:16Z</time>
      </trkpt>
      <trkpt lat="46.01169" lon="6.45568">
        <ele>1567.57</ele>
        <time>2019-04-08T08:19:17Z</time>
      </trkpt>
      <trkpt lat="46.01168" lon="6.45567">
        <ele>1567.57</ele>
        <time>2019-04-08T08:19:18Z</time>
      </trkpt>
      <trkpt lat="46.01168" lon="6.45565">
        <ele>1567.57</ele>
        <time>2019-04-08T08:19:19Z</time>
      </trkpt>
      <trkpt lat="46.01167" lon="6.45564">
        <ele>1567.57</ele>
        <time>2019-04-08T08:19:20Z</time>
      </trkpt>
      <trkpt lat="46.01167" lon="6.45563">
        <ele>1567.57</ele>
        <time>2019-04-08T08:19:21Z</time>
      </trkpt>
      <trkpt lat="46.01167" lon="6.45555">
        <ele>1567.57</ele>
        <time>2019-04-08T08:19:26Z</time>
      </trkpt>
      <trkpt lat="46.01166" lon="6.45554">
        <ele>1567.57</ele>
        <time>2019-04-08T08:19:27Z</time>
      </trkpt>
      <trkpt lat="46.01165" lon="6.4555">
        <ele>1567.57</ele>
        <time>2019-04-08T08:19:30Z</time>
      </trkpt>
      <trkpt lat="46.01166" lon="6.45549">
        <ele>1568.05</ele>
        <time>2019-04-08T08:19:31Z</time>
      </trkpt>
      <trkpt lat="46.01166" lon="6.45547">
        <ele>1568.53</ele>
        <time>2019-04-08T08:19:33Z</time>
      </trkpt>
      <trkpt lat="46.01164" lon="6.45546">
        <ele>1569.01</ele>
        <time>2019-04-08T08:19:35Z</time>
      </trkpt>
      <trkpt lat="46.01152" lon="6.4554">
        <ele>1570.45</ele>
        <time>2019-04-08T08:19:45Z</time>
      </trkpt>
      <trkpt lat="46.01155" lon="6.45537">
        <ele>1570.93</ele>
        <time>2019-04-08T08:19:46Z</time>
      </trkpt>
      <trkpt lat="46.01152" lon="6.45537">
        <ele>1570.93</ele>
        <time>2019-04-08T08:19:47Z</time>
      </trkpt>
      <trkpt lat="46.01154" lon="6.45534">
        <ele>1571.41</ele>
        <time>2019-04-08T08:19:49Z</time>
      </trkpt>
      <trkpt lat="46.01153" lon="6.45524">
        <ele>1571.89</ele>
        <time>2019-04-08T08:19:57Z</time>
      </trkpt>
      <trkpt lat="46.01152" lon="6.45523">
        <ele>1571.89</ele>
        <time>2019-04-08T08:19:58Z</time>
      </trkpt>
      <trkpt lat="46.01152" lon="6.45522">
        <ele>1572.37</ele>
        <time>2019-04-08T08:19:59Z</time>
      </trkpt>
      <trkpt lat="46.01153" lon="6.45521">
        <ele>1572.37</ele>
        <time>2019-04-08T08:20:00Z</time>
      </trkpt>
      <trkpt lat="46.01154" lon="6.45513">
        <ele>1572.85</ele>
        <time>2019-04-08T08:20:05Z</time>
      </trkpt>
      <trkpt lat="46.01155" lon="6.45512">
        <ele>1572.85</ele>
        <time>2019-04-08T08:20:06Z</time>
      </trkpt>
      <trkpt lat="46.01154" lon="6.45511">
        <ele>1573.33</ele>
        <time>2019-04-08T08:20:07Z</time>
      </trkpt>
      <trkpt lat="46.01153" lon="6.45509">
        <ele>1573.82</ele>
        <time>2019-04-08T08:20:09Z</time>
      </trkpt>
      <trkpt lat="46.01153" lon="6.45508">
        <ele>1573.82</ele>
        <time>2019-04-08T08:20:10Z</time>
      </trkpt>
      <trkpt lat="46.01152" lon="6.45507">
        <ele>1573.82</ele>
        <time>2019-04-08T08:20:11Z</time>
      </trkpt>
      <trkpt lat="46.01151" lon="6.45505">
        <ele>1573.82</ele>
        <time>2019-04-08T08:20:12Z</time>
      </trkpt>
      <trkpt lat="46.01151" lon="6.45504">
        <ele>1573.82</ele>
        <time>2019-04-08T08:20:13Z</time>
      </trkpt>
      <trkpt lat="46.0115" lon="6.45504">
        <ele>1574.3</ele>
        <time>2019-04-08T08:20:14Z</time>
      </trkpt>
      <trkpt lat="46.0115" lon="6.45502">
        <ele>1574.3</ele>
        <time>2019-04-08T08:20:15Z</time>
      </trkpt>
      <trkpt lat="46.0115" lon="6.45498">
        <ele>1574.78</ele>
        <time>2019-04-08T08:20:19Z</time>
      </trkpt>
      <trkpt lat="46.0115" lon="6.45497">
        <ele>1575.26</ele>
        <time>2019-04-08T08:20:20Z</time>
      </trkpt>
      <trkpt lat="46.0115" lon="6.45495">
        <ele>1575.26</ele>
        <time>2019-04-08T08:20:21Z</time>
      </trkpt>
      <trkpt lat="46.0115" lon="6.45494">
        <ele>1575.26</ele>
        <time>2019-04-08T08:20:22Z</time>
      </trkpt>
      <trkpt lat="46.01147" lon="6.45492">
        <ele>1575.74</ele>
        <time>2019-04-08T08:20:24Z</time>
      </trkpt>
      <trkpt lat="46.01146" lon="6.45492">
        <ele>1575.74</ele>
        <time>2019-04-08T08:20:25Z</time>
      </trkpt>
      <trkpt lat="46.01146" lon="6.4549">
        <ele>1576.22</ele>
        <time>2019-04-08T08:20:26Z</time>
      </trkpt>
      <trkpt lat="46.01147" lon="6.45485">
        <ele>1576.22</ele>
        <time>2019-04-08T08:20:30Z</time>
      </trkpt>
      <trkpt lat="46.01148" lon="6.45481">
        <ele>1577.18</ele>
        <time>2019-04-08T08:20:33Z</time>
      </trkpt>
      <trkpt lat="46.01148" lon="6.45479">
        <ele>1577.18</ele>
        <time>2019-04-08T08:20:34Z</time>
      </trkpt>
      <trkpt lat="46.01148" lon="6.45478">
        <ele>1577.18</ele>
        <time>2019-04-08T08:20:35Z</time>
      </trkpt>
      <trkpt lat="46.01149" lon="6.4547">
        <ele>1579.1</ele>
        <time>2019-04-08T08:20:43Z</time>
      </trkpt>
      <trkpt lat="46.01149" lon="6.45468">
        <ele>1579.1</ele>
        <time>2019-04-08T08:20:44Z</time>
      </trkpt>
      <trkpt lat="46.0115" lon="6.45467">
        <ele>1579.1</ele>
        <time>2019-04-08T08:20:45Z</time>
      </trkpt>
      <trkpt lat="46.01148" lon="6.45464">
        <ele>1579.58</ele>
        <time>2019-04-08T08:20:48Z</time>
      </trkpt>
      <trkpt lat="46.01148" lon="6.45463">
        <ele>1579.58</ele>
        <time>2019-04-08T08:20:49Z</time>
      </trkpt>
      <trkpt lat="46.01148" lon="6.45462">
        <ele>1579.58</ele>
        <time>2019-04-08T08:20:50Z</time>
      </trkpt>
      <trkpt lat="46.01147" lon="6.45461">
        <ele>1579.58</ele>
        <time>2019-04-08T08:20:51Z</time>
      </trkpt>
      <trkpt lat="46.01148" lon="6.45459">
        <ele>1580.06</ele>
        <time>2019-04-08T08:20:52Z</time>
      </trkpt>
      <trkpt lat="46.01148" lon="6.45458">
        <ele>1580.06</ele>
        <time>2019-04-08T08:20:53Z</time>
      </trkpt>
      <trkpt lat="46.01148" lon="6.45456">
        <ele>1580.06</ele>
        <time>2019-04-08T08:20:54Z</time>
      </trkpt>
      <trkpt lat="46.01148" lon="6.45454">
        <ele>1581.03</ele>
        <time>2019-04-08T08:20:56Z</time>
      </trkpt>
      <trkpt lat="46.01148" lon="6.45453">
        <ele>1581.03</ele>
        <time>2019-04-08T08:20:57Z</time>
      </trkpt>
      <trkpt lat="46.01144" lon="6.45443">
        <ele>1582.47</ele>
        <time>2019-04-08T08:21:08Z</time>
      </trkpt>
      <trkpt lat="46.01145" lon="6.45441">
        <ele>1582.47</ele>
        <time>2019-04-08T08:21:10Z</time>
      </trkpt>
      <trkpt lat="46.01142" lon="6.4544">
        <ele>1582.47</ele>
        <time>2019-04-08T08:21:11Z</time>
      </trkpt>
      <trkpt lat="46.01141" lon="6.45437">
        <ele>1582.95</ele>
        <time>2019-04-08T08:21:14Z</time>
      </trkpt>
      <trkpt lat="46.01141" lon="6.45436">
        <ele>1583.43</ele>
        <time>2019-04-08T08:21:16Z</time>
      </trkpt>
      <trkpt lat="46.01139" lon="6.45433">
        <ele>1583.91</ele>
        <time>2019-04-08T08:21:19Z</time>
      </trkpt>
      <trkpt lat="46.01138" lon="6.45429">
        <ele>1584.39</ele>
        <time>2019-04-08T08:21:24Z</time>
      </trkpt>
      <trkpt lat="46.01136" lon="6.45427">
        <ele>1584.87</ele>
        <time>2019-04-08T08:21:27Z</time>
      </trkpt>
      <trkpt lat="46.01135" lon="6.45426">
        <ele>1585.35</ele>
        <time>2019-04-08T08:21:28Z</time>
      </trkpt>
      <trkpt lat="46.01134" lon="6.45424">
        <ele>1585.35</ele>
        <time>2019-04-08T08:21:30Z</time>
      </trkpt>
      <trkpt lat="46.01134" lon="6.45422">
        <ele>1585.83</ele>
        <time>2019-04-08T08:21:32Z</time>
      </trkpt>
      <trkpt lat="46.01134" lon="6.4542">
        <ele>1585.83</ele>
        <time>2019-04-08T08:21:34Z</time>
      </trkpt>
      <trkpt lat="46.01131" lon="6.45415">
        <ele>1586.31</ele>
        <time>2019-04-08T08:21:39Z</time>
      </trkpt>
      <trkpt lat="46.0113" lon="6.45414">
        <ele>1586.31</ele>
        <time>2019-04-08T08:21:40Z</time>
      </trkpt>
      <trkpt lat="46.01131" lon="6.45408">
        <ele>1587.27</ele>
        <time>2019-04-08T08:21:45Z</time>
      </trkpt>
      <trkpt lat="46.01132" lon="6.45407">
        <ele>1587.75</ele>
        <time>2019-04-08T08:21:46Z</time>
      </trkpt>
      <trkpt lat="46.0113" lon="6.45406">
        <ele>1587.75</ele>
        <time>2019-04-08T08:21:47Z</time>
      </trkpt>
      <trkpt lat="46.01128" lon="6.45404">
        <ele>1588.24</ele>
        <time>2019-04-08T08:21:50Z</time>
      </trkpt>
      <trkpt lat="46.01126" lon="6.454">
        <ele>1588.72</ele>
        <time>2019-04-08T08:21:54Z</time>
      </trkpt>
      <trkpt lat="46.01126" lon="6.45399">
        <ele>1589.2</ele>
        <time>2019-04-08T08:21:55Z</time>
      </trkpt>
      <trkpt lat="46.01126" lon="6.45397">
        <ele>1589.2</ele>
        <time>2019-04-08T08:21:56Z</time>
      </trkpt>
      <trkpt lat="46.01124" lon="6.45393">
        <ele>1590.64</ele>
        <time>2019-04-08T08:22:02Z</time>
      </trkpt>
      <trkpt lat="46.01124" lon="6.4539">
        <ele>1591.6</ele>
        <time>2019-04-08T08:22:06Z</time>
      </trkpt>
      <trkpt lat="46.01125" lon="6.45388">
        <ele>1591.6</ele>
        <time>2019-04-08T08:22:08Z</time>
      </trkpt>
      <trkpt lat="46.01125" lon="6.45386">
        <ele>1592.08</ele>
        <time>2019-04-08T08:22:10Z</time>
      </trkpt>
      <trkpt lat="46.01123" lon="6.45383">
        <ele>1593.04</ele>
        <time>2019-04-08T08:22:14Z</time>
      </trkpt>
      <trkpt lat="46.01122" lon="6.45382">
        <ele>1593.04</ele>
        <time>2019-04-08T08:22:15Z</time>
      </trkpt>
      <trkpt lat="46.01123" lon="6.45381">
        <ele>1593.04</ele>
        <time>2019-04-08T08:22:16Z</time>
      </trkpt>
      <trkpt lat="46.01123" lon="6.45379">
        <ele>1593.52</ele>
        <time>2019-04-08T08:22:18Z</time>
      </trkpt>
      <trkpt lat="46.01125" lon="6.45377">
        <ele>1594</ele>
        <time>2019-04-08T08:22:20Z</time>
      </trkpt>
      <trkpt lat="46.01123" lon="6.45376">
        <ele>1594.48</ele>
        <time>2019-04-08T08:22:22Z</time>
      </trkpt>
      <trkpt lat="46.01121" lon="6.45371">
        <ele>1595.93</ele>
        <time>2019-04-08T08:22:29Z</time>
      </trkpt>
      <trkpt lat="46.0112" lon="6.4537">
        <ele>1596.41</ele>
        <time>2019-04-08T08:22:30Z</time>
      </trkpt>
      <trkpt lat="46.01121" lon="6.45368">
        <ele>1596.41</ele>
        <time>2019-04-08T08:22:31Z</time>
      </trkpt>
      <trkpt lat="46.01118" lon="6.45365">
        <ele>1596.89</ele>
        <time>2019-04-08T08:22:35Z</time>
      </trkpt>
      <trkpt lat="46.01119" lon="6.45364">
        <ele>1597.37</ele>
        <time>2019-04-08T08:22:36Z</time>
      </trkpt>
      <trkpt lat="46.01117" lon="6.45359">
        <ele>1598.81</ele>
        <time>2019-04-08T08:22:43Z</time>
      </trkpt>
      <trkpt lat="46.01115" lon="6.45358">
        <ele>1598.81</ele>
        <time>2019-04-08T08:22:45Z</time>
      </trkpt>
      <trkpt lat="46.01114" lon="6.45357">
        <ele>1599.29</ele>
        <time>2019-04-08T08:22:47Z</time>
      </trkpt>
      <trkpt lat="46.01112" lon="6.45356">
        <ele>1599.77</ele>
        <time>2019-04-08T08:22:49Z</time>
      </trkpt>
      <trkpt lat="46.01109" lon="6.45354">
        <ele>1601.21</ele>
        <time>2019-04-08T08:22:59Z</time>
      </trkpt>
      <trkpt lat="46.01107" lon="6.45355">
        <ele>1601.69</ele>
        <time>2019-04-08T08:23:00Z</time>
      </trkpt>
      <trkpt lat="46.01107" lon="6.45358">
        <ele>1602.17</ele>
        <time>2019-04-08T08:23:06Z</time>
      </trkpt>
      <trkpt lat="46.01105" lon="6.45363">
        <ele>1604.1</ele>
        <time>2019-04-08T08:23:16Z</time>
      </trkpt>
      <trkpt lat="46.01106" lon="6.45374">
        <ele>1606.5</ele>
        <time>2019-04-08T08:23:29Z</time>
      </trkpt>
      <trkpt lat="46.01104" lon="6.45374">
        <ele>1606.98</ele>
        <time>2019-04-08T08:23:30Z</time>
      </trkpt>
      <trkpt lat="46.01104" lon="6.45374">
        <ele>1606.98</ele>
        <time>2019-04-08T08:23:31Z</time>
      </trkpt>
      <trkpt lat="46.01103" lon="6.45374">
        <ele>1606.98</ele>
        <time>2019-04-08T08:23:32Z</time>
      </trkpt>
      <trkpt lat="46.01101" lon="6.45373">
        <ele>1606.98</ele>
        <time>2019-04-08T08:23:33Z</time>
      </trkpt>
      <trkpt lat="46.01102" lon="6.45372">
        <ele>1606.98</ele>
        <time>2019-04-08T08:23:34Z</time>
      </trkpt>
      <trkpt lat="46.01101" lon="6.45371">
        <ele>1606.98</ele>
        <time>2019-04-08T08:23:35Z</time>
      </trkpt>
      <trkpt lat="46.011" lon="6.45367">
        <ele>1607.46</ele>
        <time>2019-04-08T08:23:40Z</time>
      </trkpt>
      <trkpt lat="46.011" lon="6.45365">
        <ele>1607.94</ele>
        <time>2019-04-08T08:23:42Z</time>
      </trkpt>
      <trkpt lat="46.01099" lon="6.45365">
        <ele>1608.42</ele>
        <time>2019-04-08T08:23:43Z</time>
      </trkpt>
      <trkpt lat="46.01098" lon="6.45364">
        <ele>1608.42</ele>
        <time>2019-04-08T08:23:44Z</time>
      </trkpt>
      <trkpt lat="46.01098" lon="6.45362">
        <ele>1608.42</ele>
        <time>2019-04-08T08:23:46Z</time>
      </trkpt>
      <trkpt lat="46.01096" lon="6.45359">
        <ele>1609.38</ele>
        <time>2019-04-08T08:23:49Z</time>
      </trkpt>
      <trkpt lat="46.01092" lon="6.45359">
        <ele>1612.27</ele>
        <time>2019-04-08T08:24:05Z</time>
      </trkpt>
      <trkpt lat="46.01089" lon="6.45367">
        <ele>1614.19</ele>
        <time>2019-04-08T08:24:15Z</time>
      </trkpt>
      <trkpt lat="46.01088" lon="6.4537">
        <ele>1615.15</ele>
        <time>2019-04-08T08:24:21Z</time>
      </trkpt>
      <trkpt lat="46.01085" lon="6.45373">
        <ele>1616.11</ele>
        <time>2019-04-08T08:24:25Z</time>
      </trkpt>
      <trkpt lat="46.01084" lon="6.45374">
        <ele>1616.59</ele>
        <time>2019-04-08T08:24:26Z</time>
      </trkpt>
      <trkpt lat="46.01082" lon="6.45373">
        <ele>1617.07</ele>
        <time>2019-04-08T08:24:33Z</time>
      </trkpt>
      <trkpt lat="46.0108" lon="6.4537">
        <ele>1618.04</ele>
        <time>2019-04-08T08:24:37Z</time>
      </trkpt>
      <trkpt lat="46.0108" lon="6.45369">
        <ele>1618.04</ele>
        <time>2019-04-08T08:24:39Z</time>
      </trkpt>
      <trkpt lat="46.01079" lon="6.45362">
        <ele>1619.96</ele>
        <time>2019-04-08T08:24:49Z</time>
      </trkpt>
      <trkpt lat="46.01077" lon="6.4536">
        <ele>1620.44</ele>
        <time>2019-04-08T08:24:51Z</time>
      </trkpt>
      <trkpt lat="46.01076" lon="6.45359">
        <ele>1620.44</ele>
        <time>2019-04-08T08:24:52Z</time>
      </trkpt>
      <trkpt lat="46.01075" lon="6.45358">
        <ele>1620.92</ele>
        <time>2019-04-08T08:24:53Z</time>
      </trkpt>
      <trkpt lat="46.01075" lon="6.45356">
        <ele>1620.92</ele>
        <time>2019-04-08T08:24:55Z</time>
      </trkpt>
      <trkpt lat="46.01074" lon="6.45355">
        <ele>1621.4</ele>
        <time>2019-04-08T08:24:57Z</time>
      </trkpt>
      <trkpt lat="46.01075" lon="6.45353">
        <ele>1621.4</ele>
        <time>2019-04-08T08:24:58Z</time>
      </trkpt>
      <trkpt lat="46.01074" lon="6.45351">
        <ele>1621.88</ele>
        <time>2019-04-08T08:25:01Z</time>
      </trkpt>
      <trkpt lat="46.01073" lon="6.45351">
        <ele>1622.36</ele>
        <time>2019-04-08T08:25:02Z</time>
      </trkpt>
      <trkpt lat="46.01072" lon="6.45349">
        <ele>1622.36</ele>
        <time>2019-04-08T08:25:03Z</time>
      </trkpt>
      <trkpt lat="46.01071" lon="6.45349">
        <ele>1622.84</ele>
        <time>2019-04-08T08:25:04Z</time>
      </trkpt>
      <trkpt lat="46.01069" lon="6.45348">
        <ele>1622.84</ele>
        <time>2019-04-08T08:25:05Z</time>
      </trkpt>
      <trkpt lat="46.01068" lon="6.45347">
        <ele>1623.32</ele>
        <time>2019-04-08T08:25:07Z</time>
      </trkpt>
      <trkpt lat="46.01068" lon="6.45345">
        <ele>1623.8</ele>
        <time>2019-04-08T08:25:09Z</time>
      </trkpt>
      <trkpt lat="46.0107" lon="6.4534">
        <ele>1624.77</ele>
        <time>2019-04-08T08:25:15Z</time>
      </trkpt>
      <trkpt lat="46.01064" lon="6.45337">
        <ele>1627.65</ele>
        <time>2019-04-08T08:25:34Z</time>
      </trkpt>
      <trkpt lat="46.01062" lon="6.45348">
        <ele>1631.01</ele>
        <time>2019-04-08T08:25:52Z</time>
      </trkpt>
      <trkpt lat="46.01059" lon="6.45351">
        <ele>1631.98</ele>
        <time>2019-04-08T08:25:58Z</time>
      </trkpt>
      <trkpt lat="46.01059" lon="6.45348">
        <ele>1631.98</ele>
        <time>2019-04-08T08:26:02Z</time>
      </trkpt>
      <trkpt lat="46.01059" lon="6.45344">
        <ele>1632.46</ele>
        <time>2019-04-08T08:26:06Z</time>
      </trkpt>
      <trkpt lat="46.0106" lon="6.45342">
        <ele>1632.94</ele>
        <time>2019-04-08T08:26:08Z</time>
      </trkpt>
      <trkpt lat="46.01058" lon="6.45338">
        <ele>1633.42</ele>
        <time>2019-04-08T08:26:11Z</time>
      </trkpt>
      <trkpt lat="46.01057" lon="6.45337">
        <ele>1633.42</ele>
        <time>2019-04-08T08:26:12Z</time>
      </trkpt>
      <trkpt lat="46.01057" lon="6.45336">
        <ele>1633.9</ele>
        <time>2019-04-08T08:26:13Z</time>
      </trkpt>
      <trkpt lat="46.01056" lon="6.45334">
        <ele>1633.9</ele>
        <time>2019-04-08T08:26:14Z</time>
      </trkpt>
      <trkpt lat="46.01056" lon="6.45333">
        <ele>1633.9</ele>
        <time>2019-04-08T08:26:15Z</time>
      </trkpt>
      <trkpt lat="46.01055" lon="6.45332">
        <ele>1633.9</ele>
        <time>2019-04-08T08:26:16Z</time>
      </trkpt>
      <trkpt lat="46.01055" lon="6.45331">
        <ele>1633.9</ele>
        <time>2019-04-08T08:26:17Z</time>
      </trkpt>
      <trkpt lat="46.01056" lon="6.45328">
        <ele>1634.38</ele>
        <time>2019-04-08T08:26:19Z</time>
      </trkpt>
      <trkpt lat="46.01055" lon="6.45325">
        <ele>1634.86</ele>
        <time>2019-04-08T08:26:22Z</time>
      </trkpt>
      <trkpt lat="46.01055" lon="6.45323">
        <ele>1635.34</ele>
        <time>2019-04-08T08:26:24Z</time>
      </trkpt>
      <trkpt lat="46.01057" lon="6.4532">
        <ele>1635.34</ele>
        <time>2019-04-08T08:26:26Z</time>
      </trkpt>
      <trkpt lat="46.01055" lon="6.45314">
        <ele>1636.3</ele>
        <time>2019-04-08T08:26:32Z</time>
      </trkpt>
      <trkpt lat="46.01054" lon="6.45312">
        <ele>1636.78</ele>
        <time>2019-04-08T08:26:34Z</time>
      </trkpt>
      <trkpt lat="46.01053" lon="6.45311">
        <ele>1636.78</ele>
        <time>2019-04-08T08:26:35Z</time>
      </trkpt>
      <trkpt lat="46.01053" lon="6.45311">
        <ele>1636.78</ele>
        <time>2019-04-08T08:26:36Z</time>
      </trkpt>
      <trkpt lat="46.01051" lon="6.45309">
        <ele>1637.26</ele>
        <time>2019-04-08T08:26:38Z</time>
      </trkpt>
      <trkpt lat="46.0105" lon="6.45308">
        <ele>1637.74</ele>
        <time>2019-04-08T08:26:39Z</time>
      </trkpt>
      <trkpt lat="46.01049" lon="6.45307">
        <ele>1637.74</ele>
        <time>2019-04-08T08:26:40Z</time>
      </trkpt>
      <trkpt lat="46.0105" lon="6.45306">
        <ele>1638.22</ele>
        <time>2019-04-08T08:26:42Z</time>
      </trkpt>
      <trkpt lat="46.01051" lon="6.45302">
        <ele>1638.7</ele>
        <time>2019-04-08T08:26:46Z</time>
      </trkpt>
      <trkpt lat="46.01052" lon="6.45297">
        <ele>1639.67</ele>
        <time>2019-04-08T08:26:52Z</time>
      </trkpt>
      <trkpt lat="46.01053" lon="6.45293">
        <ele>1641.11</ele>
        <time>2019-04-08T08:26:58Z</time>
      </trkpt>
      <trkpt lat="46.01053" lon="6.45292">
        <ele>1641.11</ele>
        <time>2019-04-08T08:26:59Z</time>
      </trkpt>
      <trkpt lat="46.01052" lon="6.45291">
        <ele>1641.59</ele>
        <time>2019-04-08T08:27:01Z</time>
      </trkpt>
      <trkpt lat="46.01051" lon="6.45291">
        <ele>1641.59</ele>
        <time>2019-04-08T08:27:02Z</time>
      </trkpt>
      <trkpt lat="46.0105" lon="6.4529">
        <ele>1642.07</ele>
        <time>2019-04-08T08:27:03Z</time>
      </trkpt>
      <trkpt lat="46.01052" lon="6.45285">
        <ele>1643.51</ele>
        <time>2019-04-08T08:27:10Z</time>
      </trkpt>
      <trkpt lat="46.01054" lon="6.45279">
        <ele>1644.95</ele>
        <time>2019-04-08T08:27:18Z</time>
      </trkpt>
      <trkpt lat="46.01053" lon="6.45278">
        <ele>1645.43</ele>
        <time>2019-04-08T08:27:20Z</time>
      </trkpt>
      <trkpt lat="46.01047" lon="6.45272">
        <ele>1647.84</ele>
        <time>2019-04-08T08:27:33Z</time>
      </trkpt>
      <trkpt lat="46.01045" lon="6.45268">
        <ele>1649.28</ele>
        <time>2019-04-08T08:27:40Z</time>
      </trkpt>
      <trkpt lat="46.0104" lon="6.45261">
        <ele>1651.68</ele>
        <time>2019-04-08T08:27:52Z</time>
      </trkpt>
      <trkpt lat="46.01038" lon="6.45256">
        <ele>1654.09</ele>
        <time>2019-04-08T08:28:03Z</time>
      </trkpt>
      <trkpt lat="46.01038" lon="6.45255">
        <ele>1654.09</ele>
        <time>2019-04-08T08:28:04Z</time>
      </trkpt>
      <trkpt lat="46.01033" lon="6.45254">
        <ele>1655.05</ele>
        <time>2019-04-08T08:28:08Z</time>
      </trkpt>
      <trkpt lat="46.01033" lon="6.45254">
        <ele>1655.05</ele>
        <time>2019-04-08T08:28:09Z</time>
      </trkpt>
      <trkpt lat="46.01033" lon="6.45253">
        <ele>1655.53</ele>
        <time>2019-04-08T08:28:10Z</time>
      </trkpt>
      <trkpt lat="46.0103" lon="6.45245">
        <ele>1658.41</ele>
        <time>2019-04-08T08:28:24Z</time>
      </trkpt>
      <trkpt lat="46.01026" lon="6.45239">
        <ele>1660.33</ele>
        <time>2019-04-08T08:28:34Z</time>
      </trkpt>
      <trkpt lat="46.01025" lon="6.45238">
        <ele>1660.81</ele>
        <time>2019-04-08T08:28:36Z</time>
      </trkpt>
      <trkpt lat="46.01023" lon="6.45237">
        <ele>1661.3</ele>
        <time>2019-04-08T08:28:38Z</time>
      </trkpt>
      <trkpt lat="46.01022" lon="6.45236">
        <ele>1661.3</ele>
        <time>2019-04-08T08:28:39Z</time>
      </trkpt>
      <trkpt lat="46.01023" lon="6.45235">
        <ele>1661.78</ele>
        <time>2019-04-08T08:28:40Z</time>
      </trkpt>
      <trkpt lat="46.01023" lon="6.45231">
        <ele>1661.78</ele>
        <time>2019-04-08T08:28:44Z</time>
      </trkpt>
      <trkpt lat="46.01023" lon="6.4523">
        <ele>1662.26</ele>
        <time>2019-04-08T08:28:45Z</time>
      </trkpt>
      <trkpt lat="46.01023" lon="6.45229">
        <ele>1662.26</ele>
        <time>2019-04-08T08:28:46Z</time>
      </trkpt>
      <trkpt lat="46.01022" lon="6.45227">
        <ele>1662.74</ele>
        <time>2019-04-08T08:28:48Z</time>
      </trkpt>
      <trkpt lat="46.01021" lon="6.45225">
        <ele>1662.74</ele>
        <time>2019-04-08T08:28:50Z</time>
      </trkpt>
      <trkpt lat="46.01021" lon="6.45222">
        <ele>1663.22</ele>
        <time>2019-04-08T08:28:54Z</time>
      </trkpt>
      <trkpt lat="46.0102" lon="6.4522">
        <ele>1663.22</ele>
        <time>2019-04-08T08:28:56Z</time>
      </trkpt>
      <trkpt lat="46.0102" lon="6.45217">
        <ele>1663.7</ele>
        <time>2019-04-08T08:28:58Z</time>
      </trkpt>
      <trkpt lat="46.0102" lon="6.45215">
        <ele>1663.7</ele>
        <time>2019-04-08T08:29:00Z</time>
      </trkpt>
      <trkpt lat="46.0102" lon="6.45213">
        <ele>1664.18</ele>
        <time>2019-04-08T08:29:02Z</time>
      </trkpt>
      <trkpt lat="46.01018" lon="6.45206">
        <ele>1666.1</ele>
        <time>2019-04-08T08:29:10Z</time>
      </trkpt>
      <trkpt lat="46.01017" lon="6.45202">
        <ele>1666.58</ele>
        <time>2019-04-08T08:29:15Z</time>
      </trkpt>
      <trkpt lat="46.01017" lon="6.45199">
        <ele>1667.06</ele>
        <time>2019-04-08T08:29:18Z</time>
      </trkpt>
      <trkpt lat="46.01017" lon="6.45198">
        <ele>1667.54</ele>
        <time>2019-04-08T08:29:20Z</time>
      </trkpt>
      <trkpt lat="46.01017" lon="6.45196">
        <ele>1668.02</ele>
        <time>2019-04-08T08:29:22Z</time>
      </trkpt>
      <trkpt lat="46.01016" lon="6.45194">
        <ele>1668.51</ele>
        <time>2019-04-08T08:29:24Z</time>
      </trkpt>
      <trkpt lat="46.01015" lon="6.45192">
        <ele>1668.99</ele>
        <time>2019-04-08T08:29:26Z</time>
      </trkpt>
      <trkpt lat="46.01014" lon="6.45184">
        <ele>1670.91</ele>
        <time>2019-04-08T08:29:36Z</time>
      </trkpt>
      <trkpt lat="46.01015" lon="6.4518">
        <ele>1671.87</ele>
        <time>2019-04-08T08:29:40Z</time>
      </trkpt>
      <trkpt lat="46.01012" lon="6.45179">
        <ele>1672.35</ele>
        <time>2019-04-08T08:29:42Z</time>
      </trkpt>
      <trkpt lat="46.01012" lon="6.45177">
        <ele>1672.83</ele>
        <time>2019-04-08T08:29:44Z</time>
      </trkpt>
      <trkpt lat="46.01011" lon="6.45175">
        <ele>1673.79</ele>
        <time>2019-04-08T08:29:51Z</time>
      </trkpt>
      <trkpt lat="46.01011" lon="6.45174">
        <ele>1674.27</ele>
        <time>2019-04-08T08:29:52Z</time>
      </trkpt>
      <trkpt lat="46.01" lon="6.45174">
        <ele>1677.16</ele>
        <time>2019-04-08T08:30:11Z</time>
      </trkpt>
      <trkpt lat="46.00991" lon="6.45179">
        <ele>1679.56</ele>
        <time>2019-04-08T08:30:24Z</time>
      </trkpt>
      <trkpt lat="46.00987" lon="6.45184">
        <ele>1680.52</ele>
        <time>2019-04-08T08:30:30Z</time>
      </trkpt>
      <trkpt lat="46.00986" lon="6.45184">
        <ele>1680.52</ele>
        <time>2019-04-08T08:30:31Z</time>
      </trkpt>
      <trkpt lat="46.00985" lon="6.45183">
        <ele>1681</ele>
        <time>2019-04-08T08:30:34Z</time>
      </trkpt>
      <trkpt lat="46.00984" lon="6.45162">
        <ele>1683.89</ele>
        <time>2019-04-08T08:30:57Z</time>
      </trkpt>
      <trkpt lat="46.00983" lon="6.4516">
        <ele>1684.37</ele>
        <time>2019-04-08T08:30:59Z</time>
      </trkpt>
      <trkpt lat="46.00983" lon="6.45158">
        <ele>1684.37</ele>
        <time>2019-04-08T08:31:01Z</time>
      </trkpt>
      <trkpt lat="46.00982" lon="6.45155">
        <ele>1685.33</ele>
        <time>2019-04-08T08:31:05Z</time>
      </trkpt>
      <trkpt lat="46.00981" lon="6.45153">
        <ele>1685.81</ele>
        <time>2019-04-08T08:31:07Z</time>
      </trkpt>
      <trkpt lat="46.00981" lon="6.45152">
        <ele>1685.81</ele>
        <time>2019-04-08T08:31:08Z</time>
      </trkpt>
      <trkpt lat="46.00981" lon="6.4515">
        <ele>1685.81</ele>
        <time>2019-04-08T08:31:10Z</time>
      </trkpt>
      <trkpt lat="46.0098" lon="6.45148">
        <ele>1686.77</ele>
        <time>2019-04-08T08:31:14Z</time>
      </trkpt>
      <trkpt lat="46.00979" lon="6.45146">
        <ele>1686.77</ele>
        <time>2019-04-08T08:31:16Z</time>
      </trkpt>
      <trkpt lat="46.00977" lon="6.45139">
        <ele>1688.21</ele>
        <time>2019-04-08T08:31:25Z</time>
      </trkpt>
      <trkpt lat="46.00977" lon="6.45137">
        <ele>1688.69</ele>
        <time>2019-04-08T08:31:27Z</time>
      </trkpt>
      <trkpt lat="46.00973" lon="6.45128">
        <ele>1690.14</ele>
        <time>2019-04-08T08:31:37Z</time>
      </trkpt>
      <trkpt lat="46.00974" lon="6.45126">
        <ele>1690.62</ele>
        <time>2019-04-08T08:31:39Z</time>
      </trkpt>
      <trkpt lat="46.00975" lon="6.45122">
        <ele>1691.1</ele>
        <time>2019-04-08T08:31:43Z</time>
      </trkpt>
      <trkpt lat="46.00974" lon="6.45122">
        <ele>1691.58</ele>
        <time>2019-04-08T08:31:44Z</time>
      </trkpt>
      <trkpt lat="46.00973" lon="6.45121">
        <ele>1691.58</ele>
        <time>2019-04-08T08:31:45Z</time>
      </trkpt>
      <trkpt lat="46.00974" lon="6.45119">
        <ele>1691.58</ele>
        <time>2019-04-08T08:31:47Z</time>
      </trkpt>
      <trkpt lat="46.00974" lon="6.45117">
        <ele>1692.06</ele>
        <time>2019-04-08T08:31:49Z</time>
      </trkpt>
      <trkpt lat="46.00973" lon="6.45113">
        <ele>1693.02</ele>
        <time>2019-04-08T08:31:53Z</time>
      </trkpt>
      <trkpt lat="46.00972" lon="6.45111">
        <ele>1693.02</ele>
        <time>2019-04-08T08:31:55Z</time>
      </trkpt>
      <trkpt lat="46.00971" lon="6.45106">
        <ele>1693.98</ele>
        <time>2019-04-08T08:32:01Z</time>
      </trkpt>
      <trkpt lat="46.0097" lon="6.451">
        <ele>1694.94</ele>
        <time>2019-04-08T08:32:07Z</time>
      </trkpt>
      <trkpt lat="46.00972" lon="6.45096">
        <ele>1695.42</ele>
        <time>2019-04-08T08:32:11Z</time>
      </trkpt>
      <trkpt lat="46.00972" lon="6.45093">
        <ele>1695.9</ele>
        <time>2019-04-08T08:32:13Z</time>
      </trkpt>
      <trkpt lat="46.00972" lon="6.45087">
        <ele>1696.86</ele>
        <time>2019-04-08T08:32:20Z</time>
      </trkpt>
      <trkpt lat="46.00974" lon="6.45084">
        <ele>1697.34</ele>
        <time>2019-04-08T08:32:23Z</time>
      </trkpt>
      <trkpt lat="46.00975" lon="6.45083">
        <ele>1697.83</ele>
        <time>2019-04-08T08:32:24Z</time>
      </trkpt>
      <trkpt lat="46.00977" lon="6.45075">
        <ele>1698.79</ele>
        <time>2019-04-08T08:32:31Z</time>
      </trkpt>
      <trkpt lat="46.00974" lon="6.45067">
        <ele>1700.23</ele>
        <time>2019-04-08T08:32:40Z</time>
      </trkpt>
      <trkpt lat="46.00972" lon="6.45066">
        <ele>1700.71</ele>
        <time>2019-04-08T08:32:42Z</time>
      </trkpt>
      <trkpt lat="46.00971" lon="6.45066">
        <ele>1701.19</ele>
        <time>2019-04-08T08:32:45Z</time>
      </trkpt>
      <trkpt lat="46.00965" lon="6.45069">
        <ele>1702.63</ele>
        <time>2019-04-08T08:32:55Z</time>
      </trkpt>
      <trkpt lat="46.0096" lon="6.45071">
        <ele>1703.59</ele>
        <time>2019-04-08T08:33:02Z</time>
      </trkpt>
      <trkpt lat="46.00959" lon="6.45071">
        <ele>1703.59</ele>
        <time>2019-04-08T08:33:03Z</time>
      </trkpt>
      <trkpt lat="46.0095" lon="6.45076">
        <ele>1705.04</ele>
        <time>2019-04-08T08:33:13Z</time>
      </trkpt>
      <trkpt lat="46.00951" lon="6.45076">
        <ele>1705.04</ele>
        <time>2019-04-08T08:33:14Z</time>
      </trkpt>
      <trkpt lat="46.00948" lon="6.45078">
        <ele>1705.04</ele>
        <time>2019-04-08T08:33:17Z</time>
      </trkpt>
      <trkpt lat="46.00946" lon="6.45081">
        <ele>1706</ele>
        <time>2019-04-08T08:33:23Z</time>
      </trkpt>
      <trkpt lat="46.00943" lon="6.45083">
        <ele>1706.96</ele>
        <time>2019-04-08T08:33:27Z</time>
      </trkpt>
      <trkpt lat="46.00942" lon="6.45084">
        <ele>1706.96</ele>
        <time>2019-04-08T08:33:28Z</time>
      </trkpt>
      <trkpt lat="46.00941" lon="6.45084">
        <ele>1706.96</ele>
        <time>2019-04-08T08:33:29Z</time>
      </trkpt>
      <trkpt lat="46.00932" lon="6.45091">
        <ele>1709.84</ele>
        <time>2019-04-08T08:33:48Z</time>
      </trkpt>
      <trkpt lat="46.0093" lon="6.45096">
        <ele>1710.8</ele>
        <time>2019-04-08T08:33:54Z</time>
      </trkpt>
      <trkpt lat="46.00928" lon="6.45087">
        <ele>1712.25</ele>
        <time>2019-04-08T08:34:08Z</time>
      </trkpt>
      <trkpt lat="46.00927" lon="6.45068">
        <ele>1715.61</ele>
        <time>2019-04-08T08:34:27Z</time>
      </trkpt>
      <trkpt lat="46.00927" lon="6.45063">
        <ele>1717.53</ele>
        <time>2019-04-08T08:34:40Z</time>
      </trkpt>
      <trkpt lat="46.00922" lon="6.4507">
        <ele>1718.49</ele>
        <time>2019-04-08T08:34:49Z</time>
      </trkpt>
      <trkpt lat="46.0092" lon="6.45077">
        <ele>1718.97</ele>
        <time>2019-04-08T08:34:57Z</time>
      </trkpt>
      <trkpt lat="46.00918" lon="6.4508">
        <ele>1719.94</ele>
        <time>2019-04-08T08:35:01Z</time>
      </trkpt>
      <trkpt lat="46.0091" lon="6.45098">
        <ele>1722.82</ele>
        <time>2019-04-08T08:35:21Z</time>
      </trkpt>
      <trkpt lat="46.0091" lon="6.45105">
        <ele>1724.26</ele>
        <time>2019-04-08T08:35:28Z</time>
      </trkpt>
      <trkpt lat="46.00909" lon="6.45107">
        <ele>1724.74</ele>
        <time>2019-04-08T08:35:30Z</time>
      </trkpt>
      <trkpt lat="46.00904" lon="6.45125">
        <ele>1727.63</ele>
        <time>2019-04-08T08:35:48Z</time>
      </trkpt>
      <trkpt lat="46.00901" lon="6.45141">
        <ele>1730.99</ele>
        <time>2019-04-08T08:36:05Z</time>
      </trkpt>
      <trkpt lat="46.00898" lon="6.45156">
        <ele>1733.88</ele>
        <time>2019-04-08T08:36:22Z</time>
      </trkpt>
      <trkpt lat="46.009" lon="6.45172">
        <ele>1737.24</ele>
        <time>2019-04-08T08:36:41Z</time>
      </trkpt>
      <trkpt lat="46.00899" lon="6.45188">
        <ele>1740.6</ele>
        <time>2019-04-08T08:36:59Z</time>
      </trkpt>
      <trkpt lat="46.00898" lon="6.45199">
        <ele>1743.49</ele>
        <time>2019-04-08T08:37:15Z</time>
      </trkpt>
      <trkpt lat="46.009" lon="6.45209">
        <ele>1745.41</ele>
        <time>2019-04-08T08:37:27Z</time>
      </trkpt>
      <trkpt lat="46.009" lon="6.4521">
        <ele>1745.41</ele>
        <time>2019-04-08T08:37:28Z</time>
      </trkpt>
      <trkpt lat="46.00899" lon="6.45211">
        <ele>1745.41</ele>
        <time>2019-04-08T08:37:29Z</time>
      </trkpt>
      <trkpt lat="46.009" lon="6.45232">
        <ele>1748.29</ele>
        <time>2019-04-08T08:37:51Z</time>
      </trkpt>
      <trkpt lat="46.00895" lon="6.45248">
        <ele>1751.66</ele>
        <time>2019-04-08T08:38:10Z</time>
      </trkpt>
      <trkpt lat="46.0089" lon="6.45266">
        <ele>1754.54</ele>
        <time>2019-04-08T08:38:28Z</time>
      </trkpt>
      <trkpt lat="46.00885" lon="6.45284">
        <ele>1757.91</ele>
        <time>2019-04-08T08:38:48Z</time>
      </trkpt>
      <trkpt lat="46.00884" lon="6.45272">
        <ele>1759.83</ele>
        <time>2019-04-08T08:39:03Z</time>
      </trkpt>
      <trkpt lat="46.0088" lon="6.45258">
        <ele>1762.23</ele>
        <time>2019-04-08T08:39:19Z</time>
      </trkpt>
      <trkpt lat="46.00878" lon="6.45246">
        <ele>1763.68</ele>
        <time>2019-04-08T08:39:30Z</time>
      </trkpt>
      <trkpt lat="46.00875" lon="6.45233">
        <ele>1766.08</ele>
        <time>2019-04-08T08:39:44Z</time>
      </trkpt>
      <trkpt lat="46.00871" lon="6.45224">
        <ele>1768</ele>
        <time>2019-04-08T08:39:57Z</time>
      </trkpt>
      <trkpt lat="46.00866" lon="6.45216">
        <ele>1770.41</ele>
        <time>2019-04-08T08:40:08Z</time>
      </trkpt>
      <trkpt lat="46.00859" lon="6.45205">
        <ele>1773.29</ele>
        <time>2019-04-08T08:40:25Z</time>
      </trkpt>
      <trkpt lat="46.00854" lon="6.45201">
        <ele>1776.17</ele>
        <time>2019-04-08T08:40:42Z</time>
      </trkpt>
      <trkpt lat="46.00856" lon="6.45205">
        <ele>1777.13</ele>
        <time>2019-04-08T08:40:48Z</time>
      </trkpt>
      <trkpt lat="46.00856" lon="6.45207">
        <ele>1777.61</ele>
        <time>2019-04-08T08:40:50Z</time>
      </trkpt>
      <trkpt lat="46.00857" lon="6.45211">
        <ele>1778.1</ele>
        <time>2019-04-08T08:40:54Z</time>
      </trkpt>
      <trkpt lat="46.00858" lon="6.45215">
        <ele>1779.06</ele>
        <time>2019-04-08T08:40:58Z</time>
      </trkpt>
      <trkpt lat="46.00859" lon="6.45219">
        <ele>1780.02</ele>
        <time>2019-04-08T08:41:02Z</time>
      </trkpt>
      <trkpt lat="46.00857" lon="6.45233">
        <ele>1782.9</ele>
        <time>2019-04-08T08:41:18Z</time>
      </trkpt>
      <trkpt lat="46.00857" lon="6.45236">
        <ele>1783.38</ele>
        <time>2019-04-08T08:41:21Z</time>
      </trkpt>
      <trkpt lat="46.00852" lon="6.45253">
        <ele>1786.75</ele>
        <time>2019-04-08T08:41:41Z</time>
      </trkpt>
      <trkpt lat="46.00848" lon="6.4525">
        <ele>1787.23</ele>
        <time>2019-04-08T08:41:48Z</time>
      </trkpt>
      <trkpt lat="46.00846" lon="6.45245">
        <ele>1788.19</ele>
        <time>2019-04-08T08:41:55Z</time>
      </trkpt>
      <trkpt lat="46.00843" lon="6.45231">
        <ele>1791.07</ele>
        <time>2019-04-08T08:42:12Z</time>
      </trkpt>
      <trkpt lat="46.00841" lon="6.45242">
        <ele>1793.96</ele>
        <time>2019-04-08T08:42:30Z</time>
      </trkpt>
      <trkpt lat="46.0084" lon="6.45243">
        <ele>1794.44</ele>
        <time>2019-04-08T08:42:31Z</time>
      </trkpt>
      <trkpt lat="46.00834" lon="6.45244">
        <ele>1796.84</ele>
        <time>2019-04-08T08:42:54Z</time>
      </trkpt>
      <trkpt lat="46.00828" lon="6.45236">
        <ele>1800.21</ele>
        <time>2019-04-08T08:43:13Z</time>
      </trkpt>
      <trkpt lat="46.00827" lon="6.45237">
        <ele>1800.21</ele>
        <time>2019-04-08T08:43:14Z</time>
      </trkpt>
      <trkpt lat="46.00826" lon="6.45254">
        <ele>1803.57</ele>
        <time>2019-04-08T08:43:32Z</time>
      </trkpt>
      <trkpt lat="46.00829" lon="6.45259">
        <ele>1804.05</ele>
        <time>2019-04-08T08:43:37Z</time>
      </trkpt>
      <trkpt lat="46.00829" lon="6.45272">
        <ele>1807.42</ele>
        <time>2019-04-08T08:43:53Z</time>
      </trkpt>
      <trkpt lat="46.0083" lon="6.45283">
        <ele>1809.82</ele>
        <time>2019-04-08T08:44:04Z</time>
      </trkpt>
      <trkpt lat="46.00832" lon="6.45293">
        <ele>1811.26</ele>
        <time>2019-04-08T08:44:13Z</time>
      </trkpt>
      <trkpt lat="46.00832" lon="6.45295">
        <ele>1811.74</ele>
        <time>2019-04-08T08:44:15Z</time>
      </trkpt>
      <trkpt lat="46.00827" lon="6.45291">
        <ele>1813.18</ele>
        <time>2019-04-08T08:44:28Z</time>
      </trkpt>
      <trkpt lat="46.00793" lon="6.45245">
        <ele>1814.63</ele>
        <time>2019-04-08T08:45:16Z</time>
      </trkpt>
      <trkpt lat="46.00765" lon="6.45235">
        <ele>1815.59</ele>
        <time>2019-04-08T08:45:46Z</time>
      </trkpt>
      <trkpt lat="46.00764" lon="6.45235">
        <ele>1815.59</ele>
        <time>2019-04-08T08:45:47Z</time>
      </trkpt>
      <trkpt lat="46.00751" lon="6.45235">
        <ele>1817.99</ele>
        <time>2019-04-08T08:46:03Z</time>
      </trkpt>
      <trkpt lat="46.0075" lon="6.45235">
        <ele>1817.99</ele>
        <time>2019-04-08T08:46:04Z</time>
      </trkpt>
      <trkpt lat="46.00736" lon="6.45237">
        <ele>1819.91</ele>
        <time>2019-04-08T08:46:16Z</time>
      </trkpt>
      <trkpt lat="46.00724" lon="6.45236">
        <ele>1822.8</ele>
        <time>2019-04-08T08:46:31Z</time>
      </trkpt>
      <trkpt lat="46.00708" lon="6.45239">
        <ele>1824.72</ele>
        <time>2019-04-08T08:46:46Z</time>
      </trkpt>
      <trkpt lat="46.00695" lon="6.45243">
        <ele>1826.64</ele>
        <time>2019-04-08T08:47:00Z</time>
      </trkpt>
      <trkpt lat="46.00685" lon="6.45245">
        <ele>1829.05</ele>
        <time>2019-04-08T08:47:14Z</time>
      </trkpt>
      <trkpt lat="46.00679" lon="6.45252">
        <ele>1831.45</ele>
        <time>2019-04-08T08:47:28Z</time>
      </trkpt>
      <trkpt lat="46.00675" lon="6.45258">
        <ele>1833.85</ele>
        <time>2019-04-08T08:47:41Z</time>
      </trkpt>
      <trkpt lat="46.0067" lon="6.45266">
        <ele>1836.74</ele>
        <time>2019-04-08T08:47:57Z</time>
      </trkpt>
      <trkpt lat="46.00661" lon="6.45278">
        <ele>1840.1</ele>
        <time>2019-04-08T08:48:16Z</time>
      </trkpt>
      <trkpt lat="46.00651" lon="6.45288">
        <ele>1842.98</ele>
        <time>2019-04-08T08:48:36Z</time>
      </trkpt>
      <trkpt lat="46.00646" lon="6.45291">
        <ele>1843.95</ele>
        <time>2019-04-08T08:48:43Z</time>
      </trkpt>
      <trkpt lat="46.00634" lon="6.45306">
        <ele>1846.83</ele>
        <time>2019-04-08T08:49:02Z</time>
      </trkpt>
      <trkpt lat="46.00625" lon="6.45318">
        <ele>1850.19</ele>
        <time>2019-04-08T08:49:20Z</time>
      </trkpt>
      <trkpt lat="46.00618" lon="6.45329">
        <ele>1853.08</ele>
        <time>2019-04-08T08:49:36Z</time>
      </trkpt>
      <trkpt lat="46.00608" lon="6.45346">
        <ele>1855.96</ele>
        <time>2019-04-08T08:49:56Z</time>
      </trkpt>
      <trkpt lat="46.00601" lon="6.45362">
        <ele>1859.33</ele>
        <time>2019-04-08T08:50:15Z</time>
      </trkpt>
      <trkpt lat="46.00597" lon="6.45377">
        <ele>1862.21</ele>
        <time>2019-04-08T08:50:32Z</time>
      </trkpt>
      <trkpt lat="46.00595" lon="6.45382">
        <ele>1863.17</ele>
        <time>2019-04-08T08:50:37Z</time>
      </trkpt>
      <trkpt lat="46.00594" lon="6.45383">
        <ele>1863.65</ele>
        <time>2019-04-08T08:50:39Z</time>
      </trkpt>
      <trkpt lat="46.0059" lon="6.45402">
        <ele>1866.54</ele>
        <time>2019-04-08T08:50:58Z</time>
      </trkpt>
      <trkpt lat="46.00591" lon="6.45405">
        <ele>1867.02</ele>
        <time>2019-04-08T08:51:01Z</time>
      </trkpt>
      <trkpt lat="46.00591" lon="6.45409">
        <ele>1867.5</ele>
        <time>2019-04-08T08:51:04Z</time>
      </trkpt>
      <trkpt lat="46.00592" lon="6.45425">
        <ele>1870.38</ele>
        <time>2019-04-08T08:51:20Z</time>
      </trkpt>
      <trkpt lat="46.00592" lon="6.45427">
        <ele>1870.38</ele>
        <time>2019-04-08T08:51:22Z</time>
      </trkpt>
      <trkpt lat="46.00592" lon="6.45444">
        <ele>1873.75</ele>
        <time>2019-04-08T08:51:39Z</time>
      </trkpt>
      <trkpt lat="46.00592" lon="6.45448">
        <ele>1874.23</ele>
        <time>2019-04-08T08:51:43Z</time>
      </trkpt>
      <trkpt lat="46.00585" lon="6.45448">
        <ele>1876.63</ele>
        <time>2019-04-08T08:51:57Z</time>
      </trkpt>
      <trkpt lat="46.00579" lon="6.4545">
        <ele>1878.07</ele>
        <time>2019-04-08T08:52:06Z</time>
      </trkpt>
      <trkpt lat="46.00577" lon="6.45452">
        <ele>1879.03</ele>
        <time>2019-04-08T08:52:10Z</time>
      </trkpt>
      <trkpt lat="46.00577" lon="6.45456">
        <ele>1880</ele>
        <time>2019-04-08T08:52:14Z</time>
      </trkpt>
      <trkpt lat="46.0057" lon="6.45476">
        <ele>1882.88</ele>
        <time>2019-04-08T08:52:34Z</time>
      </trkpt>
      <trkpt lat="46.0056" lon="6.45493">
        <ele>1885.76</ele>
        <time>2019-04-08T08:52:53Z</time>
      </trkpt>
      <trkpt lat="46.0055" lon="6.45509">
        <ele>1889.13</ele>
        <time>2019-04-08T08:53:13Z</time>
      </trkpt>
      <trkpt lat="46.00534" lon="6.4552">
        <ele>1892.01</ele>
        <time>2019-04-08T08:53:39Z</time>
      </trkpt>
      <trkpt lat="46.00527" lon="6.45533">
        <ele>1889.61</ele>
        <time>2019-04-08T08:53:46Z</time>
      </trkpt>
      <trkpt lat="46.00503" lon="6.45569">
        <ele>1892.49</ele>
        <time>2019-04-08T08:54:21Z</time>
      </trkpt>
      <trkpt lat="46.00491" lon="6.45589">
        <ele>1895.38</ele>
        <time>2019-04-08T08:54:43Z</time>
      </trkpt>
      <trkpt lat="46.00481" lon="6.45605">
        <ele>1896.34</ele>
        <time>2019-04-08T08:54:57Z</time>
      </trkpt>
      <trkpt lat="46.00481" lon="6.45606">
        <ele>1896.34</ele>
        <time>2019-04-08T08:54:58Z</time>
      </trkpt>
      <trkpt lat="46.0048" lon="6.45606">
        <ele>1896.34</ele>
        <time>2019-04-08T08:54:59Z</time>
      </trkpt>
      <trkpt lat="46.00479" lon="6.45607">
        <ele>1896.34</ele>
        <time>2019-04-08T08:55:00Z</time>
      </trkpt>
      <trkpt lat="46.00478" lon="6.45609">
        <ele>1896.34</ele>
        <time>2019-04-08T08:55:01Z</time>
      </trkpt>
      <trkpt lat="46.00478" lon="6.4561">
        <ele>1896.34</ele>
        <time>2019-04-08T08:55:02Z</time>
      </trkpt>
      <trkpt lat="46.00477" lon="6.45611">
        <ele>1896.34</ele>
        <time>2019-04-08T08:55:03Z</time>
      </trkpt>
      <trkpt lat="46.00476" lon="6.45613">
        <ele>1896.34</ele>
        <time>2019-04-08T08:55:04Z</time>
      </trkpt>
      <trkpt lat="46.00476" lon="6.45614">
        <ele>1896.34</ele>
        <time>2019-04-08T08:55:05Z</time>
      </trkpt>
      <trkpt lat="46.00475" lon="6.45615">
        <ele>1896.34</ele>
        <time>2019-04-08T08:55:06Z</time>
      </trkpt>
      <trkpt lat="46.00474" lon="6.45616">
        <ele>1896.34</ele>
        <time>2019-04-08T08:55:07Z</time>
      </trkpt>
      <trkpt lat="46.00474" lon="6.45617">
        <ele>1896.34</ele>
        <time>2019-04-08T08:55:08Z</time>
      </trkpt>
      <trkpt lat="46.00467" lon="6.45628">
        <ele>1896.34</ele>
        <time>2019-04-08T08:55:17Z</time>
      </trkpt>
      <trkpt lat="46.00466" lon="6.45629">
        <ele>1896.34</ele>
        <time>2019-04-08T08:55:18Z</time>
      </trkpt>
      <trkpt lat="46.00442" lon="6.45654">
        <ele>1899.22</ele>
        <time>2019-04-08T08:55:54Z</time>
      </trkpt>
      <trkpt lat="46.00439" lon="6.45661">
        <ele>1901.14</ele>
        <time>2019-04-08T08:56:02Z</time>
      </trkpt>
      <trkpt lat="46.00434" lon="6.45677">
        <ele>1904.03</ele>
        <time>2019-04-08T08:56:21Z</time>
      </trkpt>
      <trkpt lat="46.00433" lon="6.45679">
        <ele>1904.03</ele>
        <time>2019-04-08T08:56:23Z</time>
      </trkpt>
      <trkpt lat="46.00433" lon="6.45681">
        <ele>1904.51</ele>
        <time>2019-04-08T08:56:25Z</time>
      </trkpt>
      <trkpt lat="46.00432" lon="6.45683">
        <ele>1904.99</ele>
        <time>2019-04-08T08:56:27Z</time>
      </trkpt>
      <trkpt lat="46.00431" lon="6.45684">
        <ele>1904.99</ele>
        <time>2019-04-08T08:56:28Z</time>
      </trkpt>
      <trkpt lat="46.00431" lon="6.45685">
        <ele>1904.99</ele>
        <time>2019-04-08T08:56:29Z</time>
      </trkpt>
      <trkpt lat="46.0043" lon="6.45686">
        <ele>1905.47</ele>
        <time>2019-04-08T08:56:30Z</time>
      </trkpt>
      <trkpt lat="46.00426" lon="6.45697">
        <ele>1907.87</ele>
        <time>2019-04-08T08:56:44Z</time>
      </trkpt>
      <trkpt lat="46.00426" lon="6.45711">
        <ele>1911.24</ele>
        <time>2019-04-08T08:57:00Z</time>
      </trkpt>
      <trkpt lat="46.00424" lon="6.45725">
        <ele>1914.12</ele>
        <time>2019-04-08T08:57:18Z</time>
      </trkpt>
      <trkpt lat="46.00421" lon="6.45739">
        <ele>1917.49</ele>
        <time>2019-04-08T08:57:34Z</time>
      </trkpt>
      <trkpt lat="46.0042" lon="6.45742">
        <ele>1917.97</ele>
        <time>2019-04-08T08:57:37Z</time>
      </trkpt>
      <trkpt lat="46.00418" lon="6.45752">
        <ele>1919.41</ele>
        <time>2019-04-08T08:57:48Z</time>
      </trkpt>
      <trkpt lat="46.00414" lon="6.45768">
        <ele>1922.77</ele>
        <time>2019-04-08T08:58:07Z</time>
      </trkpt>
      <trkpt lat="46.00412" lon="6.45773">
        <ele>1924.22</ele>
        <time>2019-04-08T08:58:12Z</time>
      </trkpt>
      <trkpt lat="46.00411" lon="6.45774">
        <ele>1924.22</ele>
        <time>2019-04-08T08:58:14Z</time>
      </trkpt>
      <trkpt lat="46.00411" lon="6.45776">
        <ele>1924.7</ele>
        <time>2019-04-08T08:58:16Z</time>
      </trkpt>
      <trkpt lat="46.00408" lon="6.45791">
        <ele>1927.58</ele>
        <time>2019-04-08T08:58:32Z</time>
      </trkpt>
      <trkpt lat="46.00404" lon="6.45808">
        <ele>1930.95</ele>
        <time>2019-04-08T08:58:51Z</time>
      </trkpt>
      <trkpt lat="46.00403" lon="6.45821">
        <ele>1933.83</ele>
        <time>2019-04-08T08:59:08Z</time>
      </trkpt>
      <trkpt lat="46.00401" lon="6.45836">
        <ele>1937.19</ele>
        <time>2019-04-08T08:59:25Z</time>
      </trkpt>
      <trkpt lat="46.0039" lon="6.45832">
        <ele>1940.08</ele>
        <time>2019-04-08T08:59:48Z</time>
      </trkpt>
      <trkpt lat="46.00379" lon="6.45826">
        <ele>1942.96</ele>
        <time>2019-04-08T09:00:06Z</time>
      </trkpt>
      <trkpt lat="46.00368" lon="6.45825">
        <ele>1946.33</ele>
        <time>2019-04-08T09:00:25Z</time>
      </trkpt>
      <trkpt lat="46.00359" lon="6.45823">
        <ele>1949.21</ele>
        <time>2019-04-08T09:00:43Z</time>
      </trkpt>
      <trkpt lat="46.00349" lon="6.45816">
        <ele>1952.57</ele>
        <time>2019-04-08T09:01:02Z</time>
      </trkpt>
      <trkpt lat="46.00339" lon="6.45809">
        <ele>1955.94</ele>
        <time>2019-04-08T09:01:20Z</time>
      </trkpt>
      <trkpt lat="46.00329" lon="6.45798">
        <ele>1958.82</ele>
        <time>2019-04-08T09:01:37Z</time>
      </trkpt>
      <trkpt lat="46.00327" lon="6.45796">
        <ele>1958.82</ele>
        <time>2019-04-08T09:01:40Z</time>
      </trkpt>
      <trkpt lat="46.00316" lon="6.45786">
        <ele>1962.19</ele>
        <time>2019-04-08T09:01:59Z</time>
      </trkpt>
      <trkpt lat="46.00308" lon="6.45778">
        <ele>1965.55</ele>
        <time>2019-04-08T09:02:21Z</time>
      </trkpt>
      <trkpt lat="46.003" lon="6.45771">
        <ele>1967.96</ele>
        <time>2019-04-08T09:02:34Z</time>
      </trkpt>
      <trkpt lat="46.00297" lon="6.45765">
        <ele>1969.4</ele>
        <time>2019-04-08T09:02:42Z</time>
      </trkpt>
      <trkpt lat="46.00291" lon="6.45756">
        <ele>1971.32</ele>
        <time>2019-04-08T09:02:54Z</time>
      </trkpt>
      <trkpt lat="46.0029" lon="6.45762">
        <ele>1973.24</ele>
        <time>2019-04-08T09:03:07Z</time>
      </trkpt>
      <trkpt lat="46.00289" lon="6.45766">
        <ele>1973.72</ele>
        <time>2019-04-08T09:03:11Z</time>
      </trkpt>
      <trkpt lat="46.0029" lon="6.45786">
        <ele>1976.61</ele>
        <time>2019-04-08T09:03:32Z</time>
      </trkpt>
      <trkpt lat="46.00289" lon="6.45788">
        <ele>1976.61</ele>
        <time>2019-04-08T09:03:34Z</time>
      </trkpt>
      <trkpt lat="46.00288" lon="6.45797">
        <ele>1978.53</ele>
        <time>2019-04-08T09:03:43Z</time>
      </trkpt>
      <trkpt lat="46.00288" lon="6.45804">
        <ele>1979.97</ele>
        <time>2019-04-08T09:03:51Z</time>
      </trkpt>
      <trkpt lat="46.00288" lon="6.45806">
        <ele>1979.97</ele>
        <time>2019-04-08T09:03:53Z</time>
      </trkpt>
      <trkpt lat="46.00287" lon="6.4581">
        <ele>1980.93</ele>
        <time>2019-04-08T09:03:57Z</time>
      </trkpt>
      <trkpt lat="46.00286" lon="6.45825">
        <ele>1983.82</ele>
        <time>2019-04-08T09:04:14Z</time>
      </trkpt>
      <trkpt lat="46.00288" lon="6.45826">
        <ele>1983.82</ele>
        <time>2019-04-08T09:05:21Z</time>
      </trkpt>
      <trkpt lat="46.00293" lon="6.45825">
        <ele>1983.82</ele>
        <time>2019-04-08T09:05:34Z</time>
      </trkpt>
      <trkpt lat="46.00293" lon="6.45828">
        <ele>1983.82</ele>
        <time>2019-04-08T09:05:50Z</time>
      </trkpt>
      <trkpt lat="46.0029" lon="6.45822">
        <ele>1983.82</ele>
        <time>2019-04-08T09:06:11Z</time>
      </trkpt>
      <trkpt lat="46.00289" lon="6.45822">
        <ele>1984.3</ele>
        <time>2019-04-08T09:06:48Z</time>
      </trkpt>
      <trkpt lat="46.00286" lon="6.45831">
        <ele>1984.78</ele>
        <time>2019-04-08T09:07:19Z</time>
      </trkpt>
      <trkpt lat="46.00285" lon="6.45845">
        <ele>1988.14</ele>
        <time>2019-04-08T09:07:36Z</time>
      </trkpt>
      <trkpt lat="46.00285" lon="6.45856">
        <ele>1991.03</ele>
        <time>2019-04-08T09:07:50Z</time>
      </trkpt>
      <trkpt lat="46.00285" lon="6.4587">
        <ele>1993.91</ele>
        <time>2019-04-08T09:08:04Z</time>
      </trkpt>
      <trkpt lat="46.00283" lon="6.45879">
        <ele>1995.83</ele>
        <time>2019-04-08T09:08:19Z</time>
      </trkpt>
      <trkpt lat="46.00276" lon="6.4587">
        <ele>1997.76</ele>
        <time>2019-04-08T09:08:34Z</time>
      </trkpt>
      <trkpt lat="46.00271" lon="6.45868">
        <ele>1998.72</ele>
        <time>2019-04-08T09:08:40Z</time>
      </trkpt>
      <trkpt lat="46.00263" lon="6.45862">
        <ele>2001.12</ele>
        <time>2019-04-08T09:08:53Z</time>
      </trkpt>
      <trkpt lat="46.00256" lon="6.45856">
        <ele>2004.01</ele>
        <time>2019-04-08T09:09:08Z</time>
      </trkpt>
      <trkpt lat="46.00248" lon="6.45851">
        <ele>2005.93</ele>
        <time>2019-04-08T09:09:20Z</time>
      </trkpt>
      <trkpt lat="46.00246" lon="6.4585">
        <ele>2006.89</ele>
        <time>2019-04-08T09:09:24Z</time>
      </trkpt>
      <trkpt lat="46.00244" lon="6.45849">
        <ele>2007.37</ele>
        <time>2019-04-08T09:09:26Z</time>
      </trkpt>
      <trkpt lat="46.00236" lon="6.45844">
        <ele>2009.77</ele>
        <time>2019-04-08T09:09:41Z</time>
      </trkpt>
      <trkpt lat="46.00228" lon="6.45834">
        <ele>2012.18</ele>
        <time>2019-04-08T09:09:57Z</time>
      </trkpt>
      <trkpt lat="46.00225" lon="6.4583">
        <ele>2013.14</ele>
        <time>2019-04-08T09:10:03Z</time>
      </trkpt>
      <trkpt lat="46.00225" lon="6.45828">
        <ele>2013.62</ele>
        <time>2019-04-08T09:10:05Z</time>
      </trkpt>
      <trkpt lat="46.00227" lon="6.45835">
        <ele>2016.5</ele>
        <time>2019-04-08T09:10:26Z</time>
      </trkpt>
      <trkpt lat="46.00226" lon="6.45853">
        <ele>2019.87</ele>
        <time>2019-04-08T09:10:48Z</time>
      </trkpt>
      <trkpt lat="46.00226" lon="6.4586">
        <ele>2021.31</ele>
        <time>2019-04-08T09:10:55Z</time>
      </trkpt>
      <trkpt lat="46.00226" lon="6.45876">
        <ele>2024.67</ele>
        <time>2019-04-08T09:11:12Z</time>
      </trkpt>
      <trkpt lat="46.00228" lon="6.4589">
        <ele>2027.56</ele>
        <time>2019-04-08T09:11:30Z</time>
      </trkpt>
      <trkpt lat="46.00231" lon="6.45905">
        <ele>2030.44</ele>
        <time>2019-04-08T09:11:48Z</time>
      </trkpt>
      <trkpt lat="46.00232" lon="6.4592">
        <ele>2033.81</ele>
        <time>2019-04-08T09:12:06Z</time>
      </trkpt>
      <trkpt lat="46.00234" lon="6.4593">
        <ele>2036.21</ele>
        <time>2019-04-08T09:12:18Z</time>
      </trkpt>
      <trkpt lat="46.00238" lon="6.45946">
        <ele>2039.09</ele>
        <time>2019-04-08T09:12:36Z</time>
      </trkpt>
      <trkpt lat="46.00238" lon="6.45964">
        <ele>2041.98</ele>
        <time>2019-04-08T09:12:52Z</time>
      </trkpt>
      <trkpt lat="46.00237" lon="6.45965">
        <ele>2042.46</ele>
        <time>2019-04-08T09:12:54Z</time>
      </trkpt>
      <trkpt lat="46.00237" lon="6.45976">
        <ele>2045.82</ele>
        <time>2019-04-08T09:13:08Z</time>
      </trkpt>
      <trkpt lat="46.0023" lon="6.45971">
        <ele>2046.78</ele>
        <time>2019-04-08T09:13:24Z</time>
      </trkpt>
      <trkpt lat="46.00225" lon="6.45966">
        <ele>2050.15</ele>
        <time>2019-04-08T09:13:37Z</time>
      </trkpt>
      <trkpt lat="46.00221" lon="6.45961">
        <ele>2052.07</ele>
        <time>2019-04-08T09:13:49Z</time>
      </trkpt>
      <trkpt lat="46.00219" lon="6.45959">
        <ele>2052.55</ele>
        <time>2019-04-08T09:13:52Z</time>
      </trkpt>
      <trkpt lat="46.00211" lon="6.45953">
        <ele>2055.44</ele>
        <time>2019-04-08T09:14:08Z</time>
      </trkpt>
      <trkpt lat="46.00202" lon="6.45943">
        <ele>2058.32</ele>
        <time>2019-04-08T09:14:26Z</time>
      </trkpt>
      <trkpt lat="46.00192" lon="6.45934">
        <ele>2061.2</ele>
        <time>2019-04-08T09:14:43Z</time>
      </trkpt>
      <trkpt lat="46.00185" lon="6.4593">
        <ele>2063.13</ele>
        <time>2019-04-08T09:14:55Z</time>
      </trkpt>
      <trkpt lat="46.00183" lon="6.45929">
        <ele>2063.61</ele>
        <time>2019-04-08T09:14:58Z</time>
      </trkpt>
      <trkpt lat="46.00185" lon="6.45938">
        <ele>2066.97</ele>
        <time>2019-04-08T09:15:14Z</time>
      </trkpt>
      <trkpt lat="46.00187" lon="6.45943">
        <ele>2067.45</ele>
        <time>2019-04-08T09:15:19Z</time>
      </trkpt>
      <trkpt lat="46.00191" lon="6.45962">
        <ele>2070.82</ele>
        <time>2019-04-08T09:15:38Z</time>
      </trkpt>
      <trkpt lat="46.00192" lon="6.45975">
        <ele>2073.7</ele>
        <time>2019-04-08T09:15:54Z</time>
      </trkpt>
      <trkpt lat="46.00192" lon="6.45976">
        <ele>2073.7</ele>
        <time>2019-04-08T09:15:55Z</time>
      </trkpt>
      <trkpt lat="46.00195" lon="6.45992">
        <ele>2076.59</ele>
        <time>2019-04-08T09:16:13Z</time>
      </trkpt>
      <trkpt lat="46.00196" lon="6.45997">
        <ele>2077.55</ele>
        <time>2019-04-08T09:16:18Z</time>
      </trkpt>
      <trkpt lat="46.00191" lon="6.46003">
        <ele>2080.43</ele>
        <time>2019-04-08T09:16:40Z</time>
      </trkpt>
      <trkpt lat="46.00191" lon="6.46002">
        <ele>2080.43</ele>
        <time>2019-04-08T09:16:41Z</time>
      </trkpt>
      <trkpt lat="46.00182" lon="6.45991">
        <ele>2083.31</ele>
        <time>2019-04-08T09:17:00Z</time>
      </trkpt>
      <trkpt lat="46.00169" lon="6.45979">
        <ele>2086.2</ele>
        <time>2019-04-08T09:17:24Z</time>
      </trkpt>
      <trkpt lat="46.00163" lon="6.45974">
        <ele>2088.6</ele>
        <time>2019-04-08T09:17:36Z</time>
      </trkpt>
      <trkpt lat="46.00161" lon="6.45973">
        <ele>2088.6</ele>
        <time>2019-04-08T09:17:38Z</time>
      </trkpt>
      <trkpt lat="46.00154" lon="6.45965">
        <ele>2091</ele>
        <time>2019-04-08T09:17:50Z</time>
      </trkpt>
      <trkpt lat="46.00153" lon="6.45964">
        <ele>2091</ele>
        <time>2019-04-08T09:17:52Z</time>
      </trkpt>
      <trkpt lat="46.00145" lon="6.45954">
        <ele>2094.37</ele>
        <time>2019-04-08T09:18:12Z</time>
      </trkpt>
      <trkpt lat="46.00145" lon="6.45959">
        <ele>2097.25</ele>
        <time>2019-04-08T09:18:26Z</time>
      </trkpt>
      <trkpt lat="46.00145" lon="6.45966">
        <ele>2098.21</ele>
        <time>2019-04-08T09:18:34Z</time>
      </trkpt>
      <trkpt lat="46.00144" lon="6.45977">
        <ele>2100.62</ele>
        <time>2019-04-08T09:18:46Z</time>
      </trkpt>
      <trkpt lat="46.0014" lon="6.45973">
        <ele>2101.58</ele>
        <time>2019-04-08T09:18:53Z</time>
      </trkpt>
      <trkpt lat="46.00136" lon="6.4597">
        <ele>2102.54</ele>
        <time>2019-04-08T09:19:01Z</time>
      </trkpt>
      <trkpt lat="46.00133" lon="6.45967">
        <ele>2103.98</ele>
        <time>2019-04-08T09:19:08Z</time>
      </trkpt>
      <trkpt lat="46.00129" lon="6.45959">
        <ele>2106.87</ele>
        <time>2019-04-08T09:19:33Z</time>
      </trkpt>
      <trkpt lat="46.00131" lon="6.45975">
        <ele>2109.75</ele>
        <time>2019-04-08T09:19:57Z</time>
      </trkpt>
      <trkpt lat="46.00131" lon="6.45982">
        <ele>2111.19</ele>
        <time>2019-04-08T09:20:05Z</time>
      </trkpt>
      <trkpt lat="46.00126" lon="6.45984">
        <ele>2113.12</ele>
        <time>2019-04-08T09:20:30Z</time>
      </trkpt>
      <trkpt lat="46.00121" lon="6.45975">
        <ele>2116.48</ele>
        <time>2019-04-08T09:20:50Z</time>
      </trkpt>
      <trkpt lat="46.00121" lon="6.46005">
        <ele>2119.36</ele>
        <time>2019-04-08T09:21:31Z</time>
      </trkpt>
      <trkpt lat="46.00127" lon="6.4602">
        <ele>2122.25</ele>
        <time>2019-04-08T09:21:51Z</time>
      </trkpt>
      <trkpt lat="46.00132" lon="6.46029">
        <ele>2125.61</ele>
        <time>2019-04-08T09:22:10Z</time>
      </trkpt>
      <trkpt lat="46.00133" lon="6.46037">
        <ele>2128.5</ele>
        <time>2019-04-08T09:23:02Z</time>
      </trkpt>
      <trkpt lat="46.00133" lon="6.46045">
        <ele>2131.38</ele>
        <time>2019-04-08T09:23:18Z</time>
      </trkpt>
      <trkpt lat="46.00131" lon="6.46047">
        <ele>2132.34</ele>
        <time>2019-04-08T09:23:31Z</time>
      </trkpt>
      <trkpt lat="46.0013" lon="6.46046">
        <ele>2132.34</ele>
        <time>2019-04-08T09:23:32Z</time>
      </trkpt>
      <trkpt lat="46.00125" lon="6.46041">
        <ele>2133.3</ele>
        <time>2019-04-08T09:23:38Z</time>
      </trkpt>
      <trkpt lat="46.00123" lon="6.46039">
        <ele>2133.78</ele>
        <time>2019-04-08T09:23:42Z</time>
      </trkpt>
      <trkpt lat="46.00123" lon="6.46038">
        <ele>2133.78</ele>
        <time>2019-04-08T09:23:43Z</time>
      </trkpt>
      <trkpt lat="46.00121" lon="6.46036">
        <ele>2136.19</ele>
        <time>2019-04-08T09:24:05Z</time>
      </trkpt>
      <trkpt lat="46.00115" lon="6.46045">
        <ele>2139.55</ele>
        <time>2019-04-08T09:24:36Z</time>
      </trkpt>
      <trkpt lat="46.00112" lon="6.4604">
        <ele>2140.99</ele>
        <time>2019-04-08T09:24:51Z</time>
      </trkpt>
      <trkpt lat="46.00109" lon="6.46038">
        <ele>2141.47</ele>
        <time>2019-04-08T09:24:56Z</time>
      </trkpt>
      <trkpt lat="46.00112" lon="6.46039">
        <ele>2142.44</ele>
        <time>2019-04-08T09:24:59Z</time>
      </trkpt>
      <trkpt lat="46.00115" lon="6.46042">
        <ele>2142.44</ele>
        <time>2019-04-08T09:25:08Z</time>
      </trkpt>
      <trkpt lat="46.00118" lon="6.46056">
        <ele>2145.8</ele>
        <time>2019-04-08T09:25:34Z</time>
      </trkpt>
      <trkpt lat="46.00115" lon="6.46058">
        <ele>2147.72</ele>
        <time>2019-04-08T09:26:13Z</time>
      </trkpt>
      <trkpt lat="46.00115" lon="6.46057">
        <ele>2148.2</ele>
        <time>2019-04-08T09:26:19Z</time>
      </trkpt>
      <trkpt lat="46.00117" lon="6.46065">
        <ele>2151.09</ele>
        <time>2019-04-08T09:26:49Z</time>
      </trkpt>
      <trkpt lat="46.00121" lon="6.46072">
        <ele>2153.01</ele>
        <time>2019-04-08T09:27:04Z</time>
      </trkpt>
      <trkpt lat="46.00123" lon="6.46074">
        <ele>2153.01</ele>
        <time>2019-04-08T09:27:07Z</time>
      </trkpt>
      <trkpt lat="46.00124" lon="6.46078">
        <ele>2153.97</ele>
        <time>2019-04-08T09:27:16Z</time>
      </trkpt>
      <trkpt lat="46.00123" lon="6.46079">
        <ele>2153.97</ele>
        <time>2019-04-08T09:27:17Z</time>
      </trkpt>
      <trkpt lat="46.00123" lon="6.46079">
        <ele>2153.97</ele>
        <time>2019-04-08T09:27:23Z</time>
      </trkpt>
      <trkpt lat="46.00113" lon="6.46067">
        <ele>2157.34</ele>
        <time>2019-04-08T09:27:52Z</time>
      </trkpt>
      <trkpt lat="46.00114" lon="6.46067">
        <ele>2157.82</ele>
        <time>2019-04-08T09:27:57Z</time>
      </trkpt>
      <trkpt lat="46.00111" lon="6.46057">
        <ele>2160.7</ele>
        <time>2019-04-08T09:28:31Z</time>
      </trkpt>
      <trkpt lat="46.00112" lon="6.46076">
        <ele>2163.58</ele>
        <time>2019-04-08T09:29:27Z</time>
      </trkpt>
      <trkpt lat="46.00114" lon="6.46085">
        <ele>2165.99</ele>
        <time>2019-04-08T09:29:46Z</time>
      </trkpt>
      <trkpt lat="46.00113" lon="6.46087">
        <ele>2166.47</ele>
        <time>2019-04-08T09:29:58Z</time>
      </trkpt>
      <trkpt lat="46.00105" lon="6.46078">
        <ele>2166.95</ele>
        <time>2019-04-08T09:30:19Z</time>
      </trkpt>
      <trkpt lat="46.00103" lon="6.46069">
        <ele>2169.83</ele>
        <time>2019-04-08T09:30:55Z</time>
      </trkpt>
      <trkpt lat="46.00102" lon="6.46075">
        <ele>2173.2</ele>
        <time>2019-04-08T09:31:30Z</time>
      </trkpt>
      <trkpt lat="46.00102" lon="6.46087">
        <ele>2176.08</ele>
        <time>2019-04-08T09:32:01Z</time>
      </trkpt>
      <trkpt lat="46.00102" lon="6.4609">
        <ele>2176.56</ele>
        <time>2019-04-08T09:32:08Z</time>
      </trkpt>
      <trkpt lat="46.00102" lon="6.46091">
        <ele>2176.56</ele>
        <time>2019-04-08T09:32:20Z</time>
      </trkpt>
      <trkpt lat="46.00095" lon="6.46079">
        <ele>2179.93</ele>
        <time>2019-04-08T09:33:16Z</time>
      </trkpt>
      <trkpt lat="46.00096" lon="6.46094">
        <ele>2182.81</ele>
        <time>2019-04-08T09:34:02Z</time>
      </trkpt>
      <trkpt lat="46.00092" lon="6.46097">
        <ele>2185.21</ele>
        <time>2019-04-08T09:34:28Z</time>
      </trkpt>
      <trkpt lat="46.00089" lon="6.46093">
        <ele>2184.73</ele>
        <time>2019-04-08T09:34:42Z</time>
      </trkpt>
      <trkpt lat="46.00087" lon="6.4609">
        <ele>2185.21</ele>
        <time>2019-04-08T09:34:56Z</time>
      </trkpt>
      <trkpt lat="46.00087" lon="6.4609">
        <ele>2185.69</ele>
        <time>2019-04-08T09:34:59Z</time>
      </trkpt>
      <trkpt lat="46.00085" lon="6.46089">
        <ele>2188.58</ele>
        <time>2019-04-08T09:35:47Z</time>
      </trkpt>
      <trkpt lat="46.00086" lon="6.46098">
        <ele>2191.46</ele>
        <time>2019-04-08T09:36:21Z</time>
      </trkpt>
      <trkpt lat="46.0009" lon="6.46114">
        <ele>2194.83</ele>
        <time>2019-04-08T09:36:59Z</time>
      </trkpt>
      <trkpt lat="46.00089" lon="6.46124">
        <ele>2197.23</ele>
        <time>2019-04-08T09:37:35Z</time>
      </trkpt>
      <trkpt lat="46.00079" lon="6.46111">
        <ele>2200.11</ele>
        <time>2019-04-08T09:38:13Z</time>
      </trkpt>
      <trkpt lat="46.00078" lon="6.46108">
        <ele>2203</ele>
        <time>2019-04-08T09:39:03Z</time>
      </trkpt>
      <trkpt lat="46.00084" lon="6.46128">
        <ele>2205.88</ele>
        <time>2019-04-08T09:39:49Z</time>
      </trkpt>
      <trkpt lat="46.00093" lon="6.46138">
        <ele>2208.77</ele>
        <time>2019-04-08T09:40:24Z</time>
      </trkpt>
      <trkpt lat="46.00101" lon="6.46148">
        <ele>2212.13</ele>
        <time>2019-04-08T09:40:42Z</time>
      </trkpt>
      <trkpt lat="46.00102" lon="6.4615">
        <ele>2212.61</ele>
        <time>2019-04-08T09:40:44Z</time>
      </trkpt>
      <trkpt lat="46.00095" lon="6.46154">
        <ele>2215.5</ele>
        <time>2019-04-08T09:41:06Z</time>
      </trkpt>
      <trkpt lat="46.00093" lon="6.46159">
        <ele>2218.38</ele>
        <time>2019-04-08T09:41:22Z</time>
      </trkpt>
      <trkpt lat="46.00094" lon="6.46169">
        <ele>2221.74</ele>
        <time>2019-04-08T09:41:45Z</time>
      </trkpt>
      <trkpt lat="46.00089" lon="6.46171">
        <ele>2224.63</ele>
        <time>2019-04-08T09:42:08Z</time>
      </trkpt>
      <trkpt lat="46.00082" lon="6.46171">
        <ele>2227.99</ele>
        <time>2019-04-08T09:42:24Z</time>
      </trkpt>
      <trkpt lat="46.00084" lon="6.46181">
        <ele>2230.4</ele>
        <time>2019-04-08T09:42:40Z</time>
      </trkpt>
      <trkpt lat="46.00075" lon="6.46179">
        <ele>2233.28</ele>
        <time>2019-04-08T09:43:01Z</time>
      </trkpt>
      <trkpt lat="46.00078" lon="6.46181">
        <ele>2234.72</ele>
        <time>2019-04-08T09:44:31Z</time>
      </trkpt>
      <trkpt lat="46.00082" lon="6.46182">
        <ele>2233.76</ele>
        <time>2019-04-08T09:45:13Z</time>
      </trkpt>
      <trkpt lat="46.00081" lon="6.46182">
        <ele>2234.24</ele>
        <time>2019-04-08T09:45:38Z</time>
      </trkpt>
      <trkpt lat="46.00083" lon="6.46182">
        <ele>2234.72</ele>
        <time>2019-04-08T09:46:17Z</time>
      </trkpt>
      <trkpt lat="46.00086" lon="6.46197">
        <ele>2237.61</ele>
        <time>2019-04-08T09:47:41Z</time>
      </trkpt>
      <trkpt lat="46.00077" lon="6.46192">
        <ele>2240.97</ele>
        <time>2019-04-08T09:48:02Z</time>
      </trkpt>
      <trkpt lat="46.00072" lon="6.46193">
        <ele>2243.85</ele>
        <time>2019-04-08T09:48:18Z</time>
      </trkpt>
      <trkpt lat="46.00074" lon="6.46209">
        <ele>2247.22</ele>
        <time>2019-04-08T09:48:37Z</time>
      </trkpt>
      <trkpt lat="46.00071" lon="6.46208">
        <ele>2250.1</ele>
        <time>2019-04-08T09:48:56Z</time>
      </trkpt>
      <trkpt lat="46.00067" lon="6.46207">
        <ele>2251.06</ele>
        <time>2019-04-08T09:49:01Z</time>
      </trkpt>
      <trkpt lat="46.00064" lon="6.46206">
        <ele>2252.03</ele>
        <time>2019-04-08T09:49:06Z</time>
      </trkpt>
      <trkpt lat="46.00063" lon="6.46206">
        <ele>2252.51</ele>
        <time>2019-04-08T09:49:07Z</time>
      </trkpt>
      <trkpt lat="46.00063" lon="6.46215">
        <ele>2255.39</ele>
        <time>2019-04-08T09:49:29Z</time>
      </trkpt>
      <trkpt lat="46.00059" lon="6.46218">
        <ele>2257.31</ele>
        <time>2019-04-08T09:49:48Z</time>
      </trkpt>
      <trkpt lat="46.00052" lon="6.46211">
        <ele>2260.68</ele>
        <time>2019-04-08T09:50:07Z</time>
      </trkpt>
      <trkpt lat="46.00052" lon="6.46218">
        <ele>2263.56</ele>
        <time>2019-04-08T09:50:41Z</time>
      </trkpt>
      <trkpt lat="46.00057" lon="6.46227">
        <ele>2266.45</ele>
        <time>2019-04-08T09:51:10Z</time>
      </trkpt>
      <trkpt lat="46.00057" lon="6.4623">
        <ele>2266.93</ele>
        <time>2019-04-08T09:51:32Z</time>
      </trkpt>
      <trkpt lat="46.00059" lon="6.46231">
        <ele>2267.41</ele>
        <time>2019-04-08T09:51:59Z</time>
      </trkpt>
      <trkpt lat="46.00061" lon="6.46234">
        <ele>2268.85</ele>
        <time>2019-04-08T09:52:54Z</time>
      </trkpt>
      <trkpt lat="46.00065" lon="6.46235">
        <ele>2269.81</ele>
        <time>2019-04-08T09:53:04Z</time>
      </trkpt>
      <trkpt lat="46.00065" lon="6.46234">
        <ele>2269.81</ele>
        <time>2019-04-08T09:53:11Z</time>
      </trkpt>
      <trkpt lat="46.00065" lon="6.46234">
        <ele>2269.81</ele>
        <time>2019-04-08T09:53:19Z</time>
      </trkpt>
      <trkpt lat="46.00066" lon="6.46234">
        <ele>2269.81</ele>
        <time>2019-04-08T09:53:31Z</time>
      </trkpt>
      <trkpt lat="46.00066" lon="6.46232">
        <ele>2269.81</ele>
        <time>2019-04-08T09:54:38Z</time>
      </trkpt>
      <trkpt lat="46.00067" lon="6.46234">
        <ele>2269.33</ele>
        <time>2019-04-08T09:55:00Z</time>
      </trkpt>
      <trkpt lat="46.00064" lon="6.4623">
        <ele>2269.33</ele>
        <time>2019-04-08T09:56:15Z</time>
      </trkpt>
      <trkpt lat="46.00068" lon="6.46237">
        <ele>2268.85</ele>
        <time>2019-04-08T09:57:00Z</time>
      </trkpt>
      <trkpt lat="46.00067" lon="6.46231">
        <ele>2269.33</ele>
        <time>2019-04-08T09:57:51Z</time>
      </trkpt>
      <trkpt lat="46.00067" lon="6.46234">
        <ele>2269.81</ele>
        <time>2019-04-08T09:58:22Z</time>
      </trkpt>
      <trkpt lat="46.00066" lon="6.46231">
        <ele>2269.81</ele>
        <time>2019-04-08T09:59:05Z</time>
      </trkpt>
      <trkpt lat="46.00064" lon="6.4623">
        <ele>2269.81</ele>
        <time>2019-04-08T09:59:47Z</time>
      </trkpt>
      <trkpt lat="46.00068" lon="6.46234">
        <ele>2269.33</ele>
        <time>2019-04-08T10:00:32Z</time>
      </trkpt>
      <trkpt lat="46.00067" lon="6.46233">
        <ele>2268.85</ele>
        <time>2019-04-08T10:01:08Z</time>
      </trkpt>
      <trkpt lat="46.00068" lon="6.46234">
        <ele>2268.85</ele>
        <time>2019-04-08T10:01:26Z</time>
      </trkpt>
      <trkpt lat="46.00067" lon="6.46231">
        <ele>2268.85</ele>
        <time>2019-04-08T10:02:01Z</time>
      </trkpt>
      <trkpt lat="46.00066" lon="6.46231">
        <ele>2268.85</ele>
        <time>2019-04-08T10:02:41Z</time>
      </trkpt>
      <trkpt lat="46.00067" lon="6.46233">
        <ele>2268.85</ele>
        <time>2019-04-08T10:03:28Z</time>
      </trkpt>
      <trkpt lat="46.00069" lon="6.46234">
        <ele>2268.37</ele>
        <time>2019-04-08T10:04:22Z</time>
      </trkpt>
      <trkpt lat="46.00067" lon="6.46232">
        <ele>2268.85</ele>
        <time>2019-04-08T10:05:19Z</time>
      </trkpt>
      <trkpt lat="46.00067" lon="6.46234">
        <ele>2269.33</ele>
        <time>2019-04-08T10:06:24Z</time>
      </trkpt>
      <trkpt lat="46.00067" lon="6.46234">
        <ele>2269.33</ele>
        <time>2019-04-08T10:07:17Z</time>
      </trkpt>
      <trkpt lat="46.00069" lon="6.46236">
        <ele>2268.85</ele>
        <time>2019-04-08T10:09:41Z</time>
      </trkpt>
      <trkpt lat="46.00068" lon="6.46234">
        <ele>2268.85</ele>
        <time>2019-04-08T10:11:03Z</time>
      </trkpt>
      <trkpt lat="46.00068" lon="6.46233">
        <ele>2268.85</ele>
        <time>2019-04-08T10:11:32Z</time>
      </trkpt>
      <trkpt lat="46.00068" lon="6.46235">
        <ele>2269.81</ele>
        <time>2019-04-08T10:11:51Z</time>
      </trkpt>
      <trkpt lat="46.00069" lon="6.46233">
        <ele>2269.81</ele>
        <time>2019-04-08T10:12:08Z</time>
      </trkpt>
      <trkpt lat="46.00068" lon="6.46228">
        <ele>2269.81</ele>
        <time>2019-04-08T10:12:14Z</time>
      </trkpt>
      <trkpt lat="46.00067" lon="6.46224">
        <ele>2268.37</ele>
        <time>2019-04-08T10:12:15Z</time>
      </trkpt>
      <trkpt lat="46.00065" lon="6.46219">
        <ele>2266.93</ele>
        <time>2019-04-08T10:12:16Z</time>
      </trkpt>
      <trkpt lat="46.00062" lon="6.46208">
        <ele>2263.56</ele>
        <time>2019-04-08T10:12:20Z</time>
      </trkpt>
      <trkpt lat="46.0006" lon="6.46204">
        <ele>2261.64</ele>
        <time>2019-04-08T10:12:23Z</time>
      </trkpt>
      <trkpt lat="46.00065" lon="6.46201">
        <ele>2261.16</ele>
        <time>2019-04-08T10:12:27Z</time>
      </trkpt>
      <trkpt lat="46.00069" lon="6.462">
        <ele>2259.24</ele>
        <time>2019-04-08T10:12:28Z</time>
      </trkpt>
      <trkpt lat="46.00072" lon="6.46197">
        <ele>2256.83</ele>
        <time>2019-04-08T10:12:29Z</time>
      </trkpt>
      <trkpt lat="46.00073" lon="6.46188">
        <ele>2252.03</ele>
        <time>2019-04-08T10:12:31Z</time>
      </trkpt>
      <trkpt lat="46.0007" lon="6.46184">
        <ele>2249.62</ele>
        <time>2019-04-08T10:12:32Z</time>
      </trkpt>
      <trkpt lat="46.00068" lon="6.46175">
        <ele>2245.78</ele>
        <time>2019-04-08T10:12:35Z</time>
      </trkpt>
      <trkpt lat="46.0007" lon="6.46172">
        <ele>2243.85</ele>
        <time>2019-04-08T10:12:36Z</time>
      </trkpt>
      <trkpt lat="46.00072" lon="6.46166">
        <ele>2241.45</ele>
        <time>2019-04-08T10:12:37Z</time>
      </trkpt>
      <trkpt lat="46.00072" lon="6.46159">
        <ele>2238.57</ele>
        <time>2019-04-08T10:12:38Z</time>
      </trkpt>
      <trkpt lat="46.00076" lon="6.46156">
        <ele>2236.64</ele>
        <time>2019-04-08T10:12:39Z</time>
      </trkpt>
      <trkpt lat="46.00079" lon="6.46154">
        <ele>2234.24</ele>
        <time>2019-04-08T10:12:40Z</time>
      </trkpt>
      <trkpt lat="46.00081" lon="6.46149">
        <ele>2231.84</ele>
        <time>2019-04-08T10:12:41Z</time>
      </trkpt>
      <trkpt lat="46.00082" lon="6.46142">
        <ele>2228.95</ele>
        <time>2019-04-08T10:12:42Z</time>
      </trkpt>
      <trkpt lat="46.00086" lon="6.46138">
        <ele>2226.07</ele>
        <time>2019-04-08T10:12:43Z</time>
      </trkpt>
      <trkpt lat="46.00088" lon="6.46138">
        <ele>2223.19</ele>
        <time>2019-04-08T10:12:44Z</time>
      </trkpt>
      <trkpt lat="46.0009" lon="6.46134">
        <ele>2219.82</ele>
        <time>2019-04-08T10:12:45Z</time>
      </trkpt>
      <trkpt lat="46.00091" lon="6.46129">
        <ele>2216.46</ele>
        <time>2019-04-08T10:12:46Z</time>
      </trkpt>
      <trkpt lat="46.00093" lon="6.46126">
        <ele>2213.57</ele>
        <time>2019-04-08T10:12:47Z</time>
      </trkpt>
      <trkpt lat="46.00095" lon="6.46123">
        <ele>2211.17</ele>
        <time>2019-04-08T10:12:48Z</time>
      </trkpt>
      <trkpt lat="46.00096" lon="6.46117">
        <ele>2207.81</ele>
        <time>2019-04-08T10:12:49Z</time>
      </trkpt>
      <trkpt lat="46.00094" lon="6.46111">
        <ele>2204.92</ele>
        <time>2019-04-08T10:12:50Z</time>
      </trkpt>
      <trkpt lat="46.00094" lon="6.46107">
        <ele>2203</ele>
        <time>2019-04-08T10:12:51Z</time>
      </trkpt>
      <trkpt lat="46.00094" lon="6.46104">
        <ele>2201.56</ele>
        <time>2019-04-08T10:12:52Z</time>
      </trkpt>
      <trkpt lat="46.00096" lon="6.46102">
        <ele>2199.63</ele>
        <time>2019-04-08T10:12:53Z</time>
      </trkpt>
      <trkpt lat="46.00098" lon="6.46098">
        <ele>2197.71</ele>
        <time>2019-04-08T10:12:54Z</time>
      </trkpt>
      <trkpt lat="46.00101" lon="6.46092">
        <ele>2194.83</ele>
        <time>2019-04-08T10:12:55Z</time>
      </trkpt>
      <trkpt lat="46.00103" lon="6.46089">
        <ele>2191.94</ele>
        <time>2019-04-08T10:12:56Z</time>
      </trkpt>
      <trkpt lat="46.00107" lon="6.46089">
        <ele>2188.1</ele>
        <time>2019-04-08T10:12:57Z</time>
      </trkpt>
      <trkpt lat="46.00109" lon="6.46086">
        <ele>2185.21</ele>
        <time>2019-04-08T10:12:58Z</time>
      </trkpt>
      <trkpt lat="46.00112" lon="6.46081">
        <ele>2182.33</ele>
        <time>2019-04-08T10:12:59Z</time>
      </trkpt>
      <trkpt lat="46.00115" lon="6.4608">
        <ele>2178.97</ele>
        <time>2019-04-08T10:13:00Z</time>
      </trkpt>
      <trkpt lat="46.00117" lon="6.46078">
        <ele>2176.08</ele>
        <time>2019-04-08T10:13:01Z</time>
      </trkpt>
      <trkpt lat="46.00119" lon="6.46074">
        <ele>2173.2</ele>
        <time>2019-04-08T10:13:02Z</time>
      </trkpt>
      <trkpt lat="46.00121" lon="6.4607">
        <ele>2169.83</ele>
        <time>2019-04-08T10:13:03Z</time>
      </trkpt>
      <trkpt lat="46.00125" lon="6.46065">
        <ele>2166.47</ele>
        <time>2019-04-08T10:13:04Z</time>
      </trkpt>
      <trkpt lat="46.00128" lon="6.4606">
        <ele>2163.58</ele>
        <time>2019-04-08T10:13:05Z</time>
      </trkpt>
      <trkpt lat="46.00131" lon="6.4605">
        <ele>2160.22</ele>
        <time>2019-04-08T10:13:06Z</time>
      </trkpt>
      <trkpt lat="46.00134" lon="6.46043">
        <ele>2156.37</ele>
        <time>2019-04-08T10:13:07Z</time>
      </trkpt>
      <trkpt lat="46.00136" lon="6.46035">
        <ele>2151.09</ele>
        <time>2019-04-08T10:13:08Z</time>
      </trkpt>
      <trkpt lat="46.00138" lon="6.46028">
        <ele>2148.2</ele>
        <time>2019-04-08T10:13:09Z</time>
      </trkpt>
      <trkpt lat="46.00141" lon="6.46022">
        <ele>2143.4</ele>
        <time>2019-04-08T10:13:10Z</time>
      </trkpt>
      <trkpt lat="46.00144" lon="6.46013">
        <ele>2140.03</ele>
        <time>2019-04-08T10:13:11Z</time>
      </trkpt>
      <trkpt lat="46.00149" lon="6.46007">
        <ele>2135.71</ele>
        <time>2019-04-08T10:13:12Z</time>
      </trkpt>
      <trkpt lat="46.00152" lon="6.45999">
        <ele>2131.38</ele>
        <time>2019-04-08T10:13:13Z</time>
      </trkpt>
      <trkpt lat="46.00153" lon="6.45987">
        <ele>2126.57</ele>
        <time>2019-04-08T10:13:14Z</time>
      </trkpt>
      <trkpt lat="46.00157" lon="6.45979">
        <ele>2123.21</ele>
        <time>2019-04-08T10:13:15Z</time>
      </trkpt>
      <trkpt lat="46.00162" lon="6.45976">
        <ele>2118.4</ele>
        <time>2019-04-08T10:13:16Z</time>
      </trkpt>
      <trkpt lat="46.00168" lon="6.4598">
        <ele>2114.56</ele>
        <time>2019-04-08T10:13:17Z</time>
      </trkpt>
      <trkpt lat="46.0017" lon="6.45972">
        <ele>2110.23</ele>
        <time>2019-04-08T10:13:18Z</time>
      </trkpt>
      <trkpt lat="46.00173" lon="6.4597">
        <ele>2105.91</ele>
        <time>2019-04-08T10:13:19Z</time>
      </trkpt>
      <trkpt lat="46.00177" lon="6.45964">
        <ele>2102.06</ele>
        <time>2019-04-08T10:13:20Z</time>
      </trkpt>
      <trkpt lat="46.00182" lon="6.45959">
        <ele>2098.7</ele>
        <time>2019-04-08T10:13:21Z</time>
      </trkpt>
      <trkpt lat="46.00187" lon="6.4595">
        <ele>2094.37</ele>
        <time>2019-04-08T10:13:22Z</time>
      </trkpt>
      <trkpt lat="46.0019" lon="6.45942">
        <ele>2090.04</ele>
        <time>2019-04-08T10:13:23Z</time>
      </trkpt>
      <trkpt lat="46.00195" lon="6.45935">
        <ele>2085.24</ele>
        <time>2019-04-08T10:13:24Z</time>
      </trkpt>
      <trkpt lat="46.00203" lon="6.45929">
        <ele>2080.91</ele>
        <time>2019-04-08T10:13:25Z</time>
      </trkpt>
      <trkpt lat="46.00209" lon="6.4592">
        <ele>2076.59</ele>
        <time>2019-04-08T10:13:26Z</time>
      </trkpt>
      <trkpt lat="46.00211" lon="6.45909">
        <ele>2071.78</ele>
        <time>2019-04-08T10:13:27Z</time>
      </trkpt>
      <trkpt lat="46.00213" lon="6.45897">
        <ele>2066.01</ele>
        <time>2019-04-08T10:13:28Z</time>
      </trkpt>
      <trkpt lat="46.00219" lon="6.45884">
        <ele>2061.2</ele>
        <time>2019-04-08T10:13:29Z</time>
      </trkpt>
      <trkpt lat="46.00226" lon="6.45889">
        <ele>2056.4</ele>
        <time>2019-04-08T10:13:30Z</time>
      </trkpt>
      <trkpt lat="46.00231" lon="6.45885">
        <ele>2051.11</ele>
        <time>2019-04-08T10:13:31Z</time>
      </trkpt>
      <trkpt lat="46.00234" lon="6.45875">
        <ele>2045.82</ele>
        <time>2019-04-08T10:13:32Z</time>
      </trkpt>
      <trkpt lat="46.00234" lon="6.45863">
        <ele>2040.05</ele>
        <time>2019-04-08T10:13:33Z</time>
      </trkpt>
      <trkpt lat="46.00236" lon="6.45856">
        <ele>2035.25</ele>
        <time>2019-04-08T10:13:34Z</time>
      </trkpt>
      <trkpt lat="46.00239" lon="6.45848">
        <ele>2030.92</ele>
        <time>2019-04-08T10:13:35Z</time>
      </trkpt>
      <trkpt lat="46.00246" lon="6.45839">
        <ele>2027.08</ele>
        <time>2019-04-08T10:13:36Z</time>
      </trkpt>
      <trkpt lat="46.00252" lon="6.45826">
        <ele>2022.75</ele>
        <time>2019-04-08T10:13:37Z</time>
      </trkpt>
      <trkpt lat="46.00262" lon="6.45825">
        <ele>2016.02</ele>
        <time>2019-04-08T10:13:38Z</time>
      </trkpt>
      <trkpt lat="46.00271" lon="6.45819">
        <ele>2010.73</ele>
        <time>2019-04-08T10:13:39Z</time>
      </trkpt>
      <trkpt lat="46.0028" lon="6.45812">
        <ele>2006.89</ele>
        <time>2019-04-08T10:13:40Z</time>
      </trkpt>
      <trkpt lat="46.00288" lon="6.45801">
        <ele>2001.12</ele>
        <time>2019-04-08T10:13:41Z</time>
      </trkpt>
      <trkpt lat="46.00299" lon="6.45794">
        <ele>1995.35</ele>
        <time>2019-04-08T10:13:42Z</time>
      </trkpt>
      <trkpt lat="46.0031" lon="6.45787">
        <ele>1989.59</ele>
        <time>2019-04-08T10:13:43Z</time>
      </trkpt>
      <trkpt lat="46.00318" lon="6.45775">
        <ele>1983.82</ele>
        <time>2019-04-08T10:13:44Z</time>
      </trkpt>
      <trkpt lat="46.00327" lon="6.45762">
        <ele>1977.09</ele>
        <time>2019-04-08T10:13:45Z</time>
      </trkpt>
      <trkpt lat="46.00338" lon="6.45759">
        <ele>1970.84</ele>
        <time>2019-04-08T10:13:46Z</time>
      </trkpt>
      <trkpt lat="46.0035" lon="6.4576">
        <ele>1965.07</ele>
        <time>2019-04-08T10:13:47Z</time>
      </trkpt>
      <trkpt lat="46.0036" lon="6.45759">
        <ele>1961.71</ele>
        <time>2019-04-08T10:13:48Z</time>
      </trkpt>
      <trkpt lat="46.00371" lon="6.45755">
        <ele>1956.42</ele>
        <time>2019-04-08T10:13:49Z</time>
      </trkpt>
      <trkpt lat="46.00383" lon="6.45751">
        <ele>1951.13</ele>
        <time>2019-04-08T10:13:50Z</time>
      </trkpt>
      <trkpt lat="46.00394" lon="6.45743">
        <ele>1945.85</ele>
        <time>2019-04-08T10:13:51Z</time>
      </trkpt>
      <trkpt lat="46.00402" lon="6.45734">
        <ele>1940.56</ele>
        <time>2019-04-08T10:13:52Z</time>
      </trkpt>
      <trkpt lat="46.00413" lon="6.45724">
        <ele>1935.27</ele>
        <time>2019-04-08T10:13:53Z</time>
      </trkpt>
      <trkpt lat="46.00422" lon="6.45713">
        <ele>1931.43</ele>
        <time>2019-04-08T10:13:54Z</time>
      </trkpt>
      <trkpt lat="46.00428" lon="6.45698">
        <ele>1927.58</ele>
        <time>2019-04-08T10:13:55Z</time>
      </trkpt>
      <trkpt lat="46.00436" lon="6.45686">
        <ele>1922.29</ele>
        <time>2019-04-08T10:13:56Z</time>
      </trkpt>
      <trkpt lat="46.00445" lon="6.45673">
        <ele>1917.97</ele>
        <time>2019-04-08T10:13:57Z</time>
      </trkpt>
      <trkpt lat="46.00453" lon="6.45658">
        <ele>1914.6</ele>
        <time>2019-04-08T10:13:58Z</time>
      </trkpt>
      <trkpt lat="46.00462" lon="6.45646">
        <ele>1909.32</ele>
        <time>2019-04-08T10:13:59Z</time>
      </trkpt>
      <trkpt lat="46.00471" lon="6.45633">
        <ele>1904.51</ele>
        <time>2019-04-08T10:14:00Z</time>
      </trkpt>
      <trkpt lat="46.00478" lon="6.45618">
        <ele>1900.18</ele>
        <time>2019-04-08T10:14:01Z</time>
      </trkpt>
      <trkpt lat="46.00485" lon="6.45606">
        <ele>1895.38</ele>
        <time>2019-04-08T10:14:02Z</time>
      </trkpt>
      <trkpt lat="46.0049" lon="6.45596">
        <ele>1892.97</ele>
        <time>2019-04-08T10:14:03Z</time>
      </trkpt>
      <trkpt lat="46.00495" lon="6.45586">
        <ele>1892.97</ele>
        <time>2019-04-08T10:14:04Z</time>
      </trkpt>
      <trkpt lat="46.00508" lon="6.45565">
        <ele>1894.42</ele>
        <time>2019-04-08T10:14:07Z</time>
      </trkpt>
      <trkpt lat="46.00534" lon="6.4553">
        <ele>1891.05</ele>
        <time>2019-04-08T10:14:13Z</time>
      </trkpt>
      <trkpt lat="46.00549" lon="6.45512">
        <ele>1888.17</ele>
        <time>2019-04-08T10:14:16Z</time>
      </trkpt>
      <trkpt lat="46.00553" lon="6.45513">
        <ele>1889.13</ele>
        <time>2019-04-08T10:14:21Z</time>
      </trkpt>
      <trkpt lat="46.00554" lon="6.45514">
        <ele>1889.13</ele>
        <time>2019-04-08T10:14:22Z</time>
      </trkpt>
      <trkpt lat="46.00545" lon="6.45523">
        <ele>1889.61</ele>
        <time>2019-04-08T10:15:17Z</time>
      </trkpt>
      <trkpt lat="46.00545" lon="6.45522">
        <ele>1889.61</ele>
        <time>2019-04-08T10:15:33Z</time>
      </trkpt>
      <trkpt lat="46.00543" lon="6.45524">
        <ele>1889.61</ele>
        <time>2019-04-08T10:15:54Z</time>
      </trkpt>
      <trkpt lat="46.00539" lon="6.45525">
        <ele>1889.61</ele>
        <time>2019-04-08T10:16:15Z</time>
      </trkpt>
      <trkpt lat="46.00541" lon="6.45521">
        <ele>1890.09</ele>
        <time>2019-04-08T10:16:39Z</time>
      </trkpt>
      <trkpt lat="46.00541" lon="6.45519">
        <ele>1890.57</ele>
        <time>2019-04-08T10:17:07Z</time>
      </trkpt>
      <trkpt lat="46.00545" lon="6.45514">
        <ele>1890.09</ele>
        <time>2019-04-08T10:17:14Z</time>
      </trkpt>
      <trkpt lat="46.00547" lon="6.45514">
        <ele>1890.09</ele>
        <time>2019-04-08T10:17:15Z</time>
      </trkpt>
      <trkpt lat="46.00549" lon="6.45513">
        <ele>1889.61</ele>
        <time>2019-04-08T10:17:16Z</time>
      </trkpt>
      <trkpt lat="46.00551" lon="6.45511">
        <ele>1889.61</ele>
        <time>2019-04-08T10:17:17Z</time>
      </trkpt>
      <trkpt lat="46.00554" lon="6.45509">
        <ele>1889.13</ele>
        <time>2019-04-08T10:17:18Z</time>
      </trkpt>
      <trkpt lat="46.00564" lon="6.45496">
        <ele>1888.17</ele>
        <time>2019-04-08T10:17:21Z</time>
      </trkpt>
      <trkpt lat="46.00568" lon="6.45488">
        <ele>1887.21</ele>
        <time>2019-04-08T10:17:22Z</time>
      </trkpt>
      <trkpt lat="46.00572" lon="6.45479">
        <ele>1885.28</ele>
        <time>2019-04-08T10:17:23Z</time>
      </trkpt>
      <trkpt lat="46.00575" lon="6.4547">
        <ele>1883.36</ele>
        <time>2019-04-08T10:17:24Z</time>
      </trkpt>
      <trkpt lat="46.00578" lon="6.45462">
        <ele>1882.4</ele>
        <time>2019-04-08T10:17:25Z</time>
      </trkpt>
      <trkpt lat="46.0058" lon="6.45453">
        <ele>1880.48</ele>
        <time>2019-04-08T10:17:26Z</time>
      </trkpt>
      <trkpt lat="46.0058" lon="6.45445">
        <ele>1880</ele>
        <time>2019-04-08T10:17:27Z</time>
      </trkpt>
      <trkpt lat="46.00581" lon="6.45437">
        <ele>1879.03</ele>
        <time>2019-04-08T10:17:28Z</time>
      </trkpt>
      <trkpt lat="46.00588" lon="6.45402">
        <ele>1875.19</ele>
        <time>2019-04-08T10:17:32Z</time>
      </trkpt>
      <trkpt lat="46.00596" lon="6.45382">
        <ele>1871.34</ele>
        <time>2019-04-08T10:17:34Z</time>
      </trkpt>
      <trkpt lat="46.00601" lon="6.45371">
        <ele>1868.46</ele>
        <time>2019-04-08T10:17:35Z</time>
      </trkpt>
      <trkpt lat="46.00606" lon="6.45359">
        <ele>1864.61</ele>
        <time>2019-04-08T10:17:36Z</time>
      </trkpt>
      <trkpt lat="46.00611" lon="6.45347">
        <ele>1861.25</ele>
        <time>2019-04-08T10:17:37Z</time>
      </trkpt>
      <trkpt lat="46.00616" lon="6.45335">
        <ele>1858.37</ele>
        <time>2019-04-08T10:17:38Z</time>
      </trkpt>
      <trkpt lat="46.00621" lon="6.45325">
        <ele>1855.96</ele>
        <time>2019-04-08T10:17:39Z</time>
      </trkpt>
      <trkpt lat="46.00634" lon="6.45304">
        <ele>1850.68</ele>
        <time>2019-04-08T10:17:41Z</time>
      </trkpt>
      <trkpt lat="46.00647" lon="6.45288">
        <ele>1845.87</ele>
        <time>2019-04-08T10:17:43Z</time>
      </trkpt>
      <trkpt lat="46.00661" lon="6.45266">
        <ele>1843.95</ele>
        <time>2019-04-08T10:17:46Z</time>
      </trkpt>
      <trkpt lat="46.00669" lon="6.45256">
        <ele>1842.98</ele>
        <time>2019-04-08T10:17:48Z</time>
      </trkpt>
      <trkpt lat="46.00673" lon="6.45251">
        <ele>1841.54</ele>
        <time>2019-04-08T10:17:49Z</time>
      </trkpt>
      <trkpt lat="46.00679" lon="6.45245">
        <ele>1839.14</ele>
        <time>2019-04-08T10:17:50Z</time>
      </trkpt>
      <trkpt lat="46.00686" lon="6.45239">
        <ele>1836.26</ele>
        <time>2019-04-08T10:17:51Z</time>
      </trkpt>
      <trkpt lat="46.00693" lon="6.45234">
        <ele>1834.33</ele>
        <time>2019-04-08T10:17:52Z</time>
      </trkpt>
      <trkpt lat="46.00701" lon="6.45232">
        <ele>1832.41</ele>
        <time>2019-04-08T10:17:53Z</time>
      </trkpt>
      <trkpt lat="46.00708" lon="6.4523">
        <ele>1830.97</ele>
        <time>2019-04-08T10:17:54Z</time>
      </trkpt>
      <trkpt lat="46.00728" lon="6.45226">
        <ele>1828.08</ele>
        <time>2019-04-08T10:17:57Z</time>
      </trkpt>
      <trkpt lat="46.00743" lon="6.45223">
        <ele>1825.2</ele>
        <time>2019-04-08T10:17:59Z</time>
      </trkpt>
      <trkpt lat="46.00751" lon="6.45226">
        <ele>1823.28</ele>
        <time>2019-04-08T10:18:00Z</time>
      </trkpt>
      <trkpt lat="46.00767" lon="6.45233">
        <ele>1819.91</ele>
        <time>2019-04-08T10:18:02Z</time>
      </trkpt>
      <trkpt lat="46.00774" lon="6.45238">
        <ele>1817.03</ele>
        <time>2019-04-08T10:18:03Z</time>
      </trkpt>
      <trkpt lat="46.00786" lon="6.45248">
        <ele>1813.66</ele>
        <time>2019-04-08T10:18:05Z</time>
      </trkpt>
      <trkpt lat="46.00791" lon="6.4525">
        <ele>1812.7</ele>
        <time>2019-04-08T10:18:06Z</time>
      </trkpt>
      <trkpt lat="46.00794" lon="6.45252">
        <ele>1812.22</ele>
        <time>2019-04-08T10:18:07Z</time>
      </trkpt>
      <trkpt lat="46.00795" lon="6.45254">
        <ele>1812.7</ele>
        <time>2019-04-08T10:18:08Z</time>
      </trkpt>
      <trkpt lat="46.00797" lon="6.45256">
        <ele>1812.7</ele>
        <time>2019-04-08T10:18:09Z</time>
      </trkpt>
      <trkpt lat="46.00798" lon="6.45256">
        <ele>1813.18</ele>
        <time>2019-04-08T10:18:10Z</time>
      </trkpt>
      <trkpt lat="46.00798" lon="6.45257">
        <ele>1813.18</ele>
        <time>2019-04-08T10:18:11Z</time>
      </trkpt>
      <trkpt lat="46.00809" lon="6.45257">
        <ele>1813.18</ele>
        <time>2019-04-08T10:18:30Z</time>
      </trkpt>
      <trkpt lat="46.00811" lon="6.45258">
        <ele>1813.18</ele>
        <time>2019-04-08T10:18:32Z</time>
      </trkpt>
      <trkpt lat="46.00812" lon="6.45259">
        <ele>1813.18</ele>
        <time>2019-04-08T10:18:33Z</time>
      </trkpt>
      <trkpt lat="46.00812" lon="6.4526">
        <ele>1813.18</ele>
        <time>2019-04-08T10:18:34Z</time>
      </trkpt>
      <trkpt lat="46.00814" lon="6.45264">
        <ele>1813.18</ele>
        <time>2019-04-08T10:18:51Z</time>
      </trkpt>
      <trkpt lat="46.00815" lon="6.45266">
        <ele>1813.18</ele>
        <time>2019-04-08T10:18:52Z</time>
      </trkpt>
      <trkpt lat="46.00817" lon="6.45266">
        <ele>1812.22</ele>
        <time>2019-04-08T10:18:53Z</time>
      </trkpt>
      <trkpt lat="46.00819" lon="6.45263">
        <ele>1812.22</ele>
        <time>2019-04-08T10:18:54Z</time>
      </trkpt>
      <trkpt lat="46.0082" lon="6.45258">
        <ele>1810.3</ele>
        <time>2019-04-08T10:18:55Z</time>
      </trkpt>
      <trkpt lat="46.00821" lon="6.45253">
        <ele>1808.86</ele>
        <time>2019-04-08T10:18:56Z</time>
      </trkpt>
      <trkpt lat="46.00823" lon="6.45249">
        <ele>1807.42</ele>
        <time>2019-04-08T10:18:57Z</time>
      </trkpt>
      <trkpt lat="46.00826" lon="6.45248">
        <ele>1805.97</ele>
        <time>2019-04-08T10:18:58Z</time>
      </trkpt>
      <trkpt lat="46.0083" lon="6.45245">
        <ele>1803.57</ele>
        <time>2019-04-08T10:18:59Z</time>
      </trkpt>
      <trkpt lat="46.00834" lon="6.45241">
        <ele>1801.17</ele>
        <time>2019-04-08T10:19:00Z</time>
      </trkpt>
      <trkpt lat="46.00836" lon="6.4524">
        <ele>1798.76</ele>
        <time>2019-04-08T10:19:01Z</time>
      </trkpt>
      <trkpt lat="46.00839" lon="6.45241">
        <ele>1796.84</ele>
        <time>2019-04-08T10:19:02Z</time>
      </trkpt>
      <trkpt lat="46.00842" lon="6.45239">
        <ele>1795.4</ele>
        <time>2019-04-08T10:19:03Z</time>
      </trkpt>
      <trkpt lat="46.00847" lon="6.45238">
        <ele>1792.03</ele>
        <time>2019-04-08T10:19:04Z</time>
      </trkpt>
      <trkpt lat="46.00851" lon="6.45241">
        <ele>1790.11</ele>
        <time>2019-04-08T10:19:05Z</time>
      </trkpt>
      <trkpt lat="46.00855" lon="6.45242">
        <ele>1788.19</ele>
        <time>2019-04-08T10:19:06Z</time>
      </trkpt>
      <trkpt lat="46.00858" lon="6.45239">
        <ele>1784.82</ele>
        <time>2019-04-08T10:19:07Z</time>
      </trkpt>
      <trkpt lat="46.00861" lon="6.45235">
        <ele>1782.9</ele>
        <time>2019-04-08T10:19:08Z</time>
      </trkpt>
      <trkpt lat="46.00864" lon="6.45235">
        <ele>1779.54</ele>
        <time>2019-04-08T10:19:09Z</time>
      </trkpt>
      <trkpt lat="46.00867" lon="6.45237">
        <ele>1777.61</ele>
        <time>2019-04-08T10:19:10Z</time>
      </trkpt>
      <trkpt lat="46.0087" lon="6.45236">
        <ele>1775.69</ele>
        <time>2019-04-08T10:19:11Z</time>
      </trkpt>
      <trkpt lat="46.00872" lon="6.45232">
        <ele>1772.81</ele>
        <time>2019-04-08T10:19:12Z</time>
      </trkpt>
      <trkpt lat="46.00875" lon="6.45226">
        <ele>1770.41</ele>
        <time>2019-04-08T10:19:13Z</time>
      </trkpt>
      <trkpt lat="46.00877" lon="6.45223">
        <ele>1768</ele>
        <time>2019-04-08T10:19:14Z</time>
      </trkpt>
      <trkpt lat="46.0088" lon="6.45224">
        <ele>1765.12</ele>
        <time>2019-04-08T10:19:15Z</time>
      </trkpt>
      <trkpt lat="46.00882" lon="6.45226">
        <ele>1763.2</ele>
        <time>2019-04-08T10:19:16Z</time>
      </trkpt>
      <trkpt lat="46.00884" lon="6.45226">
        <ele>1761.75</ele>
        <time>2019-04-08T10:19:17Z</time>
      </trkpt>
      <trkpt lat="46.00888" lon="6.45224">
        <ele>1759.35</ele>
        <time>2019-04-08T10:19:18Z</time>
      </trkpt>
      <trkpt lat="46.00892" lon="6.45225">
        <ele>1755.99</ele>
        <time>2019-04-08T10:19:19Z</time>
      </trkpt>
      <trkpt lat="46.00894" lon="6.4523">
        <ele>1753.58</ele>
        <time>2019-04-08T10:19:20Z</time>
      </trkpt>
      <trkpt lat="46.00897" lon="6.45233">
        <ele>1752.14</ele>
        <time>2019-04-08T10:19:21Z</time>
      </trkpt>
      <trkpt lat="46.009" lon="6.45237">
        <ele>1750.7</ele>
        <time>2019-04-08T10:19:22Z</time>
      </trkpt>
      <trkpt lat="46.00903" lon="6.45242">
        <ele>1747.81</ele>
        <time>2019-04-08T10:19:23Z</time>
      </trkpt>
      <trkpt lat="46.00905" lon="6.45247">
        <ele>1745.89</ele>
        <time>2019-04-08T10:19:24Z</time>
      </trkpt>
      <trkpt lat="46.00908" lon="6.45249">
        <ele>1744.45</ele>
        <time>2019-04-08T10:19:25Z</time>
      </trkpt>
      <trkpt lat="46.00912" lon="6.45247">
        <ele>1742.53</ele>
        <time>2019-04-08T10:19:26Z</time>
      </trkpt>
      <trkpt lat="46.00916" lon="6.45249">
        <ele>1739.64</ele>
        <time>2019-04-08T10:19:27Z</time>
      </trkpt>
      <trkpt lat="46.00918" lon="6.45253">
        <ele>1737.24</ele>
        <time>2019-04-08T10:19:28Z</time>
      </trkpt>
      <trkpt lat="46.0092" lon="6.45257">
        <ele>1734.84</ele>
        <time>2019-04-08T10:19:29Z</time>
      </trkpt>
      <trkpt lat="46.00922" lon="6.45262">
        <ele>1733.39</ele>
        <time>2019-04-08T10:19:30Z</time>
      </trkpt>
      <trkpt lat="46.00924" lon="6.45264">
        <ele>1732.43</ele>
        <time>2019-04-08T10:19:31Z</time>
      </trkpt>
      <trkpt lat="46.00927" lon="6.45264">
        <ele>1730.51</ele>
        <time>2019-04-08T10:19:32Z</time>
      </trkpt>
      <trkpt lat="46.0093" lon="6.45265">
        <ele>1728.59</ele>
        <time>2019-04-08T10:19:33Z</time>
      </trkpt>
      <trkpt lat="46.00934" lon="6.45265">
        <ele>1726.18</ele>
        <time>2019-04-08T10:19:34Z</time>
      </trkpt>
      <trkpt lat="46.00937" lon="6.45265">
        <ele>1723.78</ele>
        <time>2019-04-08T10:19:35Z</time>
      </trkpt>
      <trkpt lat="46.00942" lon="6.45263">
        <ele>1721.38</ele>
        <time>2019-04-08T10:19:36Z</time>
      </trkpt>
      <trkpt lat="46.00945" lon="6.45259">
        <ele>1718.49</ele>
        <time>2019-04-08T10:19:37Z</time>
      </trkpt>
      <trkpt lat="46.00946" lon="6.45255">
        <ele>1716.57</ele>
        <time>2019-04-08T10:19:38Z</time>
      </trkpt>
      <trkpt lat="46.00946" lon="6.45252">
        <ele>1715.61</ele>
        <time>2019-04-08T10:19:39Z</time>
      </trkpt>
      <trkpt lat="46.00948" lon="6.45248">
        <ele>1714.17</ele>
        <time>2019-04-08T10:19:40Z</time>
      </trkpt>
      <trkpt lat="46.00951" lon="6.45247">
        <ele>1713.21</ele>
        <time>2019-04-08T10:19:41Z</time>
      </trkpt>
      <trkpt lat="46.00954" lon="6.45247">
        <ele>1711.28</ele>
        <time>2019-04-08T10:19:42Z</time>
      </trkpt>
      <trkpt lat="46.00956" lon="6.45249">
        <ele>1709.36</ele>
        <time>2019-04-08T10:19:43Z</time>
      </trkpt>
      <trkpt lat="46.0096" lon="6.45248">
        <ele>1708.4</ele>
        <time>2019-04-08T10:19:44Z</time>
      </trkpt>
      <trkpt lat="46.00963" lon="6.45247">
        <ele>1706</ele>
        <time>2019-04-08T10:19:45Z</time>
      </trkpt>
      <trkpt lat="46.00967" lon="6.45248">
        <ele>1703.59</ele>
        <time>2019-04-08T10:19:46Z</time>
      </trkpt>
      <trkpt lat="46.00971" lon="6.45247">
        <ele>1701.19</ele>
        <time>2019-04-08T10:19:47Z</time>
      </trkpt>
      <trkpt lat="46.00975" lon="6.45245">
        <ele>1698.31</ele>
        <time>2019-04-08T10:19:48Z</time>
      </trkpt>
      <trkpt lat="46.00979" lon="6.45245">
        <ele>1694.94</ele>
        <time>2019-04-08T10:19:49Z</time>
      </trkpt>
      <trkpt lat="46.00983" lon="6.45247">
        <ele>1692.54</ele>
        <time>2019-04-08T10:19:50Z</time>
      </trkpt>
      <trkpt lat="46.00987" lon="6.45246">
        <ele>1690.14</ele>
        <time>2019-04-08T10:19:51Z</time>
      </trkpt>
      <trkpt lat="46.00991" lon="6.45248">
        <ele>1687.73</ele>
        <time>2019-04-08T10:19:52Z</time>
      </trkpt>
      <trkpt lat="46.00996" lon="6.4525">
        <ele>1684.37</ele>
        <time>2019-04-08T10:19:53Z</time>
      </trkpt>
      <trkpt lat="46.00999" lon="6.45248">
        <ele>1681.48</ele>
        <time>2019-04-08T10:19:54Z</time>
      </trkpt>
      <trkpt lat="46.01002" lon="6.45246">
        <ele>1679.08</ele>
        <time>2019-04-08T10:19:55Z</time>
      </trkpt>
      <trkpt lat="46.01005" lon="6.45248">
        <ele>1676.2</ele>
        <time>2019-04-08T10:19:56Z</time>
      </trkpt>
      <trkpt lat="46.01007" lon="6.45252">
        <ele>1673.79</ele>
        <time>2019-04-08T10:19:57Z</time>
      </trkpt>
      <trkpt lat="46.01013" lon="6.45264">
        <ele>1670.43</ele>
        <time>2019-04-08T10:19:59Z</time>
      </trkpt>
      <trkpt lat="46.01014" lon="6.45269">
        <ele>1668.02</ele>
        <time>2019-04-08T10:20:00Z</time>
      </trkpt>
      <trkpt lat="46.01015" lon="6.45273">
        <ele>1666.1</ele>
        <time>2019-04-08T10:20:01Z</time>
      </trkpt>
      <trkpt lat="46.01015" lon="6.45276">
        <ele>1665.14</ele>
        <time>2019-04-08T10:20:02Z</time>
      </trkpt>
      <trkpt lat="46.01015" lon="6.45279">
        <ele>1664.66</ele>
        <time>2019-04-08T10:20:03Z</time>
      </trkpt>
      <trkpt lat="46.01015" lon="6.45281">
        <ele>1664.18</ele>
        <time>2019-04-08T10:20:04Z</time>
      </trkpt>
      <trkpt lat="46.01014" lon="6.45284">
        <ele>1663.22</ele>
        <time>2019-04-08T10:21:01Z</time>
      </trkpt>
      <trkpt lat="46.01013" lon="6.45286">
        <ele>1663.22</ele>
        <time>2019-04-08T10:21:22Z</time>
      </trkpt>
      <trkpt lat="46.01013" lon="6.45286">
        <ele>1663.22</ele>
        <time>2019-04-08T10:21:46Z</time>
      </trkpt>
      <trkpt lat="46.01012" lon="6.45283">
        <ele>1663.7</ele>
        <time>2019-04-08T10:22:20Z</time>
      </trkpt>
      <trkpt lat="46.01011" lon="6.45282">
        <ele>1663.7</ele>
        <time>2019-04-08T10:23:25Z</time>
      </trkpt>
      <trkpt lat="46.01011" lon="6.45284">
        <ele>1663.22</ele>
        <time>2019-04-08T10:23:40Z</time>
      </trkpt>
      <trkpt lat="46.01015" lon="6.45281">
        <ele>1661.78</ele>
        <time>2019-04-08T10:23:43Z</time>
      </trkpt>
      <trkpt lat="46.01018" lon="6.45283">
        <ele>1660.33</ele>
        <time>2019-04-08T10:23:44Z</time>
      </trkpt>
      <trkpt lat="46.01021" lon="6.45284">
        <ele>1658.89</ele>
        <time>2019-04-08T10:23:45Z</time>
      </trkpt>
      <trkpt lat="46.01024" lon="6.45283">
        <ele>1657.45</ele>
        <time>2019-04-08T10:23:46Z</time>
      </trkpt>
      <trkpt lat="46.01028" lon="6.45284">
        <ele>1655.53</ele>
        <time>2019-04-08T10:23:47Z</time>
      </trkpt>
      <trkpt lat="46.01031" lon="6.45288">
        <ele>1651.68</ele>
        <time>2019-04-08T10:23:48Z</time>
      </trkpt>
      <trkpt lat="46.01032" lon="6.45292">
        <ele>1649.76</ele>
        <time>2019-04-08T10:23:49Z</time>
      </trkpt>
      <trkpt lat="46.01033" lon="6.45296">
        <ele>1648.8</ele>
        <time>2019-04-08T10:23:50Z</time>
      </trkpt>
      <trkpt lat="46.01037" lon="6.45298">
        <ele>1647.36</ele>
        <time>2019-04-08T10:23:51Z</time>
      </trkpt>
      <trkpt lat="46.01041" lon="6.45301">
        <ele>1644.95</ele>
        <time>2019-04-08T10:23:52Z</time>
      </trkpt>
      <trkpt lat="46.01043" lon="6.45306">
        <ele>1643.03</ele>
        <time>2019-04-08T10:23:53Z</time>
      </trkpt>
      <trkpt lat="46.01045" lon="6.4531">
        <ele>1641.59</ele>
        <time>2019-04-08T10:23:54Z</time>
      </trkpt>
      <trkpt lat="46.01048" lon="6.45314">
        <ele>1640.15</ele>
        <time>2019-04-08T10:23:55Z</time>
      </trkpt>
      <trkpt lat="46.0105" lon="6.45318">
        <ele>1639.19</ele>
        <time>2019-04-08T10:23:56Z</time>
      </trkpt>
      <trkpt lat="46.0105" lon="6.45322">
        <ele>1638.22</ele>
        <time>2019-04-08T10:23:57Z</time>
      </trkpt>
      <trkpt lat="46.0105" lon="6.45335">
        <ele>1634.86</ele>
        <time>2019-04-08T10:24:00Z</time>
      </trkpt>
      <trkpt lat="46.0105" lon="6.45339">
        <ele>1634.86</ele>
        <time>2019-04-08T10:24:01Z</time>
      </trkpt>
      <trkpt lat="46.01054" lon="6.45344">
        <ele>1633.42</ele>
        <time>2019-04-08T10:24:04Z</time>
      </trkpt>
      <trkpt lat="46.01057" lon="6.45346">
        <ele>1632.46</ele>
        <time>2019-04-08T10:24:05Z</time>
      </trkpt>
      <trkpt lat="46.0106" lon="6.45351">
        <ele>1630.05</ele>
        <time>2019-04-08T10:24:06Z</time>
      </trkpt>
      <trkpt lat="46.01061" lon="6.45358">
        <ele>1628.13</ele>
        <time>2019-04-08T10:24:07Z</time>
      </trkpt>
      <trkpt lat="46.01061" lon="6.45363">
        <ele>1627.17</ele>
        <time>2019-04-08T10:24:08Z</time>
      </trkpt>
      <trkpt lat="46.01063" lon="6.45365">
        <ele>1626.21</ele>
        <time>2019-04-08T10:24:09Z</time>
      </trkpt>
      <trkpt lat="46.01066" lon="6.45364">
        <ele>1625.25</ele>
        <time>2019-04-08T10:24:10Z</time>
      </trkpt>
      <trkpt lat="46.01071" lon="6.45364">
        <ele>1623.8</ele>
        <time>2019-04-08T10:24:11Z</time>
      </trkpt>
      <trkpt lat="46.01074" lon="6.45367">
        <ele>1621.4</ele>
        <time>2019-04-08T10:24:12Z</time>
      </trkpt>
      <trkpt lat="46.01077" lon="6.45371">
        <ele>1619.96</ele>
        <time>2019-04-08T10:24:13Z</time>
      </trkpt>
      <trkpt lat="46.01081" lon="6.45371">
        <ele>1618.04</ele>
        <time>2019-04-08T10:24:14Z</time>
      </trkpt>
      <trkpt lat="46.01086" lon="6.45369">
        <ele>1616.11</ele>
        <time>2019-04-08T10:24:15Z</time>
      </trkpt>
      <trkpt lat="46.01089" lon="6.45369">
        <ele>1613.71</ele>
        <time>2019-04-08T10:24:16Z</time>
      </trkpt>
      <trkpt lat="46.01092" lon="6.45371">
        <ele>1611.79</ele>
        <time>2019-04-08T10:24:17Z</time>
      </trkpt>
      <trkpt lat="46.01096" lon="6.45369">
        <ele>1609.38</ele>
        <time>2019-04-08T10:24:18Z</time>
      </trkpt>
      <trkpt lat="46.01099" lon="6.45369">
        <ele>1607.46</ele>
        <time>2019-04-08T10:24:19Z</time>
      </trkpt>
      <trkpt lat="46.01103" lon="6.45372">
        <ele>1605.54</ele>
        <time>2019-04-08T10:24:20Z</time>
      </trkpt>
      <trkpt lat="46.01107" lon="6.45376">
        <ele>1603.14</ele>
        <time>2019-04-08T10:24:21Z</time>
      </trkpt>
      <trkpt lat="46.01111" lon="6.4538">
        <ele>1601.21</ele>
        <time>2019-04-08T10:24:22Z</time>
      </trkpt>
      <trkpt lat="46.01114" lon="6.45384">
        <ele>1598.81</ele>
        <time>2019-04-08T10:24:23Z</time>
      </trkpt>
      <trkpt lat="46.01118" lon="6.45388">
        <ele>1596.89</ele>
        <time>2019-04-08T10:24:24Z</time>
      </trkpt>
      <trkpt lat="46.01123" lon="6.45391">
        <ele>1594.48</ele>
        <time>2019-04-08T10:24:25Z</time>
      </trkpt>
      <trkpt lat="46.01128" lon="6.45396">
        <ele>1592.08</ele>
        <time>2019-04-08T10:24:26Z</time>
      </trkpt>
      <trkpt lat="46.0113" lon="6.45404">
        <ele>1590.64</ele>
        <time>2019-04-08T10:24:27Z</time>
      </trkpt>
      <trkpt lat="46.01131" lon="6.45414">
        <ele>1589.2</ele>
        <time>2019-04-08T10:24:28Z</time>
      </trkpt>
      <trkpt lat="46.01131" lon="6.45422">
        <ele>1586.79</ele>
        <time>2019-04-08T10:24:29Z</time>
      </trkpt>
      <trkpt lat="46.01132" lon="6.45429">
        <ele>1585.83</ele>
        <time>2019-04-08T10:24:30Z</time>
      </trkpt>
      <trkpt lat="46.01134" lon="6.45436">
        <ele>1584.87</ele>
        <time>2019-04-08T10:24:31Z</time>
      </trkpt>
      <trkpt lat="46.01136" lon="6.45442">
        <ele>1582.95</ele>
        <time>2019-04-08T10:24:32Z</time>
      </trkpt>
      <trkpt lat="46.01138" lon="6.45448">
        <ele>1581.51</ele>
        <time>2019-04-08T10:24:33Z</time>
      </trkpt>
      <trkpt lat="46.01139" lon="6.45455">
        <ele>1580.06</ele>
        <time>2019-04-08T10:24:34Z</time>
      </trkpt>
      <trkpt lat="46.01141" lon="6.45462">
        <ele>1579.58</ele>
        <time>2019-04-08T10:24:35Z</time>
      </trkpt>
      <trkpt lat="46.01143" lon="6.45469">
        <ele>1579.1</ele>
        <time>2019-04-08T10:24:36Z</time>
      </trkpt>
      <trkpt lat="46.01144" lon="6.45477">
        <ele>1577.66</ele>
        <time>2019-04-08T10:24:37Z</time>
      </trkpt>
      <trkpt lat="46.01144" lon="6.45484">
        <ele>1576.7</ele>
        <time>2019-04-08T10:24:38Z</time>
      </trkpt>
      <trkpt lat="46.01146" lon="6.45491">
        <ele>1576.22</ele>
        <time>2019-04-08T10:24:39Z</time>
      </trkpt>
      <trkpt lat="46.01148" lon="6.45498">
        <ele>1574.78</ele>
        <time>2019-04-08T10:24:40Z</time>
      </trkpt>
      <trkpt lat="46.0115" lon="6.45505">
        <ele>1573.33</ele>
        <time>2019-04-08T10:24:41Z</time>
      </trkpt>
      <trkpt lat="46.01152" lon="6.45513">
        <ele>1572.37</ele>
        <time>2019-04-08T10:24:42Z</time>
      </trkpt>
      <trkpt lat="46.01153" lon="6.45521">
        <ele>1571.41</ele>
        <time>2019-04-08T10:24:43Z</time>
      </trkpt>
      <trkpt lat="46.01159" lon="6.45565">
        <ele>1566.61</ele>
        <time>2019-04-08T10:24:49Z</time>
      </trkpt>
      <trkpt lat="46.01161" lon="6.4557">
        <ele>1565.64</ele>
        <time>2019-04-08T10:24:50Z</time>
      </trkpt>
      <trkpt lat="46.01163" lon="6.45575">
        <ele>1565.16</ele>
        <time>2019-04-08T10:24:51Z</time>
      </trkpt>
      <trkpt lat="46.01165" lon="6.45579">
        <ele>1564.68</ele>
        <time>2019-04-08T10:24:52Z</time>
      </trkpt>
      <trkpt lat="46.01167" lon="6.45583">
        <ele>1564.68</ele>
        <time>2019-04-08T10:24:53Z</time>
      </trkpt>
      <trkpt lat="46.01168" lon="6.45586">
        <ele>1564.68</ele>
        <time>2019-04-08T10:24:54Z</time>
      </trkpt>
      <trkpt lat="46.0117" lon="6.45591">
        <ele>1565.64</ele>
        <time>2019-04-08T10:24:57Z</time>
      </trkpt>
      <trkpt lat="46.0117" lon="6.45595">
        <ele>1565.64</ele>
        <time>2019-04-08T10:25:02Z</time>
      </trkpt>
      <trkpt lat="46.01169" lon="6.45597">
        <ele>1565.64</ele>
        <time>2019-04-08T10:25:03Z</time>
      </trkpt>
      <trkpt lat="46.01169" lon="6.45614">
        <ele>1564.2</ele>
        <time>2019-04-08T10:25:11Z</time>
      </trkpt>
      <trkpt lat="46.01168" lon="6.45619">
        <ele>1563.72</ele>
        <time>2019-04-08T10:25:12Z</time>
      </trkpt>
      <trkpt lat="46.01165" lon="6.45635">
        <ele>1561.32</ele>
        <time>2019-04-08T10:26:10Z</time>
      </trkpt>
      <trkpt lat="46.01165" lon="6.45637">
        <ele>1562.28</ele>
        <time>2019-04-08T10:26:26Z</time>
      </trkpt>
      <trkpt lat="46.01165" lon="6.45668">
        <ele>1557.95</ele>
        <time>2019-04-08T10:26:33Z</time>
      </trkpt>
      <trkpt lat="46.01165" lon="6.45685">
        <ele>1556.99</ele>
        <time>2019-04-08T10:26:36Z</time>
      </trkpt>
      <trkpt lat="46.01164" lon="6.4571">
        <ele>1554.59</ele>
        <time>2019-04-08T10:26:42Z</time>
      </trkpt>
      <trkpt lat="46.01163" lon="6.45724">
        <ele>1555.07</ele>
        <time>2019-04-08T10:26:56Z</time>
      </trkpt>
      <trkpt lat="46.01163" lon="6.45726">
        <ele>1555.07</ele>
        <time>2019-04-08T10:26:57Z</time>
      </trkpt>
      <trkpt lat="46.01165" lon="6.45734">
        <ele>1555.55</ele>
        <time>2019-04-08T10:27:38Z</time>
      </trkpt>
      <trkpt lat="46.01164" lon="6.45735">
        <ele>1555.55</ele>
        <time>2019-04-08T10:28:05Z</time>
      </trkpt>
      <trkpt lat="46.01163" lon="6.45736">
        <ele>1555.55</ele>
        <time>2019-04-08T10:28:06Z</time>
      </trkpt>
      <trkpt lat="46.01163" lon="6.45737">
        <ele>1555.55</ele>
        <time>2019-04-08T10:28:07Z</time>
      </trkpt>
      <trkpt lat="46.01163" lon="6.45739">
        <ele>1555.55</ele>
        <time>2019-04-08T10:28:08Z</time>
      </trkpt>
      <trkpt lat="46.01163" lon="6.45741">
        <ele>1555.55</ele>
        <time>2019-04-08T10:28:09Z</time>
      </trkpt>
      <trkpt lat="46.01161" lon="6.45776">
        <ele>1552.19</ele>
        <time>2019-04-08T10:28:17Z</time>
      </trkpt>
      <trkpt lat="46.0116" lon="6.45782">
        <ele>1552.19</ele>
        <time>2019-04-08T10:28:18Z</time>
      </trkpt>
      <trkpt lat="46.0116" lon="6.45795">
        <ele>1551.22</ele>
        <time>2019-04-08T10:28:20Z</time>
      </trkpt>
      <trkpt lat="46.01162" lon="6.45827">
        <ele>1547.38</ele>
        <time>2019-04-08T10:28:25Z</time>
      </trkpt>
      <trkpt lat="46.01163" lon="6.45851">
        <ele>1544.5</ele>
        <time>2019-04-08T10:28:28Z</time>
      </trkpt>
      <trkpt lat="46.01163" lon="6.45861">
        <ele>1544.01</ele>
        <time>2019-04-08T10:28:30Z</time>
      </trkpt>
      <trkpt lat="46.01168" lon="6.45867">
        <ele>1545.46</ele>
        <time>2019-04-08T10:29:53Z</time>
      </trkpt>
      <trkpt lat="46.01182" lon="6.45903">
        <ele>1542.09</ele>
        <time>2019-04-08T10:30:10Z</time>
      </trkpt>
      <trkpt lat="46.01186" lon="6.45912">
        <ele>1541.61</ele>
        <time>2019-04-08T10:30:12Z</time>
      </trkpt>
      <trkpt lat="46.01196" lon="6.45947">
        <ele>1538.25</ele>
        <time>2019-04-08T10:30:21Z</time>
      </trkpt>
      <trkpt lat="46.01199" lon="6.4596">
        <ele>1536.32</ele>
        <time>2019-04-08T10:30:23Z</time>
      </trkpt>
      <trkpt lat="46.01201" lon="6.45966">
        <ele>1535.36</ele>
        <time>2019-04-08T10:30:24Z</time>
      </trkpt>
      <trkpt lat="46.01207" lon="6.45983">
        <ele>1534.4</ele>
        <time>2019-04-08T10:30:27Z</time>
      </trkpt>
      <trkpt lat="46.01209" lon="6.45989">
        <ele>1533.44</ele>
        <time>2019-04-08T10:30:28Z</time>
      </trkpt>
      <trkpt lat="46.0121" lon="6.45996">
        <ele>1532.96</ele>
        <time>2019-04-08T10:30:29Z</time>
      </trkpt>
      <trkpt lat="46.01214" lon="6.4601">
        <ele>1530.08</ele>
        <time>2019-04-08T10:30:32Z</time>
      </trkpt>
      <trkpt lat="46.01218" lon="6.4601">
        <ele>1529.59</ele>
        <time>2019-04-08T10:30:33Z</time>
      </trkpt>
      <trkpt lat="46.01221" lon="6.46006">
        <ele>1528.63</ele>
        <time>2019-04-08T10:30:34Z</time>
      </trkpt>
      <trkpt lat="46.01225" lon="6.46003">
        <ele>1527.67</ele>
        <time>2019-04-08T10:30:35Z</time>
      </trkpt>
      <trkpt lat="46.01229" lon="6.46004">
        <ele>1527.19</ele>
        <time>2019-04-08T10:30:36Z</time>
      </trkpt>
      <trkpt lat="46.01233" lon="6.46009">
        <ele>1525.75</ele>
        <time>2019-04-08T10:30:37Z</time>
      </trkpt>
      <trkpt lat="46.01235" lon="6.46014">
        <ele>1524.79</ele>
        <time>2019-04-08T10:30:38Z</time>
      </trkpt>
      <trkpt lat="46.01236" lon="6.46019">
        <ele>1523.83</ele>
        <time>2019-04-08T10:30:39Z</time>
      </trkpt>
      <trkpt lat="46.01237" lon="6.46023">
        <ele>1522.87</ele>
        <time>2019-04-08T10:30:40Z</time>
      </trkpt>
      <trkpt lat="46.01238" lon="6.46026">
        <ele>1522.39</ele>
        <time>2019-04-08T10:30:41Z</time>
      </trkpt>
      <trkpt lat="46.0124" lon="6.46028">
        <ele>1521.9</ele>
        <time>2019-04-08T10:30:42Z</time>
      </trkpt>
      <trkpt lat="46.01244" lon="6.46029">
        <ele>1520.94</ele>
        <time>2019-04-08T10:30:43Z</time>
      </trkpt>
      <trkpt lat="46.01247" lon="6.46033">
        <ele>1520.46</ele>
        <time>2019-04-08T10:30:44Z</time>
      </trkpt>
      <trkpt lat="46.01249" lon="6.46039">
        <ele>1519.5</ele>
        <time>2019-04-08T10:30:45Z</time>
      </trkpt>
      <trkpt lat="46.01249" lon="6.46044">
        <ele>1518.54</ele>
        <time>2019-04-08T10:30:46Z</time>
      </trkpt>
      <trkpt lat="46.01248" lon="6.46049">
        <ele>1517.58</ele>
        <time>2019-04-08T10:30:47Z</time>
      </trkpt>
      <trkpt lat="46.01245" lon="6.4608">
        <ele>1514.21</ele>
        <time>2019-04-08T10:30:56Z</time>
      </trkpt>
      <trkpt lat="46.01247" lon="6.46087">
        <ele>1512.77</ele>
        <time>2019-04-08T10:30:58Z</time>
      </trkpt>
      <trkpt lat="46.01251" lon="6.46088">
        <ele>1511.81</ele>
        <time>2019-04-08T10:30:59Z</time>
      </trkpt>
      <trkpt lat="46.01254" lon="6.4609">
        <ele>1510.85</ele>
        <time>2019-04-08T10:31:00Z</time>
      </trkpt>
      <trkpt lat="46.01256" lon="6.46094">
        <ele>1509.89</ele>
        <time>2019-04-08T10:31:01Z</time>
      </trkpt>
      <trkpt lat="46.01256" lon="6.46097">
        <ele>1508.93</ele>
        <time>2019-04-08T10:31:02Z</time>
      </trkpt>
      <trkpt lat="46.01256" lon="6.461">
        <ele>1508.93</ele>
        <time>2019-04-08T10:31:03Z</time>
      </trkpt>
      <trkpt lat="46.01256" lon="6.46104">
        <ele>1507.97</ele>
        <time>2019-04-08T10:31:04Z</time>
      </trkpt>
      <trkpt lat="46.01257" lon="6.46106">
        <ele>1507.97</ele>
        <time>2019-04-08T10:31:05Z</time>
      </trkpt>
      <trkpt lat="46.01258" lon="6.46109">
        <ele>1507.97</ele>
        <time>2019-04-08T10:31:06Z</time>
      </trkpt>
      <trkpt lat="46.0126" lon="6.46112">
        <ele>1507</ele>
        <time>2019-04-08T10:31:07Z</time>
      </trkpt>
      <trkpt lat="46.01262" lon="6.46116">
        <ele>1506.04</ele>
        <time>2019-04-08T10:31:08Z</time>
      </trkpt>
      <trkpt lat="46.01262" lon="6.4612">
        <ele>1505.56</ele>
        <time>2019-04-08T10:31:09Z</time>
      </trkpt>
      <trkpt lat="46.01262" lon="6.46124">
        <ele>1504.6</ele>
        <time>2019-04-08T10:31:10Z</time>
      </trkpt>
      <trkpt lat="46.01264" lon="6.46154">
        <ele>1501.24</ele>
        <time>2019-04-08T10:31:18Z</time>
      </trkpt>
      <trkpt lat="46.01267" lon="6.46156">
        <ele>1501.24</ele>
        <time>2019-04-08T10:31:19Z</time>
      </trkpt>
      <trkpt lat="46.0127" lon="6.46157">
        <ele>1500.27</ele>
        <time>2019-04-08T10:31:20Z</time>
      </trkpt>
      <trkpt lat="46.01274" lon="6.4616">
        <ele>1498.83</ele>
        <time>2019-04-08T10:31:21Z</time>
      </trkpt>
      <trkpt lat="46.01275" lon="6.46163">
        <ele>1497.87</ele>
        <time>2019-04-08T10:31:22Z</time>
      </trkpt>
      <trkpt lat="46.01276" lon="6.46165">
        <ele>1497.39</ele>
        <time>2019-04-08T10:31:23Z</time>
      </trkpt>
      <trkpt lat="46.01277" lon="6.4617">
        <ele>1497.39</ele>
        <time>2019-04-08T10:31:24Z</time>
      </trkpt>
      <trkpt lat="46.01278" lon="6.46176">
        <ele>1496.91</ele>
        <time>2019-04-08T10:31:25Z</time>
      </trkpt>
      <trkpt lat="46.01278" lon="6.46187">
        <ele>1494.99</ele>
        <time>2019-04-08T10:31:27Z</time>
      </trkpt>
      <trkpt lat="46.01276" lon="6.46192">
        <ele>1494.03</ele>
        <time>2019-04-08T10:31:28Z</time>
      </trkpt>
      <trkpt lat="46.01275" lon="6.46198">
        <ele>1493.06</ele>
        <time>2019-04-08T10:31:29Z</time>
      </trkpt>
      <trkpt lat="46.01274" lon="6.46209">
        <ele>1491.62</ele>
        <time>2019-04-08T10:31:32Z</time>
      </trkpt>
      <trkpt lat="46.01276" lon="6.46211">
        <ele>1490.66</ele>
        <time>2019-04-08T10:31:33Z</time>
      </trkpt>
      <trkpt lat="46.01277" lon="6.46215">
        <ele>1490.18</ele>
        <time>2019-04-08T10:31:34Z</time>
      </trkpt>
      <trkpt lat="46.01278" lon="6.46218">
        <ele>1489.22</ele>
        <time>2019-04-08T10:31:35Z</time>
      </trkpt>
      <trkpt lat="46.01277" lon="6.4622">
        <ele>1487.78</ele>
        <time>2019-04-08T10:31:36Z</time>
      </trkpt>
      <trkpt lat="46.01278" lon="6.46224">
        <ele>1487.3</ele>
        <time>2019-04-08T10:31:37Z</time>
      </trkpt>
      <trkpt lat="46.0128" lon="6.46227">
        <ele>1486.34</ele>
        <time>2019-04-08T10:31:38Z</time>
      </trkpt>
      <trkpt lat="46.01282" lon="6.4623">
        <ele>1485.37</ele>
        <time>2019-04-08T10:31:39Z</time>
      </trkpt>
      <trkpt lat="46.01283" lon="6.46235">
        <ele>1484.41</ele>
        <time>2019-04-08T10:31:40Z</time>
      </trkpt>
      <trkpt lat="46.01282" lon="6.4624">
        <ele>1483.45</ele>
        <time>2019-04-08T10:31:41Z</time>
      </trkpt>
      <trkpt lat="46.01279" lon="6.46263">
        <ele>1480.57</ele>
        <time>2019-04-08T10:31:46Z</time>
      </trkpt>
      <trkpt lat="46.01281" lon="6.46267">
        <ele>1479.61</ele>
        <time>2019-04-08T10:31:47Z</time>
      </trkpt>
      <trkpt lat="46.01283" lon="6.46271">
        <ele>1478.65</ele>
        <time>2019-04-08T10:31:48Z</time>
      </trkpt>
      <trkpt lat="46.01284" lon="6.46276">
        <ele>1477.2</ele>
        <time>2019-04-08T10:31:49Z</time>
      </trkpt>
      <trkpt lat="46.01285" lon="6.46279">
        <ele>1476.24</ele>
        <time>2019-04-08T10:31:50Z</time>
      </trkpt>
      <trkpt lat="46.01285" lon="6.46282">
        <ele>1476.24</ele>
        <time>2019-04-08T10:31:51Z</time>
      </trkpt>
      <trkpt lat="46.01286" lon="6.46285">
        <ele>1475.76</ele>
        <time>2019-04-08T10:31:52Z</time>
      </trkpt>
      <trkpt lat="46.01287" lon="6.46286">
        <ele>1475.76</ele>
        <time>2019-04-08T10:31:53Z</time>
      </trkpt>
      <trkpt lat="46.01289" lon="6.46288">
        <ele>1475.28</ele>
        <time>2019-04-08T10:31:54Z</time>
      </trkpt>
      <trkpt lat="46.01291" lon="6.46292">
        <ele>1474.8</ele>
        <time>2019-04-08T10:31:55Z</time>
      </trkpt>
      <trkpt lat="46.01292" lon="6.46295">
        <ele>1473.84</ele>
        <time>2019-04-08T10:31:56Z</time>
      </trkpt>
      <trkpt lat="46.01293" lon="6.463">
        <ele>1473.36</ele>
        <time>2019-04-08T10:31:57Z</time>
      </trkpt>
      <trkpt lat="46.01293" lon="6.46305">
        <ele>1472.4</ele>
        <time>2019-04-08T10:31:58Z</time>
      </trkpt>
      <trkpt lat="46.01293" lon="6.46309">
        <ele>1471.92</ele>
        <time>2019-04-08T10:31:59Z</time>
      </trkpt>
      <trkpt lat="46.01296" lon="6.46312">
        <ele>1471.44</ele>
        <time>2019-04-08T10:32:00Z</time>
      </trkpt>
      <trkpt lat="46.01298" lon="6.46315">
        <ele>1469.99</ele>
        <time>2019-04-08T10:32:01Z</time>
      </trkpt>
      <trkpt lat="46.01299" lon="6.46323">
        <ele>1467.59</ele>
        <time>2019-04-08T10:32:03Z</time>
      </trkpt>
      <trkpt lat="46.01298" lon="6.46328">
        <ele>1466.63</ele>
        <time>2019-04-08T10:32:04Z</time>
      </trkpt>
      <trkpt lat="46.01299" lon="6.46332">
        <ele>1465.67</ele>
        <time>2019-04-08T10:32:05Z</time>
      </trkpt>
      <trkpt lat="46.01302" lon="6.46338">
        <ele>1464.71</ele>
        <time>2019-04-08T10:32:06Z</time>
      </trkpt>
      <trkpt lat="46.01306" lon="6.46344">
        <ele>1463.26</ele>
        <time>2019-04-08T10:32:07Z</time>
      </trkpt>
      <trkpt lat="46.01309" lon="6.46348">
        <ele>1462.3</ele>
        <time>2019-04-08T10:32:08Z</time>
      </trkpt>
      <trkpt lat="46.0131" lon="6.4635">
        <ele>1461.82</ele>
        <time>2019-04-08T10:32:09Z</time>
      </trkpt>
      <trkpt lat="46.01311" lon="6.46354">
        <ele>1461.82</ele>
        <time>2019-04-08T10:32:10Z</time>
      </trkpt>
      <trkpt lat="46.01311" lon="6.46357">
        <ele>1461.34</ele>
        <time>2019-04-08T10:32:11Z</time>
      </trkpt>
      <trkpt lat="46.01312" lon="6.4636">
        <ele>1460.86</ele>
        <time>2019-04-08T10:32:12Z</time>
      </trkpt>
      <trkpt lat="46.01314" lon="6.46362">
        <ele>1460.38</ele>
        <time>2019-04-08T10:32:13Z</time>
      </trkpt>
      <trkpt lat="46.01316" lon="6.46363">
        <ele>1459.9</ele>
        <time>2019-04-08T10:32:14Z</time>
      </trkpt>
      <trkpt lat="46.01319" lon="6.46365">
        <ele>1459.42</ele>
        <time>2019-04-08T10:32:15Z</time>
      </trkpt>
      <trkpt lat="46.01323" lon="6.46366">
        <ele>1458.46</ele>
        <time>2019-04-08T10:32:16Z</time>
      </trkpt>
      <trkpt lat="46.01325" lon="6.46372">
        <ele>1457.5</ele>
        <time>2019-04-08T10:32:17Z</time>
      </trkpt>
      <trkpt lat="46.01326" lon="6.46378">
        <ele>1456.05</ele>
        <time>2019-04-08T10:32:18Z</time>
      </trkpt>
      <trkpt lat="46.0133" lon="6.46392">
        <ele>1452.21</ele>
        <time>2019-04-08T10:32:20Z</time>
      </trkpt>
      <trkpt lat="46.01331" lon="6.46399">
        <ele>1450.77</ele>
        <time>2019-04-08T10:32:21Z</time>
      </trkpt>
      <trkpt lat="46.01334" lon="6.46406">
        <ele>1450.29</ele>
        <time>2019-04-08T10:32:22Z</time>
      </trkpt>
      <trkpt lat="46.01336" lon="6.46413">
        <ele>1447.4</ele>
        <time>2019-04-08T10:32:23Z</time>
      </trkpt>
      <trkpt lat="46.01339" lon="6.4642">
        <ele>1445.96</ele>
        <time>2019-04-08T10:32:24Z</time>
      </trkpt>
      <trkpt lat="46.0134" lon="6.46427">
        <ele>1445</ele>
        <time>2019-04-08T10:32:25Z</time>
      </trkpt>
      <trkpt lat="46.0134" lon="6.46433">
        <ele>1444.52</ele>
        <time>2019-04-08T10:32:26Z</time>
      </trkpt>
      <trkpt lat="46.01341" lon="6.46447">
        <ele>1442.6</ele>
        <time>2019-04-08T10:32:28Z</time>
      </trkpt>
      <trkpt lat="46.01341" lon="6.46455">
        <ele>1442.11</ele>
        <time>2019-04-08T10:32:29Z</time>
      </trkpt>
      <trkpt lat="46.01341" lon="6.46462">
        <ele>1441.63</ele>
        <time>2019-04-08T10:32:30Z</time>
      </trkpt>
      <trkpt lat="46.01342" lon="6.4647">
        <ele>1441.15</ele>
        <time>2019-04-08T10:32:31Z</time>
      </trkpt>
      <trkpt lat="46.01342" lon="6.46476">
        <ele>1440.67</ele>
        <time>2019-04-08T10:32:32Z</time>
      </trkpt>
      <trkpt lat="46.01348" lon="6.46497">
        <ele>1440.19</ele>
        <time>2019-04-08T10:32:40Z</time>
      </trkpt>
      <trkpt lat="46.01351" lon="6.46499">
        <ele>1439.23</ele>
        <time>2019-04-08T10:32:44Z</time>
      </trkpt>
      <trkpt lat="46.01352" lon="6.465">
        <ele>1438.27</ele>
        <time>2019-04-08T10:32:45Z</time>
      </trkpt>
      <trkpt lat="46.01353" lon="6.46503">
        <ele>1437.79</ele>
        <time>2019-04-08T10:32:46Z</time>
      </trkpt>
      <trkpt lat="46.01353" lon="6.46507">
        <ele>1436.83</ele>
        <time>2019-04-08T10:32:47Z</time>
      </trkpt>
      <trkpt lat="46.01352" lon="6.46512">
        <ele>1435.39</ele>
        <time>2019-04-08T10:32:48Z</time>
      </trkpt>
      <trkpt lat="46.01353" lon="6.46518">
        <ele>1433.94</ele>
        <time>2019-04-08T10:32:49Z</time>
      </trkpt>
      <trkpt lat="46.01354" lon="6.46523">
        <ele>1432.98</ele>
        <time>2019-04-08T10:32:50Z</time>
      </trkpt>
      <trkpt lat="46.01354" lon="6.46528">
        <ele>1432.02</ele>
        <time>2019-04-08T10:32:51Z</time>
      </trkpt>
      <trkpt lat="46.01358" lon="6.46555">
        <ele>1430.1</ele>
        <time>2019-04-08T10:32:55Z</time>
      </trkpt>
      <trkpt lat="46.01364" lon="6.46579">
        <ele>1426.73</ele>
        <time>2019-04-08T10:33:00Z</time>
      </trkpt>
      <trkpt lat="46.01367" lon="6.46584">
        <ele>1425.77</ele>
        <time>2019-04-08T10:33:02Z</time>
      </trkpt>
      <trkpt lat="46.01368" lon="6.46584">
        <ele>1425.29</ele>
        <time>2019-04-08T10:33:03Z</time>
      </trkpt>
      <trkpt lat="46.01372" lon="6.46582">
        <ele>1424.81</ele>
        <time>2019-04-08T10:33:04Z</time>
      </trkpt>
      <trkpt lat="46.01374" lon="6.46583">
        <ele>1424.33</ele>
        <time>2019-04-08T10:33:05Z</time>
      </trkpt>
      <trkpt lat="46.01376" lon="6.46584">
        <ele>1423.37</ele>
        <time>2019-04-08T10:33:06Z</time>
      </trkpt>
      <trkpt lat="46.01378" lon="6.46586">
        <ele>1422.89</ele>
        <time>2019-04-08T10:33:07Z</time>
      </trkpt>
      <trkpt lat="46.01379" lon="6.46588">
        <ele>1422.41</ele>
        <time>2019-04-08T10:33:08Z</time>
      </trkpt>
      <trkpt lat="46.0138" lon="6.4659">
        <ele>1421.93</ele>
        <time>2019-04-08T10:33:09Z</time>
      </trkpt>
      <trkpt lat="46.01391" lon="6.46601">
        <ele>1419.52</ele>
        <time>2019-04-08T10:33:16Z</time>
      </trkpt>
      <trkpt lat="46.01393" lon="6.46601">
        <ele>1418.56</ele>
        <time>2019-04-08T10:33:17Z</time>
      </trkpt>
      <trkpt lat="46.01396" lon="6.466">
        <ele>1418.08</ele>
        <time>2019-04-08T10:33:18Z</time>
      </trkpt>
      <trkpt lat="46.01399" lon="6.46599">
        <ele>1417.12</ele>
        <time>2019-04-08T10:33:19Z</time>
      </trkpt>
      <trkpt lat="46.01403" lon="6.46599">
        <ele>1416.16</ele>
        <time>2019-04-08T10:33:20Z</time>
      </trkpt>
      <trkpt lat="46.01405" lon="6.46601">
        <ele>1415.2</ele>
        <time>2019-04-08T10:33:21Z</time>
      </trkpt>
      <trkpt lat="46.01408" lon="6.46599">
        <ele>1414.72</ele>
        <time>2019-04-08T10:33:22Z</time>
      </trkpt>
      <trkpt lat="46.01411" lon="6.46599">
        <ele>1414.24</ele>
        <time>2019-04-08T10:33:23Z</time>
      </trkpt>
      <trkpt lat="46.01413" lon="6.46601">
        <ele>1413.28</ele>
        <time>2019-04-08T10:33:24Z</time>
      </trkpt>
      <trkpt lat="46.01414" lon="6.46603">
        <ele>1411.83</ele>
        <time>2019-04-08T10:33:25Z</time>
      </trkpt>
      <trkpt lat="46.01415" lon="6.46605">
        <ele>1411.35</ele>
        <time>2019-04-08T10:33:26Z</time>
      </trkpt>
      <trkpt lat="46.01417" lon="6.46608">
        <ele>1410.39</ele>
        <time>2019-04-08T10:33:27Z</time>
      </trkpt>
      <trkpt lat="46.01419" lon="6.46611">
        <ele>1409.91</ele>
        <time>2019-04-08T10:33:28Z</time>
      </trkpt>
      <trkpt lat="46.0142" lon="6.46613">
        <ele>1409.43</ele>
        <time>2019-04-08T10:33:29Z</time>
      </trkpt>
      <trkpt lat="46.01422" lon="6.46616">
        <ele>1409.43</ele>
        <time>2019-04-08T10:33:30Z</time>
      </trkpt>
      <trkpt lat="46.01429" lon="6.46629">
        <ele>1406.07</ele>
        <time>2019-04-08T10:33:35Z</time>
      </trkpt>
      <trkpt lat="46.01431" lon="6.46629">
        <ele>1405.58</ele>
        <time>2019-04-08T10:33:36Z</time>
      </trkpt>
      <trkpt lat="46.01433" lon="6.46631">
        <ele>1405.1</ele>
        <time>2019-04-08T10:33:37Z</time>
      </trkpt>
      <trkpt lat="46.01437" lon="6.46634">
        <ele>1404.62</ele>
        <time>2019-04-08T10:33:38Z</time>
      </trkpt>
      <trkpt lat="46.0144" lon="6.46638">
        <ele>1403.66</ele>
        <time>2019-04-08T10:33:39Z</time>
      </trkpt>
      <trkpt lat="46.01444" lon="6.46641">
        <ele>1403.18</ele>
        <time>2019-04-08T10:33:40Z</time>
      </trkpt>
      <trkpt lat="46.01446" lon="6.46644">
        <ele>1402.7</ele>
        <time>2019-04-08T10:33:41Z</time>
      </trkpt>
      <trkpt lat="46.01448" lon="6.46648">
        <ele>1402.22</ele>
        <time>2019-04-08T10:33:42Z</time>
      </trkpt>
      <trkpt lat="46.0145" lon="6.46652">
        <ele>1401.74</ele>
        <time>2019-04-08T10:33:43Z</time>
      </trkpt>
      <trkpt lat="46.01459" lon="6.46666">
        <ele>1398.37</ele>
        <time>2019-04-08T10:33:47Z</time>
      </trkpt>
      <trkpt lat="46.01469" lon="6.46687">
        <ele>1395.49</ele>
        <time>2019-04-08T10:33:53Z</time>
      </trkpt>
      <trkpt lat="46.01478" lon="6.4671">
        <ele>1392.13</ele>
        <time>2019-04-08T10:34:00Z</time>
      </trkpt>
      <trkpt lat="46.01488" lon="6.46735">
        <ele>1388.76</ele>
        <time>2019-04-08T10:34:07Z</time>
      </trkpt>
      <trkpt lat="46.01492" lon="6.46737">
        <ele>1387.8</ele>
        <time>2019-04-08T10:34:09Z</time>
      </trkpt>
      <trkpt lat="46.01494" lon="6.46735">
        <ele>1387.32</ele>
        <time>2019-04-08T10:34:10Z</time>
      </trkpt>
      <trkpt lat="46.01496" lon="6.46734">
        <ele>1386.84</ele>
        <time>2019-04-08T10:34:11Z</time>
      </trkpt>
      <trkpt lat="46.01499" lon="6.46736">
        <ele>1385.88</ele>
        <time>2019-04-08T10:34:12Z</time>
      </trkpt>
      <trkpt lat="46.01502" lon="6.46739">
        <ele>1385.4</ele>
        <time>2019-04-08T10:34:13Z</time>
      </trkpt>
      <trkpt lat="46.01503" lon="6.46742">
        <ele>1384.44</ele>
        <time>2019-04-08T10:34:14Z</time>
      </trkpt>
      <trkpt lat="46.01503" lon="6.46744">
        <ele>1383.96</ele>
        <time>2019-04-08T10:34:15Z</time>
      </trkpt>
      <trkpt lat="46.01503" lon="6.46746">
        <ele>1383.47</ele>
        <time>2019-04-08T10:34:16Z</time>
      </trkpt>
      <trkpt lat="46.01512" lon="6.46755">
        <ele>1382.03</ele>
        <time>2019-04-08T10:34:22Z</time>
      </trkpt>
      <trkpt lat="46.01521" lon="6.46762">
        <ele>1380.59</ele>
        <time>2019-04-08T10:34:27Z</time>
      </trkpt>
      <trkpt lat="46.01522" lon="6.46767">
        <ele>1380.11</ele>
        <time>2019-04-08T10:34:28Z</time>
      </trkpt>
      <trkpt lat="46.0153" lon="6.46796">
        <ele>1376.75</ele>
        <time>2019-04-08T10:34:36Z</time>
      </trkpt>
      <trkpt lat="46.01531" lon="6.46807">
        <ele>1375.78</ele>
        <time>2019-04-08T10:34:39Z</time>
      </trkpt>
      <trkpt lat="46.01537" lon="6.46833">
        <ele>1371.94</ele>
        <time>2019-04-08T10:34:46Z</time>
      </trkpt>
      <trkpt lat="46.01541" lon="6.4684">
        <ele>1370.98</ele>
        <time>2019-04-08T10:34:48Z</time>
      </trkpt>
      <trkpt lat="46.01543" lon="6.46845">
        <ele>1369.05</ele>
        <time>2019-04-08T10:34:49Z</time>
      </trkpt>
      <trkpt lat="46.01544" lon="6.46849">
        <ele>1368.09</ele>
        <time>2019-04-08T10:34:50Z</time>
      </trkpt>
      <trkpt lat="46.01546" lon="6.46853">
        <ele>1367.61</ele>
        <time>2019-04-08T10:34:51Z</time>
      </trkpt>
      <trkpt lat="46.01549" lon="6.46859">
        <ele>1366.17</ele>
        <time>2019-04-08T10:34:52Z</time>
      </trkpt>
      <trkpt lat="46.01551" lon="6.46866">
        <ele>1364.25</ele>
        <time>2019-04-08T10:34:53Z</time>
      </trkpt>
      <trkpt lat="46.01553" lon="6.46873">
        <ele>1363.29</ele>
        <time>2019-04-08T10:34:54Z</time>
      </trkpt>
      <trkpt lat="46.01554" lon="6.46881">
        <ele>1361.36</ele>
        <time>2019-04-08T10:34:55Z</time>
      </trkpt>
      <trkpt lat="46.01555" lon="6.46887">
        <ele>1360.4</ele>
        <time>2019-04-08T10:34:56Z</time>
      </trkpt>
      <trkpt lat="46.01556" lon="6.46891">
        <ele>1360.88</ele>
        <time>2019-04-08T10:34:57Z</time>
      </trkpt>
      <trkpt lat="46.01557" lon="6.46895">
        <ele>1360.88</ele>
        <time>2019-04-08T10:34:58Z</time>
      </trkpt>
      <trkpt lat="46.01558" lon="6.46898">
        <ele>1360.88</ele>
        <time>2019-04-08T10:34:59Z</time>
      </trkpt>
      <trkpt lat="46.01561" lon="6.46902">
        <ele>1360.88</ele>
        <time>2019-04-08T10:35:00Z</time>
      </trkpt>
      <trkpt lat="46.01565" lon="6.46908">
        <ele>1358.96</ele>
        <time>2019-04-08T10:35:01Z</time>
      </trkpt>
      <trkpt lat="46.01567" lon="6.46914">
        <ele>1357.52</ele>
        <time>2019-04-08T10:35:02Z</time>
      </trkpt>
      <trkpt lat="46.0157" lon="6.46918">
        <ele>1356.56</ele>
        <time>2019-04-08T10:35:03Z</time>
      </trkpt>
      <trkpt lat="46.01574" lon="6.46925">
        <ele>1355.6</ele>
        <time>2019-04-08T10:35:04Z</time>
      </trkpt>
      <trkpt lat="46.01577" lon="6.46932">
        <ele>1354.15</ele>
        <time>2019-04-08T10:35:05Z</time>
      </trkpt>
      <trkpt lat="46.0158" lon="6.46938">
        <ele>1352.71</ele>
        <time>2019-04-08T10:35:06Z</time>
      </trkpt>
      <trkpt lat="46.01581" lon="6.46944">
        <ele>1351.27</ele>
        <time>2019-04-08T10:35:07Z</time>
      </trkpt>
      <trkpt lat="46.01583" lon="6.46952">
        <ele>1350.31</ele>
        <time>2019-04-08T10:35:08Z</time>
      </trkpt>
      <trkpt lat="46.0159" lon="6.46974">
        <ele>1347.91</ele>
        <time>2019-04-08T10:35:12Z</time>
      </trkpt>
      <trkpt lat="46.01594" lon="6.46992">
        <ele>1346.46</ele>
        <time>2019-04-08T10:35:16Z</time>
      </trkpt>
      <trkpt lat="46.01595" lon="6.46999">
        <ele>1345.98</ele>
        <time>2019-04-08T10:35:17Z</time>
      </trkpt>
      <trkpt lat="46.01598" lon="6.4703">
        <ele>1343.1</ele>
        <time>2019-04-08T10:35:21Z</time>
      </trkpt>
      <trkpt lat="46.01598" lon="6.47055">
        <ele>1341.18</ele>
        <time>2019-04-08T10:35:25Z</time>
      </trkpt>
      <trkpt lat="46.01596" lon="6.4708">
        <ele>1342.14</ele>
        <time>2019-04-08T10:35:44Z</time>
      </trkpt>
      <trkpt lat="46.01598" lon="6.47113">
        <ele>1338.77</ele>
        <time>2019-04-08T10:35:52Z</time>
      </trkpt>
      <trkpt lat="46.01602" lon="6.47134">
        <ele>1336.37</ele>
        <time>2019-04-08T10:35:56Z</time>
      </trkpt>
      <trkpt lat="46.01608" lon="6.4716">
        <ele>1333.01</ele>
        <time>2019-04-08T10:36:00Z</time>
      </trkpt>
      <trkpt lat="46.01619" lon="6.47191">
        <ele>1329.64</ele>
        <time>2019-04-08T10:36:05Z</time>
      </trkpt>
      <trkpt lat="46.01627" lon="6.47219">
        <ele>1325.8</ele>
        <time>2019-04-08T10:36:11Z</time>
      </trkpt>
      <trkpt lat="46.01636" lon="6.47244">
        <ele>1321.47</ele>
        <time>2019-04-08T10:36:15Z</time>
      </trkpt>
      <trkpt lat="46.0164" lon="6.47255">
        <ele>1319.55</ele>
        <time>2019-04-08T10:36:17Z</time>
      </trkpt>
      <trkpt lat="46.01642" lon="6.47262">
        <ele>1319.07</ele>
        <time>2019-04-08T10:36:18Z</time>
      </trkpt>
      <trkpt lat="46.01644" lon="6.47267">
        <ele>1318.1</ele>
        <time>2019-04-08T10:36:19Z</time>
      </trkpt>
      <trkpt lat="46.01648" lon="6.47278">
        <ele>1315.7</ele>
        <time>2019-04-08T10:36:21Z</time>
      </trkpt>
      <trkpt lat="46.01649" lon="6.47283">
        <ele>1315.22</ele>
        <time>2019-04-08T10:36:22Z</time>
      </trkpt>
      <trkpt lat="46.0165" lon="6.47288">
        <ele>1314.26</ele>
        <time>2019-04-08T10:36:23Z</time>
      </trkpt>
      <trkpt lat="46.01652" lon="6.47294">
        <ele>1313.3</ele>
        <time>2019-04-08T10:36:24Z</time>
      </trkpt>
      <trkpt lat="46.01653" lon="6.473">
        <ele>1312.34</ele>
        <time>2019-04-08T10:36:25Z</time>
      </trkpt>
      <trkpt lat="46.01657" lon="6.47312">
        <ele>1309.93</ele>
        <time>2019-04-08T10:36:27Z</time>
      </trkpt>
      <trkpt lat="46.01661" lon="6.47316">
        <ele>1309.45</ele>
        <time>2019-04-08T10:36:28Z</time>
      </trkpt>
      <trkpt lat="46.01665" lon="6.47322">
        <ele>1307.05</ele>
        <time>2019-04-08T10:36:29Z</time>
      </trkpt>
      <trkpt lat="46.01678" lon="6.47344">
        <ele>1302.72</ele>
        <time>2019-04-08T10:36:32Z</time>
      </trkpt>
      <trkpt lat="46.01689" lon="6.47364">
        <ele>1298.88</ele>
        <time>2019-04-08T10:36:34Z</time>
      </trkpt>
      <trkpt lat="46.01705" lon="6.47392">
        <ele>1295.03</ele>
        <time>2019-04-08T10:36:37Z</time>
      </trkpt>
      <trkpt lat="46.01724" lon="6.47425">
        <ele>1290.71</ele>
        <time>2019-04-08T10:36:41Z</time>
      </trkpt>
      <trkpt lat="46.0174" lon="6.47454">
        <ele>1287.34</ele>
        <time>2019-04-08T10:36:45Z</time>
      </trkpt>
      <trkpt lat="46.01746" lon="6.47465">
        <ele>1285.9</ele>
        <time>2019-04-08T10:36:47Z</time>
      </trkpt>
      <trkpt lat="46.01766" lon="6.47508">
        <ele>1283.02</ele>
        <time>2019-04-08T10:36:54Z</time>
      </trkpt>
      <trkpt lat="46.01785" lon="6.47538">
        <ele>1281.09</ele>
        <time>2019-04-08T10:37:00Z</time>
      </trkpt>
      <trkpt lat="46.01791" lon="6.47546">
        <ele>1280.61</ele>
        <time>2019-04-08T10:37:02Z</time>
      </trkpt>
      <trkpt lat="46.01794" lon="6.47551">
        <ele>1280.61</ele>
        <time>2019-04-08T10:37:03Z</time>
      </trkpt>
      <trkpt lat="46.01798" lon="6.47555">
        <ele>1280.61</ele>
        <time>2019-04-08T10:37:04Z</time>
      </trkpt>
      <trkpt lat="46.01801" lon="6.47559">
        <ele>1280.13</ele>
        <time>2019-04-08T10:37:05Z</time>
      </trkpt>
      <trkpt lat="46.01804" lon="6.47563">
        <ele>1279.65</ele>
        <time>2019-04-08T10:37:06Z</time>
      </trkpt>
      <trkpt lat="46.0182" lon="6.4758">
        <ele>1278.21</ele>
        <time>2019-04-08T10:37:11Z</time>
      </trkpt>
      <trkpt lat="46.01833" lon="6.47593">
        <ele>1277.25</ele>
        <time>2019-04-08T10:37:15Z</time>
      </trkpt>
      <trkpt lat="46.01836" lon="6.47596">
        <ele>1276.77</ele>
        <time>2019-04-08T10:37:16Z</time>
      </trkpt>
      <trkpt lat="46.0184" lon="6.47599">
        <ele>1276.77</ele>
        <time>2019-04-08T10:37:17Z</time>
      </trkpt>
      <trkpt lat="46.01874" lon="6.47639">
        <ele>1273.4</ele>
        <time>2019-04-08T10:37:29Z</time>
      </trkpt>
      <trkpt lat="46.01918" lon="6.47665">
        <ele>1271.96</ele>
        <time>2019-04-08T10:37:45Z</time>
      </trkpt>
      <trkpt lat="46.01927" lon="6.47667">
        <ele>1271.48</ele>
        <time>2019-04-08T10:37:49Z</time>
      </trkpt>
      <trkpt lat="46.01964" lon="6.47659">
        <ele>1270.52</ele>
        <time>2019-04-08T10:38:14Z</time>
      </trkpt>
      <trkpt lat="46.01966" lon="6.47659">
        <ele>1270.52</ele>
        <time>2019-04-08T10:38:16Z</time>
      </trkpt>
      <trkpt lat="46.01985" lon="6.47659">
        <ele>1268.12</ele>
        <time>2019-04-08T10:38:27Z</time>
      </trkpt>
      <trkpt lat="46.01997" lon="6.47665">
        <ele>1266.19</ele>
        <time>2019-04-08T10:38:30Z</time>
      </trkpt>
      <trkpt lat="46.02043" lon="6.47682">
        <ele>1267.64</ele>
        <time>2019-04-08T10:39:10Z</time>
      </trkpt>
      <trkpt lat="46.02054" lon="6.47686">
        <ele>1266.19</ele>
        <time>2019-04-08T10:39:13Z</time>
      </trkpt>
      <trkpt lat="46.02059" lon="6.47688">
        <ele>1266.19</ele>
        <time>2019-04-08T10:39:14Z</time>
      </trkpt>
      <trkpt lat="46.02063" lon="6.4769">
        <ele>1265.71</ele>
        <time>2019-04-08T10:39:15Z</time>
      </trkpt>
      <trkpt lat="46.0209" lon="6.47699">
        <ele>1262.83</ele>
        <time>2019-04-08T10:39:26Z</time>
      </trkpt>
      <trkpt lat="46.02091" lon="6.47699">
        <ele>1262.35</ele>
        <time>2019-04-08T10:40:04Z</time>
      </trkpt>
      <trkpt lat="46.02092" lon="6.47698">
        <ele>1262.83</ele>
        <time>2019-04-08T10:40:07Z</time>
      </trkpt>
      <trkpt lat="46.02093" lon="6.47698">
        <ele>1262.83</ele>
        <time>2019-04-08T10:40:08Z</time>
      </trkpt>
      <trkpt lat="46.02096" lon="6.47697">
        <ele>1262.83</ele>
        <time>2019-04-08T10:40:12Z</time>
      </trkpt>
      <trkpt lat="46.02097" lon="6.47696">
        <ele>1262.83</ele>
        <time>2019-04-08T10:40:13Z</time>
      </trkpt>
      <trkpt lat="46.02118" lon="6.47687">
        <ele>1264.27</ele>
        <time>2019-04-08T10:40:40Z</time>
      </trkpt>
      <trkpt lat="46.02153" lon="6.47698">
        <ele>1265.71</ele>
        <time>2019-04-08T10:41:26Z</time>
      </trkpt>
      <trkpt lat="46.02167" lon="6.47706">
        <ele>1265.23</ele>
        <time>2019-04-08T10:41:55Z</time>
      </trkpt>
      <trkpt lat="46.02167" lon="6.47708">
        <ele>1265.23</ele>
        <time>2019-04-08T10:41:56Z</time>
      </trkpt>
      <trkpt lat="46.02168" lon="6.47711">
        <ele>1265.23</ele>
        <time>2019-04-08T10:41:57Z</time>
      </trkpt>
      <trkpt lat="46.02169" lon="6.47712">
        <ele>1264.75</ele>
        <time>2019-04-08T10:41:58Z</time>
      </trkpt>
      <trkpt lat="46.02171" lon="6.47714">
        <ele>1264.75</ele>
        <time>2019-04-08T10:41:59Z</time>
      </trkpt>
      <trkpt lat="46.02173" lon="6.47716">
        <ele>1264.75</ele>
        <time>2019-04-08T10:42:00Z</time>
      </trkpt>
      <trkpt lat="46.02214" lon="6.47734">
        <ele>1261.87</ele>
        <time>2019-04-08T10:42:17Z</time>
      </trkpt>
      <trkpt lat="46.02223" lon="6.47737">
        <ele>1261.39</ele>
        <time>2019-04-08T10:42:20Z</time>
      </trkpt>
      <trkpt lat="46.02226" lon="6.47739">
        <ele>1261.39</ele>
        <time>2019-04-08T10:42:21Z</time>
      </trkpt>
      <trkpt lat="46.02228" lon="6.4774">
        <ele>1261.39</ele>
        <time>2019-04-08T10:42:22Z</time>
      </trkpt>
      <trkpt lat="46.02231" lon="6.47742">
        <ele>1261.39</ele>
        <time>2019-04-08T10:42:23Z</time>
      </trkpt>
      <trkpt lat="46.02233" lon="6.47744">
        <ele>1261.39</ele>
        <time>2019-04-08T10:42:24Z</time>
      </trkpt>
      <trkpt lat="46.02235" lon="6.47745">
        <ele>1261.39</ele>
        <time>2019-04-08T10:42:25Z</time>
      </trkpt>
      <trkpt lat="46.02238" lon="6.47747">
        <ele>1260.43</ele>
        <time>2019-04-08T10:42:26Z</time>
      </trkpt>
      <trkpt lat="46.0224" lon="6.4775">
        <ele>1260.43</ele>
        <time>2019-04-08T10:42:27Z</time>
      </trkpt>
      <trkpt lat="46.02243" lon="6.47751">
        <ele>1260.43</ele>
        <time>2019-04-08T10:42:28Z</time>
      </trkpt>
      <trkpt lat="46.02245" lon="6.4775">
        <ele>1260.43</ele>
        <time>2019-04-08T10:42:29Z</time>
      </trkpt>
      <trkpt lat="46.02248" lon="6.4775">
        <ele>1260.43</ele>
        <time>2019-04-08T10:42:30Z</time>
      </trkpt>
      <trkpt lat="46.02294" lon="6.47762">
        <ele>1258.98</ele>
        <time>2019-04-08T10:42:49Z</time>
      </trkpt>
      <trkpt lat="46.02333" lon="6.47782">
        <ele>1258.02</ele>
        <time>2019-04-08T10:43:08Z</time>
      </trkpt>
      <trkpt lat="46.02335" lon="6.47783">
        <ele>1258.02</ele>
        <time>2019-04-08T10:43:09Z</time>
      </trkpt>
      <trkpt lat="46.02336" lon="6.47784">
        <ele>1258.02</ele>
        <time>2019-04-08T10:43:10Z</time>
      </trkpt>
      <trkpt lat="46.02337" lon="6.47784">
        <ele>1257.54</ele>
        <time>2019-04-08T10:43:11Z</time>
      </trkpt>
      <trkpt lat="46.02338" lon="6.47785">
        <ele>1257.54</ele>
        <time>2019-04-08T10:43:12Z</time>
      </trkpt>
      <trkpt lat="46.02342" lon="6.47788">
        <ele>1258.02</ele>
        <time>2019-04-08T10:43:17Z</time>
      </trkpt>
      <trkpt lat="46.02343" lon="6.47791">
        <ele>1258.02</ele>
        <time>2019-04-08T10:43:20Z</time>
      </trkpt>
      <trkpt lat="46.02355" lon="6.47803">
        <ele>1258.5</ele>
        <time>2019-04-08T10:43:37Z</time>
      </trkpt>
      <trkpt lat="46.02358" lon="6.47804">
        <ele>1258.5</ele>
        <time>2019-04-08T10:43:40Z</time>
      </trkpt>
      <trkpt lat="46.02359" lon="6.47806">
        <ele>1258.5</ele>
        <time>2019-04-08T10:43:42Z</time>
      </trkpt>
      <trkpt lat="46.0236" lon="6.47806">
        <ele>1258.5</ele>
        <time>2019-04-08T10:43:43Z</time>
      </trkpt>
      <trkpt lat="46.02365" lon="6.4781">
        <ele>1258.98</ele>
        <time>2019-04-08T10:43:50Z</time>
      </trkpt>
      <trkpt lat="46.02366" lon="6.47811">
        <ele>1258.98</ele>
        <time>2019-04-08T10:43:51Z</time>
      </trkpt>
      <trkpt lat="46.02367" lon="6.47812">
        <ele>1258.98</ele>
        <time>2019-04-08T10:43:53Z</time>
      </trkpt>
      <trkpt lat="46.02371" lon="6.47815">
        <ele>1258.98</ele>
        <time>2019-04-08T10:43:58Z</time>
      </trkpt>
      <trkpt lat="46.02372" lon="6.47822">
        <ele>1258.5</ele>
        <time>2019-04-08T10:44:47Z</time>
      </trkpt>
      <trkpt lat="46.02373" lon="6.47821">
        <ele>1258.98</ele>
        <time>2019-04-08T10:44:49Z</time>
      </trkpt>
      <trkpt lat="46.02376" lon="6.47827">
        <ele>1258.02</ele>
        <time>2019-04-08T10:45:45Z</time>
      </trkpt>
      <trkpt lat="46.02377" lon="6.47826">
        <ele>1258.02</ele>
        <time>2019-04-08T10:45:46Z</time>
      </trkpt>
      <trkpt lat="46.02374" lon="6.47829">
        <ele>1258.02</ele>
        <time>2019-04-08T10:46:06Z</time>
      </trkpt>
      <trkpt lat="46.02386" lon="6.47818">
        <ele>1257.54</ele>
        <time>2019-04-08T10:46:39Z</time>
      </trkpt>
      <trkpt lat="46.02389" lon="6.47816">
        <ele>1258.02</ele>
        <time>2019-04-08T10:47:06Z</time>
      </trkpt>
      <trkpt lat="46.02387" lon="6.47817">
        <ele>1258.02</ele>
        <time>2019-04-08T10:47:09Z</time>
      </trkpt>
      <trkpt lat="46.02382" lon="6.4782">
        <ele>1257.54</ele>
        <time>2019-04-08T10:47:30Z</time>
      </trkpt>
      <trkpt lat="46.02383" lon="6.47819">
        <ele>1257.54</ele>
        <time>2019-04-08T10:47:31Z</time>
      </trkpt>
      <trkpt lat="46.02381" lon="6.47822">
        <ele>1257.54</ele>
        <time>2019-04-08T10:47:51Z</time>
      </trkpt>
      <trkpt lat="46.02381" lon="6.47823">
        <ele>1258.02</ele>
        <time>2019-04-08T10:48:02Z</time>
      </trkpt>
    </trkseg>
  </trk>
</gpx>